     2              OBSERVATION DATA    GPS                 RINEX VERSION / TYPE
teqc 2000Feb29 20031025 02:01:38UTC                         PGM / RUN BY / DATE
                                                            COMMENT
L2: 1 -> 1; 150 -> 5; 250 -> 9                              COMMENT
L2: 1 -> 1; 150 -> 5; 250 -> 9                              COMMENT
L2: 1 -> 1; 150 -> 5; 250 -> 9                              COMMENT
L2: 1 -> 1; 150 -> 5; 250 -> 9                              COMMENT
L2: 1 -> 1; 150 -> 5; 250 -> 9                              COMMENT
Original Marker Name: U471                                  COMMENT
Campaign Name: CSUSB 2002-2003                              COMMENT
4-Character Station Name: U471                              COMMENT
6-Character Antenna Code: DMRCHT                            COMMENT
Vertical Measurement Point: BCR                             COMMENT
Vertical Offset to Rinex Ref. Point: 0.0348                 COMMENT
Radial Measurement Point: ECF                               COMMENT
Radial Offset to Rinex Ref. Point: 0.1897                   COMMENT
Antenna Height from Field Measurement: 1.4720 m             COMMENT
Additional Antenna Identification Info.:                    COMMENT
Turborogue and Ashtech Choke Ring                           COMMENT
Original XYZ: -2424952.4400 -4697578.3600 3556933.7700      COMMENT
New XYZ position is based on association with SCEC monument COMMENT
E1D0S4K0+0011. Position of that monument is believed to be  COMMENT
valid to within 1 m horizontally; vertical accuracy         COMMENT
should be no worse than 3-times this value.                 COMMENT
                                                            COMMENT
Revised Rinex header created by UCSD GPS archive for        COMMENT
GSAC on 09-Nov-2004 (2004:314) 22:43:22 GMT                 COMMENT
For assistance contact dagnew@ucsd.edu                      COMMENT
or anderson@python.ucsd.edu                                 COMMENT
                                                            COMMENT
U471                                                        MARKER NAME
___ CAL STATE SAN BERNARDINO                                OBSERVER / AGENCY
1224 ASHTECH Z-X ZB00                                       REC # / TYPE / VERS
1401 DORNE-MARGOL. TYPE T                                   ANT # / TYPE
 -2424947.0000 -4697568.0000  3556921.0000                  APPROX POSITION XYZ
        1.4249        0.0000        0.0000                  ANTENNA: DELTA H/E/N
     1     1     0                                          WAVELENGTH FACT L1/2
     7    C1    L1    L2    P1    P2    S1    S2            # / TYPES OF OBSERV
     0                                                      INTERVAL
  2003     6    27    15    26   40.000000                  TIME OF FIRST OBS
  2003     6    27    23    36   20.000000                  TIME OF LAST OBS
                                                            END OF HEADER
 03  6 27 15 26 40.0000000  0  9G21G18G16G15G 6G30G29G26G10
  18537577.058      -25279.61754    -17423.24752  18537578.123    18537570.334
        57.000          49.000
  19758484.008      -79159.01853    -54846.01452  19758485.629    19758480.629
        54.000          46.000
  21363003.176      -54563.81353    -38784.46152  21363003.444    21363000.028
        46.000          39.000
  21124840.467
        45.000
  17719765.745      -10062.01554     -6487.14352  17719767.318    17719762.028
        57.000          51.000
  20923568.783
        49.000
  20265039.382      -20454.52953    -10866.33452  20265040.234    20265035.609
        52.000          44.000
  19585776.261      -46539.07553    -29346.09752  19585778.171    19585774.372
        50.000          43.000
  20747167.456       41684.98153     18424.60152  20747166.917    20747163.744
        49.000          42.000
 03  6 27 15 27  0.0000000  0  9G21G18G16G15G 6G30G29G26G10
  18531694.630      -56180.89744    -41502.17842  18531697.013    18531689.506
        57.000          49.000
  19745379.558     -148017.02843   -108501.57342  19745382.482    19745377.150
        53.000          45.000
  21353760.663     -103132.43543    -76630.12342  21353764.003    21353754.973
        47.000          40.000
  21113520.058
        45.000
  17717593.041      -21484.65444    -15387.92142  17717593.628    17717588.419
        57.000          51.000
  20934368.659       84434.09753     49748.91952  20934370.774    20934367.182
        50.000          42.000
  20261392.267      -39611.53343    -25793.86242  20261394.037    20261390.767
        51.000          44.000
  19575896.187      -98455.04243    -69800.05342  19575898.261    19575895.118
        50.000          43.000
  20757751.389       97306.65443     61766.12542  20757752.027    20757748.817
        50.000          42.000
 03  6 27 15 27 20.0000000  0  9G21G18G16G15G 6G30G29G26G10
  21066641.043    13265050.82543  10338678.37242  21066642.669    21066635.630
        56.000          49.000
  22273116.906    13135332.23443  10242160.21242  22273119.060    22273114.228
        53.000          45.000
  23885373.313    13200567.22943  10289889.08542  23885375.134    23885366.433
        49.000          40.000
  23643020.036    13212473.73453  10305785.37152  23643022.400    23643013.185
        44.000          36.000
  20256267.026    13319338.22944  10380058.46042  20256268.211    20256262.679
        58.000          51.000
  23485979.937    13493243.60343  10498171.76242  23485982.118    23485981.396
        50.000          43.000
  22798600.082    13293509.01543  10363650.72942  22798602.213    22798599.212
        51.000          44.000
  22106869.761    13201894.20343  10294108.49742  22106870.850    22106867.780
        51.000          44.000
  23309152.603    13505014.80743  10509330.87842  23309154.122    23309150.817
        49.000          43.000
 03  6 27 15 27 40.0000000  0  9G21G18G16G15G 6G30G29G26G10
  21062914.175    13245467.66943  10323418.76842  21062915.946    21062909.454
        56.000          49.000
  22262189.836    13077909.07843  10197414.92342  22262191.735    22262187.839
        53.000          45.000
  23878331.486    13163572.72943  10261062.23042  23878332.320    23878326.135
        49.000          40.000
  23633836.725    13164229.87843  10268192.73242  23633838.827    23633836.912
        44.000          36.000
  20256292.693    13319475.46844  10380165.37742  20256294.235    20256288.715
        58.000          51.000
  23498915.854    13561222.67943  10551142.31042  23498917.184    23498915.994
        50.000          43.000
  22797165.339    13285969.25943  10357775.60842  22797167.052    22797163.256
        51.000          44.000
  22099189.020    13161543.88243  10262666.73342  22099191.912    22099188.569
        50.000          44.000
  23321887.353    13571933.84843  10561475.54842  23321889.399    23321883.866
        50.000          43.000
 03  6 27 15 28  0.0000000  0  9G21G18G16G15G 6G30G29G26G10
  21059202.322    13225957.71344  10308216.19942  21059203.942    21059197.309
        57.000          50.000
  22251288.509    13020618.27943  10152772.75842  22251289.655    22251285.438
        53.000          46.000
  23871330.314    13126780.33443  10232392.79342  23871332.845    23871324.943
        48.000          40.000
  23624666.468    13116017.85243  10230624.89742  23624666.475    23624662.247
        44.000          37.000
  20256355.691    13319807.43844  10380424.02742  20256357.488    20256351.633
        58.000          51.000
  23511855.636    13629221.60443  10604128.30542  23511857.701    23511856.967
        49.000          42.000
  22795772.889    13278652.87543  10352074.53442  22795776.045    22795771.197
        51.000          44.000
  22091548.852    13121392.03743  10231379.63242  22091550.295    22091549.453
        51.000          44.000
  23334633.955    13638914.66943  10613668.33542  23334634.715    23334629.936
        50.000          43.000
 03  6 27 15 28 20.0000000  0  9G21G18G16G15G 6G30G29G26G10
  21055505.360    13206531.32144  10293078.74642  21055507.217    21055500.662
        57.000          50.000
  22240412.803    12963470.25643  10108241.85442  22240414.763    22240411.233
        53.000          46.000
  23864369.902    13090200.77343  10203889.22042  23864371.054    23864363.399
        48.000          40.000
  23615496.708    13067847.80943  10193089.78842  23615498.341    23615497.791
        43.000          37.000
  20256457.553    13320344.67044  10380842.62542  20256459.779    20256453.838
        58.000          51.000
  23524801.875    13697249.73843  10657137.08242  23524803.558    23524801.998
        50.000          43.000
  22794426.066    13271570.45643  10346555.79342  22794428.131    22794423.189
        51.000          44.000
  22083948.705    13081449.88343  10200255.89142  22083951.100    22083948.384
        51.000          44.000
  23347392.547    13705966.79443  10665916.69342  23347393.691    23347391.367
        49.000          43.000
 03  6 27 15 28 40.0000000  0  9G21G18G16G15G 6G30G29G26G10
  21051823.845    13187186.84144  10278005.12042  21051825.518    21051819.487
        57.000          49.000
  22229564.718    12906464.27143  10063821.63642  22229566.877    22229563.502
        53.000          46.000
  23857448.460    13053832.94643  10175550.63542  23857449.192    23857445.266
        46.000          40.000
  23606336.708    13019718.20943  10155586.21542  23606338.549    23606337.487
        41.000          37.000
  20256598.673    13321085.86944  10381420.15342  20256600.821    20256594.856
        58.000          51.000
  23537751.982    13765304.55743  10710166.65142  23537754.382    23537751.839
        50.000          43.000
  22793121.228    13264720.62543  10341218.26942  22793124.345    22793119.580
        50.000          44.000
  22076387.344    13041716.70143  10169295.03342  22076389.981    22076386.256
        51.000          44.000
  23360164.192    13773087.60543  10718218.56842  23360167.974    23360162.979
        48.000          43.000
 03  6 27 15 29  0.0000000  0  9G21G18G16G15G 6G30G29G26G10
  21048157.527    13167921.74443  10262993.36142  21048159.014    21048153.184
        56.000          49.000
  22218744.689    12849598.81643  10019510.90442  22218746.201    22218742.094
        54.000          46.000
  23850566.707    13017674.70643  10147375.36442  23850569.554    23850565.755
        46.000          39.000
  23597188.790    12971626.79643  10118112.36942  23597188.174    23597186.123
        44.000          38.000
  20256778.097    13322028.83444  10382154.90342  20256779.823    20256774.673
        58.000          51.000
  23550706.379    13833382.80543  10763214.46742  23550708.895    23550707.874
        49.000          43.000
  22791862.316    13258101.16443  10336060.26842  22791864.822    22791860.897
        50.000          44.000
  22068866.283    13002190.90943  10138495.74842  22068868.204    22068863.666
        51.000          44.000
  23372949.788    13840274.00843  10770571.55042  23372951.867    23372948.991
        48.000          42.000
 03  6 27 15 29 20.0000000  0  9G21G18G16G15G 6G30G29G26G10
  21044507.379    13148735.35044  10248042.90942  21044508.834    21044501.156
        57.000          49.000
  22207950.551    12792873.13243   9975309.09442  22207951.741    22207947.984
        54.000          46.000
  23843727.173    12981726.30243  10119363.59142  23843728.438    23843721.899
        45.000          39.000
  23588044.690    12923572.89043  10080667.76742  23588045.273    23588043.605
        45.000          39.000
  20256996.048    13323173.40444  10383046.74342  20256998.163    20256992.803
        58.000          51.000
  23563667.110    13901483.12943  10816279.48342  23563669.745    23563667.246
        50.000          43.000
  22790646.247    13251711.96143  10331081.67842  22790648.317    22790644.876
        50.000          44.000
  22061383.307    12962872.74943  10107858.26142  22061385.740    22061381.934
        51.000          43.000
  23385748.661    13907524.69043  10822974.64042  23385748.110    23385745.970
        49.000          42.000
 03  6 27 15 29 40.0000000  0 10G21G18G16G15G 6G30G29G26G10G17
  21040872.018    13129632.46744  10233157.53042  21040873.625    21040866.086
        57.000          49.000
  22197182.751    12736292.69143   9931220.47442  22197184.891    22197180.713
        54.000          46.000
  23836924.705    12945992.87643  10091519.37542  23836925.146    23836924.385
        45.000          39.000
  23578908.697    12875561.26543  10043256.12142  23578910.856    23578906.583
        45.000          39.000
  20257253.778    13324524.76944  10384099.73142  20257255.522    20257249.725
        58.000          51.000
  23576629.805    13969609.49543  10869364.79842  23576632.877    23576630.908
        49.000          42.000
  22789475.212    13245558.14343  10326286.50542  22789476.379    22789474.401
        50.000          44.000
  22053942.346    12923768.06043  10077387.11242  22053944.348    22053940.856
        51.000          44.000
  23398559.322    13974843.88843  10875431.13342  23398560.334    23398555.233
        49.000          42.000
  20872103.990
        56.000
 03  6 27 15 30  0.0000000  0 10G21G18G16G15G 6G30G29G26G10G17
  21037251.237    13110603.28744  10218329.58842  21037252.400    21037246.210
        57.000          50.000
  22186442.166    12679847.70343   9887237.38042  22186444.010    22186438.673
        54.000          46.000
  23830166.602    12910464.97143  10063835.26642  23830167.684    23830160.529
        46.000          39.000
  23569776.970    12827581.98843  10005869.69142  23569781.443    23569777.770
        45.000          39.000
  20257547.439    13326073.20644  10385306.28042  20257549.488    20257544.588
        57.000          51.000
  23589597.380    14037751.08043  10922461.97642  23589600.733    23589598.990
        49.000          42.000
  22788346.056    13239630.10243  10321667.24842  22788348.159    22788346.029
        50.000          44.000
  22046539.759    12884867.85743  10047075.30542  22046541.930    22046538.071
        51.000          44.000
  23411379.980    14042220.76343  10927932.54942  23411381.977    23411376.414
        50.000          42.000
  20872299.180     -735433.80553   -572125.29252  20872300.135    20872295.673
        56.000          50.000
 03  6 27 15 30 20.0000000  0 10G21G18G16G15G 6G30G29G26G10G17
  21033646.987    13091659.73644  10203568.37742  21033647.899    21033641.621
        57.000          50.000
  22175728.423    12623550.94043   9843369.79642  22175730.970    22175725.709
        53.000          46.000
  23823448.025    12875154.99143  10036321.00042  23823449.353    23823442.967
        48.000          40.000
  23560657.018    12779647.01543   9968517.78142  23560658.846    23560654.075
        47.000          40.000
  20257882.640    13327830.93244  10386675.90542  20257884.651    20257879.102
        57.000          51.000
  23602569.365    14105918.97643  10975579.64042  23602571.384    23602571.796
        48.000          41.000
  22787263.397    13233940.01743  10317233.41342  22787264.892    22787262.900
        49.000          43.000
  22039178.498    12846184.99543  10016932.86942  22039181.637    22039178.496
        51.000          44.000
  23424214.913    14109666.45743  10980487.58542  23424217.660    23424213.107
        49.000          42.000
  20872510.776     -734323.95543   -571260.48842  20872511.684    20872506.866
        56.000          50.000
 03  6 27 15 30 40.0000000  0 10G21G18G16G15G 6G30G29G26G10G17
  21030055.946    13072794.80144  10188868.43442  21030057.757    21030052.016
        57.000          50.000
  22165043.066    12567396.14443   9799612.85142  22165044.245    22165040.242
        54.000          46.000
  23816767.253    12840056.30343  10008971.37342  23816770.142    23816765.238
        47.000          41.000
  23551541.122    12731749.33043   9931194.93642  23551542.101    23551539.343
        46.000          39.000
  20258255.238    13329791.26544  10388203.40842  20258257.364    20258252.277
        57.000          51.000
  23615544.901    14174105.35443  11028711.69142  23615547.877    23615546.652
        47.000          40.000
  22786225.231    13228481.14043  10312979.73142  22786227.651    22786223.613
        49.000          43.000
  22031857.488    12807713.24643   9986954.93142  22031859.979    22031856.761
        51.000          44.000
  23437061.018    14177173.29743  11033090.26442  23437062.237    23437057.711
        49.000          42.000
  20872735.640     -733140.66844   -570338.45742  20872736.833    20872732.303
        57.000          50.000
 03  6 27 15 31  0.0000000  0 10G21G18G16G15G 6G30G29G26G10G17
  21026482.040    13054012.41244  10174232.80742  21026483.323    21026477.453
        57.000          50.000
  22154384.586    12511387.66743   9755969.90742  22154386.321    22154382.248
        53.000          46.000
  23810129.502    12805173.31143   9981789.84242  23810130.585    23810127.294
        47.000          40.000
  23542434.519    12683892.77743   9893904.13142  23542436.260    23542433.412
        47.000          39.000
  20258668.580    13331958.51844  10389892.15342  20258670.275    20258664.611
        58.000          51.000
  23628525.073    14242313.33743  11081860.58442  23628527.704    23628527.387
        48.000          41.000
  22785232.706    13223257.76343  10308909.57742  22785233.327    22785229.935
        50.000          43.000
  22024578.365    12769457.58343   9957145.36242  22024579.440    22024577.246
        52.000          44.000
  23449918.731    14244744.57643  11085743.17442  23449920.051    23449915.722
        49.000          42.000
  20872975.839     -731880.16044   -569356.25842  20872976.572    20872971.449
        57.000          50.000
 03  6 27 15 31 20.0000000  0 10G21G18G16G15G 6G30G29G26G10G17
  21022923.493    13035309.23644  10159658.90542  21022924.920    21022917.829
        57.000          49.000
  22143753.667    12455522.34743   9712438.50642  22143755.453    22143751.851
        53.000          46.000
  23803529.997    12770503.31243   9954774.26142  23803532.151    23803529.666
        45.000          40.000
  23533334.805    12636074.15543   9856642.87642  23533336.410    23533332.571
        46.000          39.000
  20259118.574    13334329.57244  10391739.70142  20259120.674    20259115.699
        57.000          51.000
  23641508.909    14310538.88543  11135023.16942  23641511.241    23641507.713
        48.000          41.000
  22784283.481    13218266.75643  10305020.48942  22784283.960    22784280.546
        50.000          44.000
  22017338.096    12731415.43543   9927502.16542  22017340.831    22017337.622
        51.000          44.000
  23462789.300    14312376.22043  11138443.10342  23462788.766    23462786.792
        49.000          42.000
  20873229.068     -730545.80344   -568316.51542  20873230.701    20873225.342
        57.000          50.000
 03  6 27 15 31 40.0000000  0 10G21G18G16G15G 6G30G29G26G10G17
  21019379.503    13016687.40644  10145148.37042  21019381.340    21019374.166
        57.000          49.000
  22133150.944    12399802.92143   9669020.79542  22133152.261    22133148.170
        54.000          46.000
  23796975.087    12736048.99343   9927926.72942  23796977.166    23796974.108
        45.000          40.000
  23524240.835    12588295.74043   9819412.97142  23524244.131    23524240.119
        45.000          38.000
  20259610.278    13336906.98244  10393748.04442  20259611.839    20259606.198
        58.000          51.000
  23654492.256    14378783.20943  11188200.43242  23654496.835    23654495.431
        46.000          40.000
  22783376.368    13213510.60243  10301314.40642  22783379.777    22783374.451
        50.000          43.000
  22010140.689    12693589.90443   9898027.78842  22010142.595    22010140.174
        51.000          44.000
  23475671.066    14380069.76143  11191191.26442  23475671.919    23475669.471
        49.000          42.000
  20873497.732     -729135.53144   -567217.62242  20873499.225    20873494.301
        57.000          50.000
 03  6 27 15 32  0.0000000  0 10G21G18G16G15G 6G30G29G26G10G17
  21015851.589    12998148.39344  10130702.36942  21015853.557    21015846.375
        57.000          49.000
  22122576.580    12344231.42543   9625718.33742  22122577.947    22122572.462
        54.000          46.000
  23790460.248    12701812.27643   9901248.76542  23790461.915    23790458.935
        46.000          41.000
  23515158.988    12540558.96243   9782215.53342  23515159.202    23515156.257
        45.000          38.000
  20260139.440    13339692.57844  10395918.62142  20260141.374    20260136.596
        58.000          51.000
  23667484.398    14447047.04543  11241392.84542  23667487.097    23667486.023
        46.000          40.000
  22782516.448    13208991.17743  10297792.78742  22782518.414    22782514.377
        50.000          44.000
  22002983.713    12655983.49543   9868724.11342  22002986.726    22002983.232
        51.000          44.000
  23488564.549    14447825.90743  11243988.21942  23488565.884    23488562.471
        49.000          42.000
  20873781.005     -727647.84844   -566058.40542  20873782.245    20873777.417
        57.000          50.000
 03  6 27 15 32 20.0000000  0 11G21G18G16G15G 6G30G29G26G10G23G17
  21012338.563    12979684.47144  10116314.89642  21012339.321    21012333.162
        57.000          50.000
  22112027.339    12288800.56243   9582525.48242  22112029.127    22112024.326
        53.000          46.000
  23783987.243    12667785.84543   9874734.67142  23783988.723    23783982.918
        48.000          41.000
  23506079.805    12492855.94843   9745044.37542  23506079.820    23506076.928
        44.000          38.000
  20260708.213    13342678.84044  10398245.54642  20260709.965    20260704.715
        57.000          51.000
  23680476.470    14515321.67943  11294593.68242  23680479.970    23680478.126
        47.000          40.000
  22781701.151    13204700.90743  10294449.72142  22781702.435    22781697.827
        51.000          43.000
  21995867.964    12618589.21643   9839585.73542  21995870.401    21995867.498
        51.000          44.000
  23501468.477    14515636.14843  11296827.29242  23501469.840    23501466.422
        50.000          42.000
  24286114.361
        46.000
  20874077.190     -726090.92644   -564845.22942  20874078.388    20874073.302
        57.000          50.000
 03  6 27 15 32 40.0000000  0 11G21G18G16G15G 6G30G29G26G10G23G17
  21008839.799    12961303.68744  10101992.21042  21008841.854    21008835.943
        57.000          50.000
  22101507.948    12233518.78043   9539448.79342  22101508.655    22101505.712
        53.000          46.000
  23777552.133    12633978.34243   9848391.15642  23777555.384    23777549.615
        48.000          41.000
  23497011.077    12445194.98343   9707905.98342  23497012.400    23497007.568
        43.000          37.000
  20261316.322    13345874.16144  10400735.37142  20261318.278    20261312.593
        58.000          51.000
  23693474.302    14583614.42343  11347808.63942  23693476.827    23693474.499
        47.000          40.000
  22780929.340    13200648.23043  10291291.78642  22780931.067    22780926.178
        51.000          44.000
  21988794.367    12581416.19243   9810619.78642  21988796.623    21988794.411
        51.000          44.000
  23514384.797    14583507.74643  11349714.21642  23514386.490    23514380.865
        49.000          42.000
  24273581.557
        47.000
  20874388.605     -724456.56044   -563571.72142  20874389.316    20874384.383
        57.000          50.000
 03  6 27 15 33  0.0000000  0 11G21G18G16G15G 6G30G29G26G10G23G17
  21005358.226    12943004.08644  10087732.78542  21005359.209    21005353.561
        57.000          50.000
  22091015.855    12178384.42643   9496487.00242  22091017.095    22091013.519
        53.000          46.000
  23771160.829    12600388.13143   9822216.99142  23771162.136    23771155.890
        47.000          41.000
  23487950.674    12397574.01843   9670798.74842  23487950.438    23487946.111
        44.000          36.000
  20261963.442    13349276.86644  10403386.80442  20261965.415    20261960.017
        57.000          51.000
  23706471.490    14651922.66043  11401035.64442  23706473.269    23706473.698
        47.000          40.000
  22780202.898    13196831.56543  10288317.76542  22780205.549    22780201.572
        51.000          44.000
  21981763.646    12544463.24243   9781825.32542  21981765.291    21981762.964
        51.000          45.000
  23527311.746    14651438.04543  11402646.88042  23527314.024    23527307.070
        50.000          42.000
  24261063.950     -748796.11953   -572523.34352  24261065.289    24261066.401
        46.000          38.000
  20874712.919     -722746.59243   -562239.31042  20874715.013    20874710.209
        56.000          50.000
 03  6 27 15 33 20.0000000  0 11G21G18G16G15G 6G30G29G26G10G23G17
  21001889.627    12924777.76844  10073530.46442  21001891.159    21001884.842
        57.000          50.000
  22080551.475    12123390.84343   9453634.87442  22080552.927    22080549.179
        54.000          46.000
  23764807.349    12567008.13243   9796206.60142  23764809.923    23764804.527
        47.000          40.000
  23478893.110    12349985.55143   9633716.87442  23478892.805    23478890.674
        43.000          37.000
  20262649.464    13352879.73544  10406194.21442  20262651.313    20262645.861
        57.000          51.000
  23719472.830    14720237.98843  11454268.18442  23719472.723    23719473.958
        48.000          40.000
  22779520.124    13193243.54343  10285521.91542  22779522.425    22779517.971
        50.000          43.000
  21974769.916    12507723.80343   9753197.24342  21974773.307    21974771.916
        50.000          44.000
  23540248.145    14719418.94243  11455618.95042  23540248.451    23540242.341
        51.000          42.000
  24248559.556     -814500.57243   -623721.59642  24248561.163    24248563.189
        45.000          37.000
  20875052.215     -720968.57143   -560853.85342  20875053.099    20875048.421
        56.000          50.000
 03  6 27 15 33 40.0000000  0 11G21G18G16G15G 6G30G29G26G10G23G17
  20998438.669    12906640.71044  10059397.67842  20998440.367    20998433.221
        57.000          50.000
  22070116.471    12068553.35843   9410904.36142  22070118.160    22070113.520
        54.000          47.000
  23758500.479    12533853.94943   9770372.17642  23758501.183    23758495.959
        47.000          40.000
  23469849.422    12302444.57243   9596672.00542  23469847.986    23469843.434
        45.000          37.000
  20263375.684    13356698.14144  10409169.56142  20263377.777    20263372.512
        57.000          51.000
  23732474.383    14788574.56343  11507517.28842  23732476.388    23732477.372
        47.000          40.000
  22778884.504    13189899.48843  10282916.14942  22778885.741    22778881.348
        50.000          43.000
  21967823.917    12471213.79843   9724747.92642  21967825.649    21967823.023
        51.000          44.000
  23553195.543    14787464.77343  11508641.63442  23553196.701    23553192.552
        50.000          41.000
  24236071.581     -880113.63943   -674848.60442  24236074.335    24236072.713
        44.000          37.000
  20875406.484     -719107.43643   -559403.62442  20875406.953    20875402.218
        56.000          50.000
 03  6 27 15 34  0.0000000  0 11G21G18G16G15G 6G30G29G26G10G23G17
  20995002.001    12888580.52944  10045324.79242  20995003.646    20994996.157
        57.000          50.000
  22059709.169    12013860.78843   9368286.78242  22059711.467    22059705.843
        54.000          47.000
  23752231.743    12500914.11243   9744704.76242  23752234.040    23752229.184
        47.000          40.000
  23460805.512    12254939.37943   9559654.96442  23460806.137    23460804.740
        45.000          37.000
  20264141.210    13360720.55344  10412303.87542  20264143.076    20264137.931
        57.000          51.000
  23745481.334    14856919.86643  11560773.20142  23745482.871    23745484.401
        47.000          40.000
  22778291.680    13186787.78443  10280491.45442  22778295.445    22778289.978
        50.000          43.000
  21960918.939    12434922.19643   9696468.79642  21960919.710    21960916.964
        52.000          44.000
  23566154.111    14855562.92843  11561705.07642  23566154.138    23566149.265
        49.000          41.000
  24223602.763     -945646.51343   -725913.12942  24223602.691    24223602.557
        43.000          36.000
  20875773.694     -717175.17244   -557897.98242  20875774.931    20875769.825
        57.000          50.000
 03  6 27 15 34 20.0000000  0 11G21G18G16G15G 6G30G29G26G10G23G17
  20991579.191    12870596.84044  10031311.51542  20991580.785    20991573.918
        57.000          49.000
  22049328.330    11959313.31043   9325782.27642  22049330.513    22049325.897
        54.000          47.000
  23746005.088    12468188.84943   9719204.57742  23746007.490    23746001.103
        48.000          41.000
  23451773.936    12207469.76043   9522665.64642  23451774.781    23451769.301
        46.000          37.000
  20264945.711    13364946.98044  10415597.16642  20264947.583    20264942.000
        57.000          51.000
  23758489.230    14925272.78143  11614035.03642  23758491.488    23758489.862
        47.000          40.000
  22777743.724    13183908.55443  10278247.88942  22777745.603    22777741.463
        50.000          43.000
  21954053.703    12398849.81443   9668360.46842  21954056.761    21954052.576
        52.000          45.000
  23579122.254    14923712.50343  11614808.60342  23579124.714    23579118.303
        49.000          40.000
  24211147.581    -1011099.04043   -776915.03942  24211147.124    24211148.440
        43.000          36.000
  20876155.581     -715171.92544   -556337.03842  20876156.599    20876151.329
        57.000          50.000
 03  6 27 15 34 40.0000000  0 11G21G18G16G15G 6G30G29G26G10G23G17
  20988173.190    12852700.01943  10017365.94642  20988174.818    20988168.835
        56.000          49.000
  22038978.137    11904921.29343   9283398.90042  22038980.064    22038975.482
        55.000          47.000
  23739818.225    12435688.52043   9693879.65642  23739822.313    23739815.646
        48.000          41.000
  23442750.733    12160045.70243   9485711.85242  23442752.271    23442742.718
        48.000          37.000
  20265790.871    13369387.59344  10419057.35342  20265792.758    20265787.198
        58.000          51.000
  23771501.010    14993642.43943  11667309.90142  23771502.131    23771500.181
        48.000          40.000
  22777242.445    13181271.83643  10276193.30442  22777244.412    22777240.361
        51.000          44.000
  21947232.422    12363007.25243   9640431.23942  21947235.227    21947232.166
        52.000          44.000
  23592102.356    14991922.72643  11667959.38242  23592102.539    23592099.659
        49.000          40.000
  24198709.319    -1076460.62943   -827846.12242  24198709.326    24198710.643
        40.000          35.000
  20876552.052     -713087.82243   -554713.06842  20876552.752    20876548.002
        56.000          50.000
 03  6 27 15 35  0.0000000  0 11G21G18G16G15G 6G30G29G26G10G23G17
  20984782.929    12834878.53744  10003479.07742  20984784.159    20984777.885
        57.000          50.000
  22028655.427    11850673.76043   9241128.11942  22028656.666    22028652.663
        54.000          47.000
  23733677.058    12403402.01043   9668721.34142  23733677.345    23733672.769
        49.000          41.000
  23433730.724    12112655.59443   9448784.48642  23433733.912    23433729.067
        47.000          37.000
  20266674.270    13374031.21644  10422675.73042  20266675.945    20266671.210
        57.000          51.000
  23784510.485    15062016.53243  11720588.22042  23784514.573    23784513.083
        47.000          40.000
  22776784.933    13178866.49643  10274319.02342  22776788.713    22776783.105
        51.000          44.000
  21940454.959    12327383.99043   9612672.87742  21940456.722    21940453.632
        52.000          44.000
  23605091.815    15060181.38843  11721147.89542  23605094.238    23605090.362
        49.000          40.000
  24186284.418    -1141742.30243   -878714.98342  24186288.782    24186288.742
        39.000          35.000
  20876961.040     -710934.04243   -553034.80942  20876962.749    20876957.970
        56.000          50.000
 03  6 27 15 35 20.0000000  0 11G21G18G16G15G 6G30G29G26G10G23G17
  20981408.022    12817142.56544   9989658.82642  20981409.314    20981402.318
        57.000          50.000
  22018361.371    11796581.44043   9198978.29242  22018363.153    22018359.472
        54.000          47.000
  23727572.451    12371340.14043   9643738.08442  23727574.929    23727569.945
        46.000          41.000
  23424719.915    12065309.73043   9411891.62942  23424725.146    23424720.944
        47.000          37.000
  20267599.333    13378888.42544  10426460.53242  20267600.929    20267595.989
        58.000          51.000
  23797523.171    15130404.53943  11773877.37242  23797526.329    23797527.234
        45.000          40.000
  22776371.597    13176703.02543  10272633.21142  22776374.243    22776369.716
        50.000          43.000
  21933717.952    12291991.21043   9585094.12842  21933721.300    21933719.009
        51.000          45.000
  23618091.126    15128498.13643  11774381.67642  23618093.085    23618088.713
        49.000          40.000
  24173883.779    -1206933.09843   -929513.00442  24173884.137    24173882.111
        41.000          36.000
  20877386.936     -708700.70544   -551294.56042  20877388.037    20877382.997
        57.000          50.000
 03  6 27 15 35 40.0000000  0 11G21G18G16G15G 6G30G29G26G10G23G17
  20978046.394    12799481.34244   9975896.82742  20978048.387    20978041.647
        57.000          49.000
  22008096.391    11742634.27843   9156941.55742  22008097.339    22008093.129
        54.000          46.000
  23721514.024    12339492.87443   9618922.01042  23721515.296    23721509.913
        47.000          41.000
  23415719.480    12017997.64343   9375025.04042  23415718.887    23415717.767
        48.000          38.000
  20268561.724    13383948.84344  10430403.68242  20268563.876    20268558.633
        57.000          51.000
  23810535.094    15198795.10443  11827168.51142  23810540.689    23810541.106
        45.000          40.000
  22776005.710    13174771.11743  10271127.81142  22776008.069    22776001.271
        51.000          43.000
  21927025.993    12256819.10643   9557687.33342  21927027.738    21927025.625
        51.000          44.000
  23631101.983    15196861.50943  11827651.79842  23631103.546    23631099.315
        49.000          41.000
  24161496.307    -1272043.20143   -980248.12242  24161495.321    24161491.538
        44.000          37.000
  20877824.465     -706398.79043   -549500.87842  20877825.411    20877820.565
        56.000          50.000
 03  6 27 15 36  0.0000000  0 11G21G18G16G15G 6G30G29G26G10G23G17
  20974701.650    12781905.58844   9962201.43042  20974703.421    20974696.738
        57.000          49.000
  21997858.804    11688842.90143   9115026.21842  21997860.894    21997856.393
        53.000          46.000
  23715494.854    12307870.87443   9594281.50042  23715498.698    23715492.442
        47.000          41.000
  23406722.961    11970729.77143   9338192.94842  23406725.320    23406721.791
        47.000          37.000
  20269565.296    13389223.10244  10434513.46942  20269567.459    20269562.338
        57.000          51.000
  23823555.724    15267197.77143  11880469.09442  23823556.412    23823558.192
        46.000          41.000
  22775683.494    13173081.32443  10269811.08442  22775686.750    22775682.722
        51.000          43.000
  21920376.126    12221878.96343   9530461.28942  21920378.967    21920375.862
        51.000          44.000
  23644121.491    15265281.11743  11880965.73042  23644121.533    23644117.753
        49.000          41.000
  24149121.900    -1337061.74643  -1030911.88342  24149122.021    24149120.068
        45.000          37.000
  20878278.099     -704017.43343   -547645.28742  20878278.768    20878273.710
        56.000          50.000
 03  6 27 15 36 20.0000000  0 11G21G18G16G15G 6G30G29G26G10G23G17
  20971371.859    12764405.01244   9948564.61242  20971373.227    20971366.331
        57.000          49.000
  21987651.369    11635197.84443   9073224.90242  21987653.662    21987648.421
        54.000          46.000
  23709520.800    12276464.43043   9569808.93842  23709520.406    23709516.682
        48.000          41.000
  23397734.635    11923495.93143   9301387.34242  23397737.064    23397735.823
        47.000          37.000
  20270608.373    13394701.34544  10438782.19642  20270610.110    20270604.652
        58.000          51.000
  23836572.433    15335601.50143  11933770.49242  23836575.110    23836575.084
        46.000          40.000
  22775406.233    13171623.63743  10268675.26042  22775409.472    22775404.433
        51.000          44.000
  21913769.275    12187161.44043   9503408.68542  21913771.710    21913769.927
        51.000          44.000
  23657150.583    15333746.21743  11934315.09942  23657153.447    23657146.722
        50.000          41.000
  24136762.603    -1401998.27743  -1081511.75342  24136765.276    24136765.068
        46.000          38.000
  20878743.625     -701567.10743   -545735.95342  20878745.191    20878740.796
        56.000          50.000
 03  6 27 15 36 40.0000000  0 11G21G18G16G15G 6G30G29G26G10G23G17
  20968056.601    12746985.40844   9934990.88942  20968058.176    20968051.690
        57.000          49.000
  21977471.918    11581705.58543   9031542.63942  21977472.908    21977468.391
        54.000          46.000
  23703586.561    12245279.89943   9545509.30942  23703586.886    23703583.095
        48.000          41.000
  23388753.237    11876302.05043   9264612.87842  23388754.464    23388751.230
        46.000          38.000
  20271690.360    13400389.94744  10443214.84042  20271692.202    20271687.048
        57.000          51.000
  23849589.694    15404011.68543  11987076.88342  23849591.043    23849593.695
        45.000          40.000
  22775174.747    13170404.37743  10267725.20542  22775176.978    22775171.717
        52.000          43.000
  21907207.180    12152673.48243   9476534.97042  21907209.789    21907206.553
        51.000          44.000
  23670188.388    15402262.13643  11987704.07542  23670191.075    23670186.596
        50.000          41.000
  24124421.704    -1466846.09443  -1132042.51242  24124423.846    24124425.119
        45.000          39.000
  20879224.837     -699042.01443   -543768.36442  20879225.720    20879221.673
        56.000          50.000
 03  6 27 15 37  0.0000000  0 11G21G18G16G15G 6G30G29G26G10G23G17
  20964757.633    12729646.11244   9921479.74242  20964758.803    20964752.387
        57.000          49.000
  21967320.926    11528365.26243   8989978.75942  21967323.010    21967319.151
        53.000          46.000
  23697694.443    12214316.73643   9521382.17642  23697695.753    23697691.652
        48.000          41.000
  23379781.874    11829146.96343   9227868.69842  23379780.875    23379780.509
        46.000          38.000
  20272812.476    13406287.85744  10447810.57742  20272814.583    20272809.778
        57.000          51.000
  23862608.845    15472426.17743  12040386.68142  23862612.293    23862613.249
        45.000          40.000
  22774986.999    13169422.67443  10266960.24342  22774988.542    22774984.756
        51.000          43.000
  21900688.352    12118414.71743   9449839.87042  21900689.549    21900687.875
        51.000          44.000
  23683235.408    15470826.98643  12041131.18442  23683236.665    23683231.776
        50.000          41.000
  24112098.852    -1531605.97843  -1182504.77442  24112099.423    24112100.939
        45.000          39.000
  20879719.347     -696442.98443   -541743.16942  20879720.307    20879715.448
        56.000          49.000
 03  6 27 15 37 20.0000000  0 11G21G18G16G15G 6G30G29G26G10G23G17
  20961473.614    12712388.97444   9908032.61842  20961475.054    20961468.752
        57.000          50.000
  21957200.808    11475179.84943   8948535.58842  21957202.495    21957197.373
        53.000          46.000
  23691841.836    12183577.58843   9497429.57942  23691843.849    23691841.863
        46.000          41.000
  23370815.876    11782033.22343   9191156.67942  23370815.698    23370814.140
        46.000          38.000
  20273976.277    13412397.85844  10452571.58142  20273977.562    20273972.315
        58.000          51.000
  23875628.597    15540846.65943  12093701.10842  23875631.993    23875633.329
        45.000          40.000
  22774845.841    13168681.15343  10266382.43642  22774848.720    22774846.501
        50.000          44.000
  21894212.903    12084388.41943   9423325.89642  21894216.000    21894212.549
        51.000          44.000
  23696291.840    15539442.62243  12094597.87542  23696293.400    23696288.581
        49.000          41.000
  24099793.170    -1596274.91643  -1232896.13042  24099792.768    24099794.200
        45.000          39.000
  20880227.970     -693768.58843   -539659.24642  20880229.498    20880224.374
        56.000          50.000
 03  6 27 15 37 40.0000000  0 11G21G18G16G15G 6G30G29G26G10G23G17
  20958204.476    12695209.81244   9894646.24842  20958206.141    20958199.841
        57.000          50.000
  21947108.378    11422145.56343   8907210.18442  21947110.134    21947105.789
        54.000          46.000
  23686037.569    12153058.78943   9473648.69542  23686037.100    23686033.098
        47.000          41.000
  23361859.298    11734956.62943   9154473.65342  23361858.190    23361854.657
        45.000          38.000
  20275177.567    13418716.00744  10457494.78642  20275179.839    20275174.599
        57.000          51.000
  23888651.162    15609268.29343  12147016.44742  23888652.638    23888652.700
        46.000          40.000
  22774748.891    13168175.92543  10265988.74642  22774752.227    22774748.012
        50.000          44.000
  21887782.636    12050591.30643   9396990.51542  21887783.768    21887781.058
        51.000          44.000
  23709357.839    15608104.23343  12148100.36442  23709358.169    23709353.950
        48.000          41.000
  24087503.369    -1660856.43543  -1283219.35142  24087504.181    24087504.924
        45.000          40.000
  20880751.115     -691022.25043   -537519.26342  20880751.772    20880747.174
        56.000          50.000
 03  6 27 15 38  0.0000000  0 11G21G18G16G15G 6G30G29G26G10G23G17
  20954950.792    12678110.37444   9881322.00042  20954952.188    20954945.541
        57.000          50.000
  21937045.817    11369263.75543   8866003.59342  21937047.990    21937042.821
        54.000          46.000
  23680269.862    12122761.65143   9450040.55142  23680273.060    23680268.844
        46.000          41.000
  23352909.111    11687918.07743   9117820.27842  23352909.360    23352903.073
        46.000          39.000
  20276420.294    13425243.48444  10462581.08942  20276422.129    20276417.239
        57.000          51.000
  23901672.025    15677691.02043  12200332.59042  23901674.455    23901673.153
        47.000          40.000
  22774699.729    13167907.96943  10265779.94642  22774701.460    22774697.630
        51.000          44.000
  21881394.464    12017025.10943   9370835.07842  21881396.509    21881392.864
        51.000          44.000
  23722433.383    15676811.95043  12201638.82742  23722433.024    23722428.095
        48.000          41.000
  24075230.904    -1725349.13743  -1333473.35642  24075232.340    24075231.921
        45.000          39.000
  20881287.878     -688203.05544   -535322.50042  20881288.913    20881283.779
        57.000          50.000
 03  6 27 15 38 20.0000000  0 11G21G18G16G15G 6G30G29G26G10G23G17
  20951711.581    12661088.33344   9868058.06142  20951712.710    20951706.365
        57.000          50.000
  21927011.833    11316533.02543   8824914.72442  21927013.302    21927009.248
        54.000          46.000
  23674549.135    12092684.66543   9426603.96642  23674549.888    23674546.357
        48.000          41.000
  23343962.422    11640915.78043   9081195.13142  23343964.495    23343960.398
        44.000          38.000
  20277701.627    13431978.70244  10467829.28042  20277703.685    20277699.164
        57.000          51.000
  23914690.948    15746112.25643  12253647.62642  23914693.401    23914693.462
        46.000          40.000
  22774693.005    13167875.67043  10265754.79042  22774694.928    22774690.840
        50.000          44.000
  21875049.943    11983688.80543   9344858.76042  21875052.736    21875050.102
        51.000          44.000
  23735517.718    15745563.26443  12255211.23242  23735519.539    23735512.880
        49.000          41.000
  24062974.055    -1789754.38643  -1383659.23042  24062976.183    24062976.397
        45.000          40.000
  20881837.601     -685312.14244   -533069.85742  20881838.883    20881833.967
        57.000          50.000
 03  6 27 15 38 40.0000000  0 11G21G18G16G15G 6G30G29G26G10G23G17
  20948488.802    12644150.77544   9854859.96042  20948489.915    20948483.421
        57.000          50.000
  21917006.550    11263961.05043   8783949.56742  21917008.756    21917004.174
        54.000          46.000
  23668866.813    12062835.26643   9403344.66142  23668869.824    23668864.551
        47.000          41.000
  23335029.825    11593956.64743   9044603.62942  23335028.140    23335023.198
        44.000          38.000
  20279025.084    13438928.78744  10473244.89742  20279026.563    20279021.108
        58.000          51.000
  23927709.768    15814538.04443  12306966.22942  23927712.620    23927715.008
        46.000          40.000
  22774732.461    13168085.98343  10265918.67642  22774735.941    22774731.340
        50.000          43.000
  21868751.818    11950590.00443   9319067.50542  21868754.675    21868750.813
        51.000          44.000
  23748608.926    15814364.30443  12308822.40342  23748611.655    23748606.841
        49.000          41.000
  24050738.024    -1854064.77543  -1433771.21442  24050738.879    24050739.549
        46.000          40.000
  20882401.744     -682343.99043   -530757.02542  20882403.011    20882398.485
        56.000          50.000
 03  6 27 15 39  0.0000000  0 11G21G18G16G15G 6G30G29G26G10G23G17
  20945280.464    12627292.55444   9841723.67842  20945281.740    20945275.024
        57.000          50.000
  21907032.712    11211542.62643   8743104.05642  21907033.778    21907029.637
        54.000          47.000
  23663229.061    12033208.54843   9380258.86942  23663231.122    23663226.744
        46.000          41.000
  23326100.897    11547035.60943   9008041.82942  23326101.480    23326096.068
        44.000          38.000
  20280386.660    13446088.82444  10478824.11342  20280388.898    20280383.547
        58.000          51.000
  23940733.919    15882962.49043  12360283.76842  23940736.277    23940736.804
        48.000          40.000
  22774818.316    13168534.09743  10266267.87342  22774821.360    22774816.716
        50.000          43.000
  21862498.279    11917724.54843   9293458.07242  21862499.983    21862496.798
        51.000          44.000
  23761709.368    15883209.21643  12362467.74842  23761711.083    23761705.751
        49.000          41.000
  24038517.906    -1918284.90743  -1483812.86742  24038519.932    24038517.834
        47.000          41.000
  20882980.980     -679302.21243   -528386.82442  20882981.976    20882976.996
        56.000          50.000
 03  6 27 15 39 20.0000000  0 11G21G18G16G15G 6G30G29G26G10G23G17
  20942087.441    12610513.10444   9828648.77342  20942089.038    20942081.993
        57.000          50.000
  21897086.994    11159277.86243   8702378.27842  21897088.741    21897083.429
        55.000          47.000
  23657635.384    12003804.67743   9357346.74942  23657636.275    23657630.914
        47.000          41.000
  23317177.000    11500152.25343   8971509.38442  23317177.726    23317173.329
        45.000          39.000
  20281788.897    13453458.78244  10484566.90242  20281791.138    20281786.034
        57.000          51.000
  23953754.766    15951384.51143  12413599.40242  23953757.112    23953755.606
        48.000          41.000
  22774948.677    13169219.91143  10266802.27742  22774951.282    22774946.964
        50.000          43.000
  21856288.796    11885092.87943   9268030.82842  21856291.199    21856287.669
        50.000          45.000
  23774817.945    15952096.94543  12416146.45142  23774820.104    23774814.503
        49.000          41.000
  24026312.697    -1982414.49343  -1533783.94042  24026315.981    24026314.309
        47.000          41.000
  20883574.325     -676187.44344   -525959.75742  20883575.369    20883570.271
        57.000          50.000
 03  6 27 15 39 40.0000000  0 11G21G18G16G15G 6G30G29G26G10G23G17
  20938909.485    12593812.99744   9815635.69342  20938910.924    20938904.117
        57.000          49.000
  21887170.989    11107167.64243   8661772.92642  21887172.208    21887167.150
        55.000          47.000
  23652081.034    11974624.25743   9334608.74042  23652083.091    23652078.748
        47.000          40.000
  23308263.042    11453306.89343   8935006.50942  23308265.727    23308259.522
        45.000          39.000
  20283232.182    13461039.09344  10490473.59842  20283233.902    20283228.439
        58.000          51.000
  23966773.892    16019803.49843  12466912.66842  23966775.090    23966776.218
        47.000          40.000
  22775124.245    13170143.77943  10267522.16542  22775126.740    22775122.895
        49.000          43.000
  21850122.165    11852696.04543   9242786.58042  21850124.989    21850122.823
        51.000          45.000
  23787936.147    16021027.20443  12469858.28842  23787936.792    23787931.785
        49.000          42.000
  24014127.497    -2046452.80743  -1583683.89042  24014128.256    24014128.822
        47.000          41.000
  20884180.456     -672999.84444   -523475.93342  20884182.184    20884177.155
        57.000          50.000
 03  6 27 15 40  0.0000000  0 11G21G18G16G15G 6G30G29G26G10G23G17
  20935747.377    12577194.89444   9802686.51342  20935748.711    20935742.040
        57.000          49.000
  21877283.275    11055215.41943   8621290.66742  21877284.964    21877281.021
        54.000          47.000
  23646574.024    11945670.70843   9312047.52142  23646575.542    23646567.257
        48.000          41.000
  23299354.880    11406502.57243   8898535.63342  23299355.577    23299353.074
        44.000          39.000
  20284714.577    13468832.99144  10496546.72742  20284716.805    20284711.518
        57.000          51.000
  23979792.497    16088221.83543  12520225.39842  23979795.922    23979797.120
        46.000          39.000
  22775346.462    13171308.93043  10268430.09142  22775348.930    22775345.580
        50.000          43.000
  21844005.126    11820537.92643   9217728.31842  21844006.569    21844003.215
        51.000          45.000
  23801061.758    16090002.37843  12523605.12742  23801062.519    23801057.954
        50.000          41.000
  24001957.333    -2110396.20243  -1633509.90142  24001959.739    24001960.670
        46.000          41.000
  20884801.199     -669736.14743   -520932.80642  20884802.200    20884798.002
        56.000          50.000
 03  6 27 15 40 20.0000000  0 11G21G18G16G15G 6G30G29G26G10G23G17
  20932599.825    12560656.53944   9789799.48042  20932601.403    20932594.802
        57.000          49.000
  21867427.327    11003418.70543   8580929.60142  21867429.003    21867424.976
        54.000          47.000
  23641105.933    11916941.64243   9289661.23342  23641106.249    23641099.717
        48.000          41.000
  23290457.165    11359736.50643   8862094.57242  23290456.199    23290454.054
        44.000          39.000
  20286238.530    13476837.98644  10502784.35542  20286240.173    20286234.489
        57.000          51.000
  23992809.964    16156635.77843  12573534.75642  23992812.804    23992813.245
        45.000          39.000
  22775613.282    13172712.81443  10269524.01842  22775615.846    22775611.751
        50.000          44.000
  21837928.751    11788616.47743   9192854.49142  21837931.219    21837927.824
        51.000          45.000
  23814194.320    16159018.90143  12577384.18342  23814195.556    23814193.250
        49.000          41.000
  23989807.576    -2174246.99143  -1683263.72942  23989809.726    23989810.743
        46.000          41.000
  20885437.306     -666397.82543   -518331.53542  20885437.757    20885432.715
        56.000          49.000
 03  6 27 15 40 40.0000000  0 11G21G18G16G15G 6G30G29G26G10G23G17
  20929468.896    12544200.94944   9776976.92642  20929470.320    20929463.681
        57.000          50.000
  21857600.837    10951781.10643   8540692.52642  21857602.771    21857598.686
        55.000          47.000
  23635680.504    11888440.41643   9267452.47042  23635682.145    23635679.956
        48.000          41.000
  23281562.865    11313011.87543   8825685.77042  23281564.204    23281563.910
        43.000          39.000
  20287802.543    13485057.35444  10509189.01542  20287804.517    20287798.981
        57.000          51.000
  24005828.685    16225047.78043  12626842.56442  24005830.998    24005835.351
        45.000          39.000
  22775926.695    13174358.56043  10270806.42142  22775929.079    22775923.921
        50.000          44.000
  21831900.899    11756935.70443   9168168.19542  21831902.791    21831899.776
        51.000          45.000
  23827335.367    16228079.21143  12631197.38742  23827336.500    23827332.529
        49.000          41.000
  23977677.326    -2238001.58943  -1732942.57542  23977677.912    23977678.026
        47.000          41.000
  20886087.025     -662980.80643   -515668.94942  20886088.465    20886083.127
        56.000          49.000
 03  6 27 15 41  0.0000000  0 11G21G18G16G15G 6G30G29G26G10G23G17
  20926352.327    12527822.40744   9764214.40842  20926353.817    20926346.821
        57.000          50.000
  21847803.920    10900297.73043   8500575.62942  21847805.683    21847801.328
        54.000          47.000
  23630302.131    11860162.13443   9245417.42442  23630303.432    23630295.716
        49.000          41.000
  23272679.560    11266323.40443   8789305.13242  23272680.850    23272679.385
        43.000          39.000
  20289406.500    13493485.92344  10515756.69742  20289408.241    20289403.112
        58.000          51.000
  24018847.780    16293451.52343  12680143.96342  24018849.952    24018851.782
        46.000          38.000
  22776284.450    13176240.98843  10272273.25342  22776288.310    22776281.739
        50.000          43.000
  21825917.275    11725490.86143   9143665.75142  21825919.485    21825916.001
        52.000          45.000
  23840484.729    16297177.28143  12685040.00342  23840485.466    23840483.560
        48.000          41.000
  23965561.978    -2301664.79943  -1782550.22742  23965564.757    23965562.616
        48.000          40.000
  20886750.369     -659495.64443   -512953.25942  20886751.386    20886747.171
        56.000          49.000
 03  6 27 15 41 20.0000000  0 11G21G18G16G15G 6G30G29G26G10G23G17
  20923249.847    12511520.18944   9751511.37542  20923251.396    20923244.654
        57.000          50.000
  21838037.645    10848968.08243   8460578.51942  21838038.526    21838034.090
        55.000          47.000
  23624961.991    11832106.25343   9223555.68542  23624966.092    23624958.661
        48.000          41.000
  23263803.271    11219670.14243   8752951.93442  23263803.122    23263800.002
        44.000          39.000
  20291050.624    13502123.03544  10522486.88442  20291052.202    20291047.051
        58.000          51.000
  24031863.950    16361845.35043  12733437.62042  24031863.328    24031866.491
        46.000          38.000
  22776687.891    13178359.46743  10273924.02342  22776690.621    22776686.180
        50.000          43.000
  21819978.713    11694282.10243   9119347.26942  21819980.725    21819977.172
        52.000          45.000
  23853640.777    16366311.57143  12738910.81842  23853641.480    23853638.935
        48.000          41.000
  23953463.633    -2365236.88943  -1832086.89942  23953467.217    23953465.829
        47.000          40.000
  20887426.943     -655941.58743   -510183.87842  20887428.117    20887422.801
        56.000          49.000
 03  6 27 15 41 40.0000000  0 11G21G18G16G15G 6G30G29G26G10G23G17
  20920163.671    12495304.06844   9738875.42142  20920165.443    20920158.908
        57.000          50.000
  21828299.520    10797802.22043   8420709.03942  21828301.710    21828297.000
        54.000          47.000
  23619667.218    11804282.90143   9201875.12742  23619669.436    23619664.815
        48.000          41.000
  23254933.720    11173061.70443   8716633.69942  23254933.956    23254929.287
        45.000          39.000
  20292735.690    13510978.52344  10529387.22242  20292737.862    20292732.348
        58.000          51.000
  24044877.716    16430238.24243  12786730.54242  24044881.305    24044881.364
        46.000          39.000
  22777137.537    13180723.85643  10275766.39842  22777140.056    22777135.680
        50.000          43.000
  21814086.152    11663319.67843   9095220.73142  21814088.416    21814085.668
        51.000          45.000
  23866805.441    16435491.05843  12792816.84542  23866806.539    23866803.141
        47.000          41.000
  23941386.367    -2428707.72943  -1881544.66542  23941388.293    23941388.440
        47.000          39.000
  20888117.511     -652308.54343   -507352.95142  20888119.007    20888113.946
        56.000          49.000
 03  6 27 15 42  0.0000000  0 11G21G18G16G15G 6G30G29G26G10G23G17
  20917092.531    12479164.55444   9726299.15642  20917094.205    20917087.738
        57.000          50.000
  21818591.938    10746790.83943   8380959.92642  21818593.390    21818590.042
        54.000          47.000
  23614415.710    11776682.59943   9180368.36742  23614417.037    23614410.783
        49.000          41.000
  23246071.231    11126488.69743   8680343.05842  23246072.542    23246066.028
        45.000          39.000
  20294460.372    13520043.09744  10536450.49242  20294462.475    20294457.293
        58.000          51.000
  24057890.676    16498619.70043  12840014.58642  24057892.709    24057892.603
        46.000          38.000
  22777632.684    13183324.43543  10277792.84742  22777635.757    22777630.064
        51.000          43.000
  21808240.256    11632594.91943   9071279.39142  21808241.958    21808238.797
        52.000          45.000
  23879975.587    16504705.35643  12846750.02142  23879977.911    23879973.447
        46.000          41.000
  23929325.894    -2492086.45243  -1930930.68242  23929327.495    23929328.216
        46.000          39.000
  20888822.996     -648605.88343   -504467.78142  20888823.893    20888818.793
        56.000          49.000
 03  6 27 15 42 20.0000000  0 11G21G18G16G15G 6G30G29G26G10G23G17
  20914036.603    12463106.23244   9713786.15242  20914038.764    20914031.951
        57.000          50.000
  21808915.958    10695939.01643   8341335.14242  21808918.023    21808913.307
        54.000          47.000
  23609206.606    11749310.39843   9159039.36442  23609208.646    23609202.488
        48.000          41.000
  23237216.017    11079955.58043   8644083.47342  23237217.255    23237211.884
        46.000          39.000
  20296226.161    13529321.48344  10543680.36442  20296228.076    20296222.660
        58.000          51.000
  24070901.124    16566993.57043  12893292.65742  24070903.466    24070903.853
        45.000          38.000
  22778174.050    13186166.06143  10280007.08042  22778176.873    22778172.240
        51.000          43.000
  21802439.384    11602113.00643   9047527.28742  21802441.893    21802438.028
        52.000          45.000
  23893156.129    16573958.35743  12900713.37242  23893154.943    23893153.550
        48.000          40.000
  23917283.702    -2555368.01143  -1980240.98942  23917287.464    23917283.170
        47.000          39.000
  20889541.092     -644828.90643   -501524.71242  20889542.557    20889537.580
        56.000          49.000
 03  6 27 15 42 40.0000000  0 11G21G18G16G15G 6G30G29G26G10G23G17
  20910996.461    12447126.56544   9701334.44342  20910998.050    20910991.112
        57.000          50.000
  21799268.795    10645244.67843   8301833.06742  21799270.363    21799266.056
        54.000          47.000
  23604041.037    11722164.10743   9137886.40242  23604043.503    23604035.546
        48.000          41.000
  23228370.397    11033459.73143   8607852.95842  23228371.656    23228363.394
        48.000          40.000
  20298031.742    13538811.29644  10551075.00042  20298033.712    20298028.680
        58.000          51.000
  24083911.862    16635356.59243  12946562.29242  24083912.782    24083915.957
        45.000          38.000
  22778758.288    13189246.42043  10282407.36242  22778760.956    22778758.060
        50.000          43.000
  21796682.917    11571872.21743   9023963.06742  21796685.900    21796683.904
        51.000          45.000
  23906340.593    16643246.98443  12954704.44842  23906340.085    23906338.177
        48.000          40.000
  23905259.652    -2618554.43943  -2029477.12742  23905260.083    23905258.087
        47.000          38.000
  20890272.838     -640980.25743   -498525.77742  20890274.069    20890270.524
        55.000          49.000
 03  6 27 15 43  0.0000000  0 11G21G18G16G15G 6G30G29G26G10G23G17
  20907970.530    12431229.36944   9688947.02142  20907972.345    20907966.167
        57.000          50.000
  21789652.882    10594712.19043   8262457.11642  21789654.538    21789649.510
        54.000          47.000
  23598918.105    11695248.16143   9116912.92842  23598919.329    23598917.697
        47.000          41.000
  23219527.737    10987005.23643   8571654.64842  23219531.298    23219523.068
        47.000          39.000
  20299878.269    13548516.71644  10558637.63442  20299880.574    20299875.884
        57.000          51.000
  24096918.449    16703711.88643  12999825.91942  24096921.140    24096922.967
        45.000          38.000
  22779393.795    13192569.53043  10284996.79042  22779395.402    22779390.573
        51.000          43.000
  21790977.002    11541877.45043   9000590.55242  21790978.959    21790975.637
        52.000          45.000
  23919533.377    16712574.54343  13008725.88242  23919534.281    23919533.020
        47.000          40.000
  23893253.157    -2681641.13343  -2078635.54842  23893255.464    23893255.675
        44.000          37.000
  20891020.333     -637055.79543   -495467.77142  20891021.145    20891017.075
        56.000          49.000
 03  6 27 15 43 20.0000000  0 11G21G18G16G15G 6G30G29G26G10G23G17
  20904960.328    12415409.13944   9676619.56242  20904961.777    20904955.397
        57.000          49.000
  21780068.129    10544336.25543   8223203.13942  21780068.773    21780064.209
        55.000          47.000
  23593838.004    11668556.94643   9096114.56042  23593840.446    23593835.067
        48.000          41.000
  23210692.306    10940586.15343   8535483.95742  23210692.349    23210690.390
        42.000          38.000
  20301765.473    13558432.16144  10566363.92042  20301767.594    20301762.546
        57.000          51.000
  24109922.564    16772052.82943  13053078.34542  24109924.635    24109927.472
        43.000          37.000
  22780068.925    13196129.72543  10287770.95442  22780070.435    22780067.507
        50.000          43.000
  21785313.382    11512123.39443   8977405.60242  21785316.699    21785313.099
        51.000          45.000
  23932732.357    16781934.53743  13062772.60242  23932733.384    23932729.360
        47.000          40.000
  23881264.406    -2744633.51843  -2127720.42542  23881264.432    23881266.076
        43.000          37.000
  20891781.579     -633061.35444   -492355.25042  20891782.031    20891776.780
        57.000          50.000
 03  6 27 15 43 40.0000000  0 11G21G18G16G15G 6G30G29G26G10G23G17
  20901966.184    12399673.43644   9664357.95542  20901967.700    20901960.681
        57.000          49.000
  21770512.202    10494125.00343   8184077.51742  21770514.099    21770509.309
        55.000          47.000
  23588804.481    11642098.58243   9075497.66542  23588806.518    23588801.295
        48.000          42.000
  23201868.260    10894210.65943   8499347.18642  23201869.376    23201865.790
        43.000          38.000
  20303692.961    13568565.70544  10574260.15042  20303695.446    20303691.213
        57.000          51.000
  24122928.577    16840386.54543  13106325.13342  24122930.413    24122929.693
        41.000          36.000
  22780793.667    13199934.86343  10290736.00842  22780795.677    22780791.701
        50.000          44.000
  21779699.665    11482618.83043   8954415.04842  21779702.495    21779698.960
        51.000          45.000
  23945938.550    16851334.02043  13116850.06842  23945940.319    23945935.121
        47.000          39.000
  23869297.928    -2807523.16443  -2176725.30442  23869299.769    23869302.303
        44.000          38.000
  20892555.765     -628989.05243   -489182.05142  20892556.716    20892551.951
        56.000          49.000
 03  6 27 15 44  0.0000000  0 11G21G18G16G15G 6G30G29G26G10G23G17
  20898986.392    12384015.77844   9652157.16742  20898987.566    20898981.171
        57.000          49.000
  21760987.356    10444071.89443   8145075.11242  21760989.350    21760984.383
        55.000          47.000
  23583812.072    11615866.60343   9055057.17342  23583815.106    23583810.067
        48.000          41.000
  23193048.097    10847871.56743   8463238.81242  23193049.136    23193049.065
        42.000          38.000
  20305662.725    13578910.62244  10582321.09042  20305664.288    20305659.737
        58.000          51.000
  24135926.219    16908705.46943  13159560.37442  24135931.064    24135931.837
        40.000          35.000
  22781563.323    13203978.45443  10293886.84442  22781565.912    22781561.714
        50.000          43.000
  21774132.896    11453357.65743   8931614.16842  21774134.099    21774131.125
        52.000          45.000
  23959150.504    16920765.67243  13170952.62542  23959152.280    23959148.552
        46.000          40.000
  23857352.149    -2870316.37843  -2225655.03442  23857353.888    23857351.660
        47.000          39.000
  20893343.678     -624845.58343   -485953.37842  20893344.966    20893340.713
        56.000          49.000
 03  6 27 15 44 20.0000000  0 11G21G18G16G15G 6G30G29G26G10G23G17
  20896021.452    12368437.13444   9640017.95242  20896023.252    20896016.973
        57.000          50.000
  21751493.217    10394178.52143   8106197.17742  21751495.055    21751490.124
        55.000          47.000
  23578863.142    11589862.47143   9034794.22642  23578863.701    23578861.199
        47.000          41.000
  23184240.917    10801570.20443   8427159.79542  23184240.877    23184239.223
        45.000          38.000
  20307671.750    13589468.25844  10590547.79142  20307673.787    20307668.368
        58.000          51.000
  24148927.611    16977009.72553  13212784.22952  24148926.415    24148930.423
        40.000          34.000
  22782377.266    13208261.41643  10297224.22942  22782380.583    22782375.522
        50.000          43.000
  21768610.544    11424341.79743   8909004.43242  21768612.528    21768608.827
        51.000          45.000
  23972368.010    16990229.87443  13225080.55342  23972371.606    23972365.982
        46.000          39.000
  23845421.714    -2933011.59843  -2274508.41942  23845422.694    23845422.619
        48.000          40.000
  20894147.091     -620630.07444   -482668.59242  20894148.043    20894143.224
        57.000          50.000
 03  6 27 15 44 40.0000000  0 11G21G18G16G15G 6G30G29G26G10G23G17
  20893072.754    12352937.44044   9627940.26142  20893074.004    20893067.815
        57.000          50.000
  21742029.341    10344445.32243   8067444.06342  21742030.806    21742025.863
        55.000          47.000
  23573957.456    11564086.51043   9014709.09142  23573959.632    23573956.658
        47.000          41.000
  23175436.031    10755306.47243   8391110.10642  23175436.380    23175435.848
        45.000          39.000
  20309720.985    13600238.64844  10598940.26842  20309723.129    20309718.367
        57.000          51.000
  24161920.841    17045298.56843  13265996.05142  24161923.970    24161926.653
        39.000          35.000
  22783238.165    13212783.89843  10300748.24542  22783241.798    22783236.730
        50.000          43.000
  21763136.111    11395571.86843   8886586.33942  21763138.116    21763134.204
        52.000          45.000
  23985594.979    17059725.96043  13279233.32442  23985594.887    23985590.167
        46.000          39.000
  23833508.170    -2995608.36343  -2323285.09542  23833512.259    23833510.580
        48.000          40.000
  20894961.997     -616342.54943   -479327.69242  20894964.005    20894958.509
        56.000          50.000
 03  6 27 15 45  0.0000000  0 11G21G18G16G15G 6G30G29G26G10G23G17
  20890138.534    12337519.73944   9615926.45842  20890140.314    20890133.732
        57.000          50.000
  21732596.322    10294875.30543   8028818.10542  21732598.327    21732593.288
        55.000          47.000
  23569098.452    11538541.68143   8994804.01042  23569100.208    23569095.546
        47.000          41.000
  23166640.189    10709083.15543   8355091.95742  23166642.878    23166639.507
        45.000          40.000
  20311812.069    13611224.76544  10607500.83942  20311814.057    20311809.182
        58.000          51.000
  24174913.384    17113574.03543  13319197.41042  24174916.757    24174917.035
        41.000          35.000
  22784145.691    13217548.82743  10304461.17842  22784147.559    22784143.197
        50.000          43.000
  21757708.801    11367051.33343   8864362.58342  21757710.446    21757706.242
        52.000          45.000
  23998825.869    17129255.85643  13333412.40942  23998827.827    23998823.287
        48.000          40.000
  23821616.054    -3058103.43843  -2371982.51342  23821618.451    23821618.404
        47.000          40.000
  20895791.937     -611980.27443   -475928.53442  20895792.836    20895789.169
        56.000          49.000
 03  6 27 15 45 20.0000000  0 11G21G18G16G15G 6G30G29G26G10G23G17
  20887219.921    12322179.70044   9603973.16542  20887221.166    20887214.627
        57.000          50.000
  21723193.574    10245464.82943   7990316.44642  21723195.500    21723190.766
        55.000          47.000
  23564279.961    11513224.12543   8975076.03642  23564281.419    23564276.949
        48.000          41.000
  23157853.769    10662896.23643   8319102.17242  23157854.638    23157850.348
        48.000          40.000
  20313942.520    13622422.72544  10616226.48942  20313944.445    20313939.628
        57.000          51.000
  24187903.353    17181831.14043  13372384.50242  24187906.039    24187905.190
        42.000          36.000
  22785096.733    13222552.25843  10308359.98042  22785099.734    22785095.771
        49.000          43.000
  21752327.900    11338776.86443   8842330.54642  21752330.279    21752325.902
        52.000          45.000
  24012063.443    17198814.75643  13387614.10442  24012063.328    24012056.082
        48.000          39.000
  23809741.573    -3120500.38943  -2420603.48242  23809744.312    23809745.747
        46.000          39.000
  20896636.089     -607547.14643   -472474.17742  20896636.843    20896632.432
        56.000          49.000
 03  6 27 15 45 40.0000000  0 11G21G18G16G15G 6G30G29G26G10G23G17
  20884316.271    12306922.11244   9592084.11442  20884317.801    20884311.305
        57.000          50.000
  21713821.891    10196218.82343   7951942.94842  21713823.495    21713819.023
        55.000          47.000
  23559506.352    11488138.87543   8955529.07742  23559508.824    23559503.329
        48.000          42.000
  23149069.524    10616750.29043   8283144.27942  23149072.189    23149068.724
        47.000          41.000
  20316115.199    13633837.33344  10625120.95142  20316116.836    20316111.544
        57.000          51.000
  24200887.043    17250073.74443  13425560.33342  24200892.058    24200891.469
        42.000          36.000
  22786096.768    13227798.82943  10312448.18942  22786096.747    22786093.477
        50.000          43.000
  21746994.667    11310753.78343   8820494.40642  21746997.030    21746993.375
        52.000          45.000
  24025305.244    17268406.86743  13441841.68542  24025307.771    24025300.440
        47.000          39.000
  23797885.060    -3182794.17543  -2469144.05742  23797888.231    23797889.341
        44.000          39.000
  20897493.601     -603038.95143   -468961.32042  20897494.851    20897490.405
        56.000          49.000
 03  6 27 15 46  0.0000000  0 11G21G18G16G15G 6G30G29G26G10G23G17
  20881428.161    12291745.98144   9580258.54342  20881429.742    20881423.466
        57.000          50.000
  21704482.564    10147136.76643   7913697.19042  21704484.208    21704479.835
        55.000          48.000
  23554776.745    11463285.26443   8936162.62242  23554779.203    23554774.910
        48.000          41.000
  23140296.380    10570644.43943   8247217.69542  23140297.358    23140293.766
        47.000          41.000
  20318327.871    13645467.83744  10634183.65542  20318329.846    20318325.055
        57.000          51.000
  24213870.311    17318300.33843  13478723.65942  24213873.361    24213876.670
        41.000          36.000
  22787139.654    13233287.70043  10316725.24442  22787142.721    22787139.435
        50.000          43.000
  21741710.162    11282981.94143   8798854.03342  21741712.544    21741708.959
        52.000          45.000
  24038554.425    17338030.55043  13496093.87642  24038557.950    24038551.316
        48.000          39.000
  23786052.895    -3244985.07343  -2517604.42242  23786054.108    23786056.261
        46.000          39.000
  20898366.299     -598456.16943   -465390.34342  20898366.896    20898362.466
        56.000          49.000
 03  6 27 15 46 20.0000000  0 11G21G18G16G15G 6G30G29G26G10G23G17
  20878555.190    12276648.55644   9568494.30942  20878556.977    20878550.326
        57.000          50.000
  21695173.210    10098216.26743   7875577.32142  21695175.146    21695170.270
        55.000          47.000
  23550091.264    11438660.99143   8916974.85742  23550093.243    23550087.852
        47.000          41.000
  23131528.810    10524575.92243   8211320.16542  23131530.966    23131527.641
        47.000          41.000
  20320581.636    13657311.57444  10643412.50942  20320583.456    20320578.963
        57.000          51.000
  24226854.727    17386507.20043  13531871.60542  24226856.816    24226856.503
        43.000          36.000
  22788230.638    13239015.92343  10321188.80542  22788232.884    22788229.560
        50.000          43.000
  21736472.185    11255459.25443   8777407.81042  21736474.923    21736471.763
        52.000          45.000
  24051808.846    17407682.29443  13550367.92542  24051813.255    24051806.465
        49.000          40.000
  23774238.129    -3307075.48743  -2565986.50642  23774239.851    23774240.588
        48.000          41.000
  20899252.092     -593801.75943   -461763.56142  20899253.054    20899247.989
        56.000          49.000
 03  6 27 15 46 40.0000000  0 11G21G18G16G15G 6G30G29G26G10G23G17
  20875697.769    12261631.12844   9556792.40542  20875699.399    20875692.319
        57.000          49.000
  21685895.513    10049458.99343   7837584.65042  21685897.014    21685892.086
        55.000          47.000
  23545449.820    11414267.60043   8897967.01042  23545452.786    23545445.930
        48.000          41.000
  23122769.016    10478546.26843   8175452.90642  23122771.711    23122767.134
        48.000          41.000
  20322877.181    13669370.02244  10652808.66242  20322879.076    20322873.750
        58.000          51.000
  24239827.384    17454694.91443  13585004.64042  24239829.926    24239830.746
        40.000          36.000
  22789365.187    13244985.28743  10325840.23942  22789367.371    22789363.346
        49.000          43.000
  21731283.201    11228187.78443   8756157.34342  21731284.961    21731282.093
        52.000          45.000
  24065067.604    17477362.87943  13604664.44342  24065069.813    24065067.300
        48.000          40.000
  23762442.625    -3369063.59243  -2614288.86542  23762443.535    23762444.065
        49.000          41.000
  20900150.787     -589074.36343   -458079.90442  20900152.128    20900147.723
        55.000          49.000
 03  6 27 15 47  0.0000000  0 10G21G18G16G15G 6G29G26G10G23G17
  20872858.192    12246708.28244   9545164.19842  20872859.852    20872852.569
        57.000          49.000
  21676649.925    10000879.68443   7799730.67842  21676651.869    21676648.478
        54.000          47.000
  23540854.785    11390119.76943   8879150.50342  23540856.265    23540850.183
        49.000          42.000
  23114020.545    10432569.75743   8139627.05742  23114023.626    23114018.174
        48.000          40.000
  20325214.516    13681657.70644  10662383.44342  20325217.002    20325212.010
        57.000          51.000
  22790551.980    13251210.02143  10330690.68242  22790554.836    22790548.588
        50.000          43.000
  21726144.513    11201182.63643   8735114.39442  21726146.273    21726142.498
        52.000          45.000
  24078335.883    17547086.05643  13658994.16342  24078337.392    24078336.156
        47.000          40.000
  23750668.660    -3430934.50243  -2662499.90342  23750669.928    23750670.878
        48.000          41.000
  20901067.462     -584259.86243   -454328.36442  20901068.423    20901063.811
        56.000          49.000
 03  6 27 15 47 20.0000000  0 11G21G18G16G15G 6G30G29G26G10G23G17
  20870029.614    12231847.17744   9533584.09542  20870031.782    20870024.986
        57.000          50.000
  21667433.721     9952445.87143   7761990.06742  21667435.339    21667430.822
        55.000          47.000
  23536301.142    11366184.77643   8860499.83742  23536300.601    23536296.582
        49.000          42.000
  23105275.579    10386613.49243   8103816.99142  23105275.591    23105273.921
        48.000          40.000
  20327590.320    13694141.98544  10672111.41942  20327592.622    20327587.497
        58.000          51.000
  24265770.759     1836820.07053   1415231.56752  24265776.456    24265773.553
        38.000          34.000
  22791777.244    13257657.46243  10335714.66342  22791779.853    22791775.213
        50.000          43.000
  21721050.273    11174411.68843   8714253.93642  21721052.115    21721048.722
        52.000          45.000
  24091605.609    17616818.31343  13713330.95042  24091607.290    24091604.349
        48.000          40.000
  23738910.313    -3492720.52743  -2710644.81142  23738912.894    23738912.832
        47.000          41.000
  20901994.503     -579390.89543   -450534.39042  20901994.781    20901990.677
        56.000          49.000
 03  6 27 15 47 40.0000000  0 11G21G18G16G15G 6G30G29G26G10G23G17
  20867217.006    12217066.58544   9522066.73442  20867218.870    20867212.483
        57.000          50.000
  21658248.729     9904176.75343   7724377.78942  21658250.080    21658245.631
        55.000          48.000
  23531790.229    11342481.69143   8842029.87242  23531792.593    23531787.478
        48.000          41.000
  23096537.517    10340696.15343   8068037.26142  23096538.620    23096534.580
        48.000          41.000
  20330007.279    13706841.65544  10682007.22642  20330009.247    20330004.476
        57.000          51.000
  24278734.508     1904941.94243   1468313.29442  24278735.864    24278738.675
        37.000          34.000
  22793049.661    13264346.27643  10340926.74342  22793051.722    22793048.221
        49.000          43.000
  21716002.746    11147894.32543   8693591.06742  21716005.657    21716002.616
        51.000          45.000
  24104879.960    17686577.64043  13767688.81842  24104882.003    24104879.966
        47.000          40.000
  23727173.982    -3554402.60943  -2758708.74042  23727175.569    23727175.870
        47.000          41.000
  20902934.748     -574448.52843   -446683.22842  20902935.335    20902931.393
        56.000          49.000
 03  6 27 15 48  0.0000000  0 10G21G18G16G15G 6G29G26G10G23G17
  20864420.416    12202368.16044   9510613.40742  20864421.668    20864415.397
        57.000          50.000
  21649094.763     9856074.49243   7686895.52942  21649096.729    21649092.452
        55.000          48.000
  23527323.051    11319012.46743   8823742.17842  23527323.406    23527319.335
        48.000          41.000
  23087807.880    10294819.47243   8032289.18242  23087809.514    23087806.040
        49.000          41.000
  20332465.464    13719758.48244  10692072.24942  20332467.220    20332462.312
        58.000          51.000
  22794370.119    13271278.27943  10346328.29942  22794373.490    22794368.855
        50.000          43.000
  21711007.071    11121632.89443   8673127.64842  21711009.142    21711004.973
        52.000          45.000
  24118160.762    17756364.97343  13822068.52942  24118163.465    24118157.108
        47.000          40.000
  23715456.530    -3615978.61543  -2806689.99442  23715458.406    23715455.531
        47.000          41.000
  20903889.639     -569431.56843   -442773.93542  20903890.434    20903886.005
        56.000          49.000
 03  6 27 15 48 20.0000000  0 11G21G18G16G15G 6G30G29G26G10G23G17
  20861638.264    12187748.92844   9499221.78442  20861639.864    20861633.708
        57.000          50.000
  21639972.620     9808136.22643   7649541.04942  21639974.699    21639969.920
        55.000          48.000
  23522901.959    11295774.39743   8805634.56342  23522902.771    23522896.411
        48.000          41.000
  23079086.451    10248980.46043   7996570.46942  23079088.413    23079082.756
        50.000          41.000
  20334964.071    13732889.56244  10702304.22742  20334966.442    20334961.262
        58.000          51.000
  24304650.719     2041120.79053   1574426.06352  24304655.744    24304652.281
        38.000          33.000
  22795734.429    13278450.28543  10351916.86342  22795736.763    22795733.356
        49.000          43.000
  21706057.474    11095625.03643   8652861.80242  21706059.975    21706056.551
        52.000          45.000
  24131445.188    17826176.79543  13876467.29242  24131445.397    24131443.380
        46.000          40.000
  23703758.660    -3677451.02743  -2854590.52242  23703759.362    23703758.448
        47.000          40.000
  20904857.313     -564342.96643   -438808.81942  20904858.776    20904854.731
        56.000          49.000
 03  6 27 15 48 40.0000000  0 10G21G18G16G15G 6G29G26G10G23G17
  20858874.660    12173225.55044   9487904.84542  20858876.294    20858870.146
        57.000          50.000
  21630885.098     9760379.03943   7612327.65542  21630887.229    21630882.181
        56.000          48.000
  23518526.141    11272784.37043   8787720.24142  23518528.289    23518522.876
        46.000          41.000
  23070372.756    10203195.79643   7960894.11242  23070376.488    23070373.877
        49.000          41.000
  20337506.966    13746251.73944  10712716.27342  20337508.745    20337503.962
        57.000          51.000
  22797146.900    13285879.31943  10357705.70142  22797149.689    22797146.198
        49.000          43.000
  21701158.872    11069888.11943   8632807.07942  21701161.342    21701158.326
        51.000          45.000
  24144737.273    17896029.03743  13930897.56242  24144739.155    24144736.235
        46.000          39.000
  23692081.593    -3738802.64543  -2902396.92142  23692084.829    23692085.558
        46.000          40.000
  20905842.719     -559165.58843   -434774.52242  20905844.070    20905839.681
        56.000          49.000
 03  6 27 15 49  0.0000000  0 10G21G18G16G15G 6G29G26G10G23G17
  20856123.442    12158770.04044   9476640.79342  20856125.064    20856118.705
        57.000          50.000
  21621826.943     9712775.04143   7575233.63742  21621829.225    21621822.813
        56.000          48.000
  23514191.806    11250014.43343   8769977.43042  23514193.933    23514190.060
        46.000          40.000
  23061665.728    10157437.32143   7925238.16842  23061667.145    23061662.557
        49.000          41.000
  20340087.910    13759816.98644  10723286.55742  20340090.194    20340085.253
        57.000          51.000
  22798605.160    13293537.16543  10363672.84442  22798607.880    22798604.103
        49.000          43.000
  21696309.473    11044394.74043   8612942.13242  21696310.396    21696306.647
        52.000          45.000
  24158031.669    17965893.00043  13985336.97942  24158035.853    24158030.688
        45.000          39.000
  23680423.536    -3800061.11643  -2950130.74442  23680426.348    23680426.857
        46.000          40.000
  20906840.030     -553927.69943   -430693.07842  20906841.172    20906836.400
        56.000          49.000
 03  6 27 15 49 20.0000000  0 10G21G18G16G15G 6G29G26G10G23G17
  20853388.338    12144394.02744   9465438.68542  20853389.641    20853383.225
        57.000          50.000
  21612797.722     9665336.27243   7538268.37642  21612800.521    21612795.986
        55.000          47.000
  23509905.697    11227476.46743   8752415.37142  23509905.044    23509902.239
        46.000          41.000
  23052963.296    10111716.69543   7889611.70942  23052965.759    23052962.963
        48.000          41.000
  20342711.218    13773597.08844  10734024.26142  20342712.811    20342707.595
        58.000          51.000
  22800109.450    13301435.37043  10369827.28242  22800110.004    22800107.562
        50.000          44.000
  21691506.375    11019157.00143   8593276.37842  21691508.541    21691503.784
        52.000          45.000
  24171331.765    18035779.59443  14039794.05042  24171331.510    24171328.667
        47.000          39.000
  23668787.211    -3861214.43243  -2997782.62942  23668787.538    23668789.030
        46.000          41.000
  20907849.796     -548617.70443   -426555.44742  20907851.184    20907846.722
        56.000          49.000
 03  6 27 15 49 40.0000000  0 10G21G18G16G15G 6G29G26G10G23G17
  20850668.750    12130102.31444   9454302.26642  20850670.063    20850663.108
        57.000          50.000
  21603803.312     9618067.88043   7501435.87742  21603805.128    21603801.171
        55.000          48.000
  23505660.185    11205175.61743   8735038.08142  23505662.050    23505658.395
        47.000          41.000
  23044272.172    10066038.86243   7854018.60142  23044273.448    23044273.353
        49.000          42.000
  20345375.065    13787597.03444  10744933.27342  20345377.305    20345371.536
        58.000          51.000
  22801657.848    13309578.78043  10376172.79342  22801659.241    22801656.588
        50.000          43.000
  21686753.172    10994180.70843   8573814.35942  21686755.081    21686751.469
        52.000          45.000
  24184635.303    18105693.07943  14094272.04542  24184636.300    24184631.566
        46.000          39.000
  23657172.763    -3922257.18443  -3045348.37942  23657174.707    23657172.375
        47.000          41.000
  20908875.323     -543230.93043   -422357.98642  20908876.385    20908871.753
        56.000          49.000
 03  6 27 15 50  0.0000000  0 10G21G18G16G15G 6G29G26G10G23G17
  20847963.132    12115885.53944   9443224.25442  20847964.728    20847957.706
        57.000          49.000
  21594839.730     9570960.80443   7464729.07542  21594841.086    21594837.183
        55.000          48.000
  23501459.855    11183102.80143   8717838.50242  23501460.573    23501458.044
        46.000          42.000
  23035586.849    10020394.40643   7818451.49442  23035588.562    23035586.100
        49.000          42.000
  20348079.439    13801807.48444  10756006.32042  20348081.390    20348075.862
        58.000          51.000
  22803253.309    13317958.19443  10382702.19542  22803255.151    22803250.492
        50.000          43.000
  21682048.499    10969456.93543   8554549.09642  21682050.367    21682047.731
        52.000          45.000
  24197942.850    18175623.45243  14148763.22342  24197942.855    24197938.854
        45.000          39.000
  23645575.403    -3983198.38643  -3092834.97942  23645576.768    23645576.914
        46.000          40.000
  20909913.507     -537776.83743   -418108.06942  20909914.619    20909909.804
        56.000          49.000
 03  6 27 15 50 20.0000000  0 10G21G18G16G15G 6G29G26G10G23G17
  20845274.386    12101752.92144   9432211.81142  20845275.980    20845268.568
        57.000          50.000
  21585907.386     9524024.68643   7428155.49742  21585909.210    21585905.701
        55.000          48.000
  23497306.192    11161267.53943   8700824.01342  23497307.329    23497303.640
        48.000          42.000
  23026908.815     9974792.61843   7782917.62042  23026910.066    23026906.797
        49.000          42.000
  20350825.302    13816237.86944  10767250.74242  20350827.342    20350821.741
        58.000          51.000
  22804893.817    13326582.71143  10389422.58642  22804895.603    22804892.773
        50.000          43.000
  21677393.001    10944995.67143   8535488.39142  21677395.476    21677392.186
        51.000          45.000
  24211253.652    18245579.26243  14203274.25142  24211255.530    24211252.587
        45.000          39.000
  23634000.908    -4044028.34643  -3140234.89242  23634002.247    23634001.260
        47.000          40.000
  20910965.701     -532246.22643   -413798.53242  20910966.769    20910962.294
        56.000          49.000
 03  6 27 15 50 40.0000000  0 10G21G18G16G15G 6G29G26G10G23G17
  20842599.085    12087699.38944   9421260.99842  20842601.242    20842594.107
        57.000          50.000
  21577007.695     9477254.61943   7391711.30342  21577009.531    21577004.726
        55.000          48.000
  23493195.318    11139664.80943   8683990.71642  23493195.521    23493191.797
        48.000          42.000
  23018237.555     9929228.44043   7747413.07142  23018239.816    23018236.086
        49.000          42.000
  20353611.218    13830883.14144  10778662.60642  20353613.624    20353608.753
        57.000          51.000
  22806580.753    13335447.21443  10396329.98842  22806583.864    22806577.757
        50.000          43.000
  21672787.336    10920792.31343   8516628.65442  21672789.859    21672786.112
        52.000          45.000
  24224570.500    18315554.79343  14257800.59142  24224572.172    24224567.679
        46.000          39.000
  23622444.785    -4104751.73743  -3187551.77342  23622447.072    23622447.239
        46.000          40.000
  20912031.272     -526644.28643   -409433.41042  20912032.533    20912028.364
        56.000          49.000
 03  6 27 15 51  0.0000000  0 10G21G18G16G15G 6G29G26G10G23G17
  20839940.308    12073725.42944   9410372.18142  20839941.845    20839935.044
        57.000          49.000
  21568139.202     9430651.38643   7355397.10242  21568141.575    21568136.192
        55.000          48.000
  23489128.129    11118295.32643   8667339.15842  23489129.816    23489124.225
        49.000          41.000
  23009574.273     9883702.23443   7711938.14742  23009576.109    23009573.375
        49.000          42.000
  20356439.714    13845743.84044  10790242.33542  20356441.540    20356436.518
        57.000          51.000
  22808314.166    13344552.19143  10403424.75642  22808315.848    22808311.280
        50.000          43.000
  21668231.654    10896848.12143   8497970.84642  21668233.126    21668230.216
        52.000          45.000
  24237889.053    18385549.76643  14312342.12542  24237891.704    24237889.065
        45.000          40.000
  23610909.234    -4165367.69543  -3234784.93842  23610910.679    23610911.343
        45.000          40.000
  20913111.605     -520969.92243   -405011.85542  20913112.350    20913108.141
        56.000          49.000
 03  6 27 15 51 20.0000000  0 10G21G18G16G15G 6G29G26G10G23G17
  20837296.756    12059833.83844   9399547.54542  20837298.352    20837292.331
        57.000          50.000
  21559303.595     9384218.14443   7319215.37042  21559304.936    21559300.338
        55.000          48.000
  23485106.763    11097161.88043   8650871.51542  23485108.951    23485103.909
        49.000          42.000
  23000920.204     9838216.66243   7676494.85742  23000921.176    23000917.575
        50.000          42.000
  20359308.907    13860822.75344  10801992.10542  20359311.022    20359306.118
        57.000          51.000
  22810092.108    13353900.32543  10410709.01742  22810094.320    22810090.403
        50.000          43.000
  21663723.550    10873166.34243   8479517.53842  21663726.405    21663723.504
        52.000          45.000
  24251214.196    18455566.29843  14366900.44842  24251215.914    24251213.670
        46.000          40.000
  23599395.246    -4225873.03743  -3281931.87642  23599397.519    23599397.998
        45.000          40.000
  20914205.549     -515220.88443   -400532.11742  20914206.461    20914202.048
        56.000          49.000
 03  6 27 15 51 40.0000000  0 10G21G18G16G15G 6G29G26G10G23G17
  20834668.673    12046021.59644   9388784.74442  20834669.939    20834664.120
        57.000          50.000
  21550499.403     9337952.08443   7283163.90942  21550501.367    21550496.859
        56.000          48.000
  23481129.953    11076261.73443   8634585.70242  23481131.662    23481126.107
        50.000          42.000
  22992271.576     9792768.77443   7641080.93342  22992273.422    22992268.748
        51.000          43.000
  20362219.356    13876116.94744  10813909.62342  20362221.461    20362216.795
        57.000          51.000
  22811917.312    13363488.67343  10418180.43642  22811919.241    22811914.900
        50.000          43.000
  21659269.105    10849744.58043   8461266.82642  21659270.475    21659265.974
        52.000          45.000
  24264540.171    18525600.70543  14421472.71042  24264543.490    24264539.734
        45.000          39.000
  23587901.692    -4286270.34343  -3328994.66442  23587903.082    23587904.406
        45.000          40.000
  20915312.424     -509400.44243   -395996.72942  20915313.783    20915310.024
        56.000          49.000
 03  6 27 15 52  0.0000000  0 10G21G18G16G15G 6G29G26G10G23G17
  20832055.662    12032289.34744   9378084.27842  20832056.893    20832051.119
        57.000          50.000
  21541727.206     9291854.16143   7247243.45742  21541729.265    21541724.292
        55.000          48.000
  23477197.140    11055595.93343   8618482.46642  23477199.382    23477194.274
        49.000          42.000
  22983630.037     9747359.18043   7605696.85742  22983632.371    22983628.871
        52.000          44.000
  20365171.034    13891627.12944  10825995.44742  20365172.907    20365168.561
        57.000          51.000
  22813787.248    13373317.73543  10425839.43842  22813788.293    22813784.527
        50.000          43.000
  21654859.243    10826584.04443   8443219.67542  21654863.156    21654858.996
        52.000          45.000
  24277871.682    18595653.17643  14476059.02142  24277873.460    24277868.825
        45.000          39.000
  23576430.813    -4346558.48843  -3375972.40142  23576430.993    23576432.113
        47.000          41.000
  20916434.871     -503507.80443   -391405.09842  20916435.697    20916430.886
        56.000          49.000
 03  6 27 15 52 20.0000000  0 10G21G18G16G15G 6G29G26G10G23G17
  20829457.179    12018637.26643   9367446.27542  20829458.885    20829452.969
        56.000          50.000
  21532987.730     9245924.37643   7211454.01942  21532989.148    21532984.303
        56.000          48.000
  23473309.629    11035164.05443   8602561.50242  23473311.077    23473306.538
        49.000          42.000
  22974995.866     9701987.50943   7570342.31042  22974998.333    22974993.066
        51.000          43.000
  20368163.115    13907353.01444  10838249.34742  20368165.580    20368161.186
        57.000          51.000
  22815704.815    13383387.08143  10433685.67742  22815706.456    22815701.099
        51.000          43.000
  21650502.654    10803685.03243   8425376.30442  21650505.485    21650501.309
        52.000          45.000
  24291204.567    18665722.42643  14530658.42542  24291206.036    24291202.246
        45.000          38.000
  23564980.502    -4406737.41943  -3422865.02542  23564981.853    23564980.362
        48.000          41.000
  20917570.101     -497542.77643   -386757.05742  20917571.060    20917566.213
        56.000          49.000
 03  6 27 15 52 40.0000000  0 10G21G18G16G15G 6G29G26G10G23G17
  20826875.536    12005067.25244   9356872.21542  20826876.787    20826870.740
        57.000          50.000
  21524278.879     9200165.39143   7175797.68842  21524281.150    21524276.434
        55.000          48.000
  23469467.125    11014968.46943   8586824.65442  23469468.645    23469462.058
        49.000          41.000
  22966370.165     9656656.01343   7535019.06742  22966371.749    22966368.034
        51.000          43.000
  20371197.406    13923296.92244  10850673.14142  20371199.346    20371195.158
        57.000          51.000
  22817665.153    13393698.96843  10441720.89642  22817669.026    22817663.098
        50.000          43.000
  21646195.708    10781050.36643   8407738.92142  21646197.863    21646194.209
        52.000          45.000
  24304541.640    18735810.08243  14585272.14942  24304543.410    24304538.771
        45.000          39.000
  23553548.573    -4466804.44843  -3469670.45842  23553550.804    23553550.161
        48.000          41.000
  20918718.643     -491503.33043   -382051.01242  20918719.553    20918715.738
        56.000          49.000
 03  6 27 15 53  0.0000000  0 10G21G18G16G15G 6G29G26G10G23G17
  20824308.105    11991577.05544   9346360.35242  20824309.693    20824303.120
        57.000          50.000
  21515604.145     9154575.39843   7140273.03642  21515605.859    21515600.173
        56.000          48.000
  23465666.721    10995007.76743   8571270.83442  23465668.610    23465663.662
        48.000          41.000
  22957751.760     9611362.84843   7499725.69442  22957753.404    22957749.449
        51.000          43.000
  20374272.974    13939457.07344  10863265.42842  20374274.884    20374269.930
        57.000          51.000
  22819675.073    13404251.61143  10449943.72642  22819677.193    22819671.504
        50.000          43.000
  21641938.264    10758678.79143   8390306.52942  21641940.807    21641937.569
        52.000          45.000
  24317883.408    18805913.69643  14639898.32842  24317885.566    24317880.970
        45.000          39.000
  23542139.394    -4526760.97743  -3516389.80442  23542142.026    23542139.442
        47.000          40.000
  20919881.881     -485391.72543   -377288.75042  20919882.946    20919878.729
        56.000          49.000
 03  6 27 15 53 20.0000000  0 10G21G18G16G15G 6G29G26G10G23G17
  20821756.989    11978169.32544   9335912.75842  20821758.447    20821751.846
        57.000          50.000
  21506961.193     9109156.99743   7104882.08842  21506963.125    21506957.941
        56.000          48.000
  23461915.179    10975284.26543   8555901.83842  23461915.759    23461912.625
        48.000          41.000
  22949139.018     9566110.31643   7464463.98842  22949141.184    22949138.273
        50.000          43.000
  20377389.562    13955835.80744  10876028.04542  20377391.355    20377386.718
        57.000          51.000
  22821727.926    13415047.13743  10458355.81142  22821729.328    22821725.320
        50.000          43.000
  21637731.323    10736573.30543   8373081.48642  21637734.014    21637730.210
        52.000          45.000
  24331228.000    18876034.95743  14694538.26842  24331229.085    24331224.984
        44.000          39.000
  23530749.620    -4586604.35043  -3563020.95542  23530752.176    23530752.036
        45.000          39.000
  20921059.357     -479205.41943   -372468.28342  20921060.323    20921055.476
        56.000          49.000
 03  6 27 15 53 40.0000000  0 10G21G18G16G15G 6G29G26G10G23G17
  20819220.461    11964840.28944   9325526.49342  20819221.924    20819215.261
        57.000          50.000
  21498351.335     9063906.76643   7069622.19642  21498352.562    21498347.930
        56.000          48.000
  23458202.778    10955794.28043   8540714.84442  23458206.884    23458200.531
        47.000          41.000
  22940533.329     9520894.58043   7429230.97642  22940535.910    22940532.976
        49.000          43.000
  20380547.408    13972429.29344  10888957.99842  20380549.493    20380545.040
        57.000          51.000
  22823828.486    13426081.73343  10466954.20042  22823830.451    22823823.904
        50.000          42.000
  21633575.762    10714730.52043   8356061.15342  21633577.654    21633573.678
        52.000          45.000
  24344573.130    18946169.30143  14749188.41442  24344573.956    24344569.124
        45.000          39.000
  23519382.243    -4646338.00043  -3609566.57242  23519381.560    23519385.245
        46.000          39.000
  20922250.201     -472948.23643   -367592.58042  20922250.950    20922246.536
        56.000          50.000
 03  6 27 15 54  0.0000000  0 10G21G18G16G15G 6G29G26G10G23G17
  20816700.595    11951596.66544   9315206.77742  20816702.214    20816695.054
        57.000          50.000
  21489772.373     9018831.82443   7034498.87442  21489774.589    21489769.890
        56.000          48.000
  23454545.154    10936544.72243   8525715.18342  23454543.687    23454538.381
        49.000          41.000
  22931939.180     9475722.35643   7394031.82042  22931940.499    22931936.695
        50.000          43.000
  20383747.278    13989244.20844  10902060.50342  20383749.346    20383744.680
        57.000          51.000
  22825974.722    13437361.93243  10475743.93242  22825978.090    22825972.215
        50.000          43.000
  21629468.987    10693157.74143   8339251.22342  21629470.985    21629468.939
        51.000          45.000
  24357922.522    19016322.73743  14803853.44142  24357924.028    24357920.686
        44.000          39.000
  23508037.541    -4705954.73743  -3656021.13942  23508038.842    23508041.597
        46.000          40.000
  20923455.672     -466613.53643   -362656.47842  20923456.829    20923452.366
        56.000          50.000
 03  6 27 15 54 20.0000000  0 10G21G18G16G15G 6G29G26G10G23G17
  20814194.607    11938429.47044   9304946.61942  20814196.560    20814189.046
        57.000          49.000
  21481227.159     8973923.35543   6999505.28342  21481229.221    21481224.261
        56.000          48.000
  23450922.901    10917526.65043   8510895.90942  23450924.583    23450917.258
        48.000          41.000
  22923350.035     9430584.56643   7358859.52742  22923351.269    22923347.542
        50.000          42.000
  20386987.527    14006271.63144  10915328.59842  20386989.541    20386984.743
        58.000          51.000
  22828165.140    13448878.63343  10484717.99442  22828167.222    22828164.633
        50.000          43.000
  21625413.843    10671846.51943   8322645.08242  21625416.477    21625414.126
        51.000          45.000
  24371272.445    19086485.72843  14858525.91242  24371274.757    24371270.762
        43.000          38.000
  23496714.563    -4765463.20343  -3702391.33742  23496716.747    23496716.489
        47.000          41.000
  20924673.904     -460210.16943   -357666.86442  20924675.058    20924670.585
        56.000          49.000
 03  6 27 15 54 40.0000000  0 10G21G18G16G15G 6G29G26G10G23G17
  20811704.709    11925344.76444   9294750.73142  20811706.095    20811699.312
        57.000          49.000
  21472714.417     8929187.54443   6964646.23042  21472716.268    21472711.182
        56.000          48.000
  23447349.235    10898746.58643   8496262.05942  23447351.877    23447345.504
        47.000          41.000
  22914768.194     9385487.41143   7323718.88542  22914769.500    22914764.942
        50.000          42.000
  20390269.101    14023517.71944  10928767.07442  20390271.551    20390266.514
        57.000          51.000
  22830404.003    13460637.97243  10493881.09842  22830406.147    22830402.749
        50.000          43.000
  21621409.946    10650803.65743   8306248.06242  21621411.768    21621409.114
        51.000          45.000
  24384628.051    19156663.82343  14913210.13842  24384628.318    24384625.994
        44.000          38.000
  23485411.523    -4824856.84543  -3748672.05242  23485413.179    23485415.778
        48.000          41.000
  20925906.615     -453732.27743   -352619.18342  20925907.603    20925903.390
        56.000          49.000
 03  6 27 15 55  0.0000000  0 10G21G18G16G15G 6G29G26G10G23G17
  20809229.528    11912340.95943   9284617.88742  20809231.288    20809224.936
        56.000          49.000
  21464234.023     8884623.00543   6929920.64642  21464235.705    21464230.394
        56.000          48.000
  23443818.082    10880202.84143   8481812.33442  23443821.618    23443818.443
        46.000          41.000
  22906194.597     9340429.15443   7288608.57042  22906195.887    22906189.854
        51.000          42.000
  20393593.099    14040980.90444  10942374.71942  20393595.041    20393589.577
        58.000          51.000
  22832686.257    13472638.19443  10503231.90842  22832689.226    22832686.807
        49.000          43.000
  21617457.063    10630027.90243   8290059.17342  21617458.917    21617454.972
        52.000          45.000
  24397986.670    19226854.83743  14967904.40442  24397986.880    24397982.288
        44.000          39.000
  23474131.126    -4884136.87243  -3794864.24642  23474132.504    23474133.520
        47.000          40.000
  20927153.828     -447181.47043   -347514.68542  20927154.775    20927149.763
        56.000          49.000
 03  6 27 15 55 20.0000000  0 10G21G18G16G15G 6G29G26G10G23G17
  20806771.509    11899417.61844   9274547.73942  20806772.430    20806765.642
        57.000          50.000
  21455785.386     8840230.06843   6895328.76342  21455787.588    21455782.959
        56.000          48.000
  23440335.090    10861895.03443   8467546.49842  23440336.659    23440334.684
        46.000          42.000
  22897626.744     9295409.35343   7253528.18542  22897628.482    22897622.826
        52.000          43.000
  20396957.193    14058660.70044  10956151.15642  20396959.151    20396953.989
        58.000          51.000
  22835016.400    13484878.79343  10512770.02242  22835019.095    22835014.599
        49.000          43.000
  21613554.994    10609519.43743   8274078.57742  21613556.599    21613553.389
        52.000          45.000
  24411346.605    19297057.48943  15022607.74242  24411346.438    24411343.906
        45.000          39.000
  23462872.636    -4943303.47643  -3840968.06942  23462874.659    23462873.560
        47.000          40.000
  20928414.206     -440557.96843   -342353.54042  20928414.928    20928410.905
        56.000          49.000
 03  6 27 15 55 40.0000000  0 10G21G18G16G15G 6G29G26G10G23G17
  20804326.929    11886573.16844   9264539.06442  20804328.236    20804322.065
        57.000          50.000
  21447370.973     8796006.98243   6860869.23542  21447372.178    21447367.162
        56.000          48.000
  23436898.550    10843821.74543   8453463.38742  23436897.512    23436895.014
        48.000          42.000
  22889066.778     9250426.41343   7218476.54142  22889069.203    22889063.533
        52.000          43.000
  20400362.373    14076555.49544  10970095.12342  20400364.369    20400359.129
        58.000          51.000
  22837391.307    13497357.86043  10522493.96242  22837393.698    22837389.533
        49.000          43.000
  21609702.403    10589277.02643   8258305.28642  21609704.864    21609700.701
        52.000          45.000
  24424705.680    19367269.63843  15077318.51042  24424706.842    24424702.924
        45.000          39.000
  23451634.994    -5002357.78043  -3886984.36742  23451637.366    23451637.018
        48.000          40.000
  20929687.285     -433863.61243   -337137.18442  20929688.908    20929684.809
        56.000          49.000
 03  6 27 15 56  0.0000000  0 10G21G18G16G15G 6G29G26G10G23G17
  20801897.460    11873810.13044   9254593.82842  20801899.400    20801893.365
        57.000          50.000
  21438988.745     8751956.48243   6826544.18442  21438990.580    21438984.424
        56.000          48.000
  23433504.225    10825985.66443   8439565.13342  23433505.458    23433501.070
        48.000          42.000
  22880514.346     9205482.91643   7183455.63242  22880515.938    22880512.968
        52.000          44.000
  20403808.258    14094667.86544  10984208.62142  20403810.569    20403806.090
        57.000          51.000
  22839811.792    13510078.01543  10532405.74942  22839812.524    22839810.021
        49.000          43.000
  21605901.156    10569303.90043   8242741.82842  21605903.649    21605899.746
        52.000          45.000
  24438067.601    19437493.03943  15132038.04042  24438068.319    24438067.124
        43.000          39.000
  23440420.705    -5061296.84943  -3932910.86642  23440423.295    23440421.301
        49.000          40.000
  20930975.143     -427096.01043   -331863.75242  20930976.441    20930972.583
        56.000          49.000
 03  6 27 15 56 20.0000000  0 10G21G18G16G15G 6G29G26G10G23G17
  20799485.393    11861131.96444   9244714.73642  20799487.083    20799480.703
        57.000          50.000
  21430638.491     8708082.17343   6792356.42742  21430640.877    21430635.546
        55.000          48.000
  23430156.352    10808390.27343   8425854.42042  23430157.383    23430151.902
        49.000          41.000
  22871969.540     9160582.16543   7148468.05942  22871970.970    22871967.624
        52.000          44.000
  20407297.432    14113001.24144  10998494.34442  20407299.748    20407295.072
        57.000          51.000
  22842279.395    13523042.52143  10542507.96442  22842281.390    22842278.219
        50.000          43.000
  21602153.776    10549603.96643   8227391.23642  21602155.836    21602151.315
        53.000          45.000
  24451430.933    19507730.47243  15186768.50342  24451433.462    24451432.839
        42.000          38.000
  23429226.011    -5120116.83143  -3978744.57042  23429228.497    23429229.039
        48.000          40.000
  20932277.912     -420251.57843   -326530.44942  20932279.004    20932274.863
        56.000          49.000
 03  6 27 15 56 40.0000000  0 10G21G18G16G15G 6G29G26G10G23G17
  20797087.816    11848532.08544   9234896.63642  20797089.573    20797083.372
        57.000          50.000
  21422322.797     8664377.55343   6758300.89442  21422324.358    21422319.622
        56.000          49.000
  23426851.919    10791028.74143   8412325.95442  23426854.551    23426848.884
        49.000          41.000
  22863433.040     9115717.29343   7113508.41842  22863434.259    22863431.181
        52.000          44.000
  20410827.278    14131548.78444  11012946.93942  20410829.041    20410824.795
        57.000          51.000
  22844792.425    13536244.48843  10552795.21642  22844794.426    22844790.330
        50.000          43.000
  21598454.004    10530170.88543   8212248.59642  21598456.983    21598454.481
        52.000          45.000
  24464798.084    19577974.45643  15241504.06742  24464800.893    24464799.493
        41.000          38.000
  23418053.935    -5178824.25343  -4024490.57242  23418057.277    23418054.996
        47.000          40.000
  20933593.889     -413337.31343   -321142.73342  20933594.944    20933590.105
        56.000          49.000
 03  6 27 15 57  0.0000000  0 10G21G18G16G15G 6G29G26G10G23G17
  20794704.286    11836011.62544   9225140.42342  20794706.568    20794700.767
        57.000          50.000
  21414038.389     8620844.55443   6724379.09642  21414040.156    21414035.706
        56.000          49.000
  23423592.619    10773903.14443   8398981.31742  23423594.775    23423589.373
        48.000          41.000
  22854901.936     9070890.15743   7078578.18942  22854903.930    22854900.260
        51.000          44.000
  20414397.175    14150312.33444  11027567.85742  20414399.328    20414395.113
        57.000          51.000
  22847348.957    13549685.52443  10563268.76342  22847352.136    22847346.048
        50.000          43.000
  21594808.291    10511007.00243   8197315.72642  21594809.980    21594806.497
        53.000          45.000
  24478168.564    19648226.16043  15296245.64442  24478169.802    24478166.345
        41.000          38.000
  23406904.535    -5237417.00043  -4070147.19642  23406907.364    23406906.455
        47.000          40.000
  20934922.790     -406351.30643   -315699.10742  20934923.858    20934919.250
        56.000          49.000
 03  6 27 15 57 20.0000000  0 10G21G18G16G15G 6G29G26G10G23G17
  20792338.714    11823576.39344   9215450.62442  20792340.290    20792334.410
        57.000          50.000
  21405787.908     8577489.29143   6690595.78642  21405789.864    21405785.693
        56.000          49.000
  23420381.058    10757019.01143   8385824.84142  23420382.919    23420377.601
        48.000          42.000
  22846379.950     9026106.18543   7043681.61342  22846382.751    22846377.769
        51.000          44.000
  20418010.388    14169297.31344  11042361.31642  20418011.973    20418007.759
        57.000          51.000
  22849953.092    13563370.85143  10573932.66142  22849955.566    22849950.294
        50.000          43.000
  21591213.291    10492118.12043   8182597.13142  21591215.702    21591211.831
        52.000          45.000
  24491538.229    19718490.37143  15350996.96742  24491538.828    24491539.964
        41.000          38.000
  23395775.897    -5295889.22443  -4115709.91642  23395778.584    23395779.588
        46.000          40.000
  20936267.288     -399287.95243   -310195.21142  20936267.860    20936263.897
        56.000          49.000
 03  6 27 15 57 40.0000000  0 10G21G18G16G15G 6G29G26G10G23G17
  20789988.145    11811220.83544   9205822.90642  20789989.149    20789983.167
        57.000          50.000
  21397570.567     8534306.26343   6656946.68642  21397572.365    21397568.111
        56.000          49.000
  23417211.512    10740370.95043   8372852.31542  23417214.748    23417208.479
        48.000          41.000
  22837865.624     8981359.76643   7008814.26242  22837865.972    22837862.525
        51.000          44.000
  20421664.080    14188498.09844  11057322.92742  20421665.814    20421661.318
        57.000          51.000
  22852604.344    13577294.81443  10584782.50042  22852605.759    22852601.231
        51.000          43.000
  21587669.781    10473499.29243   8168088.96342  21587672.578    21587669.538
        52.000          45.000
  24504912.561    19788760.89443  15405753.18742  24504913.664    24504911.611
        42.000          38.000
  23384670.928    -5354246.11943  -4161182.76842  23384673.806    23384673.070
        45.000          40.000
  20937625.187     -392153.10643   -304635.60442  20937626.067    20937622.419
        56.000          49.000
 03  6 27 15 58  0.0000000  0 10G21G18G16G15G 6G29G26G10G23G17
  20787651.802    11798945.46844   9196257.67642  20787653.284    20787646.971
        57.000          50.000
  21389386.513     8491296.04143   6623432.24242  21389388.030    21389383.322
        56.000          49.000
  23414089.952    10723959.32143   8360064.00742  23414091.580    23414085.886
        48.000          41.000
  22829356.784     8936651.25943   6973976.47142  22829358.444    22829355.232
        49.000          44.000
  20425359.186    14207915.09344  11072453.01442  20425361.176    20425356.503
        57.000          51.000
  22855299.387    13591457.73343  10595818.54642  22855300.949    22855296.842
        51.000          43.000
  21584178.217    10455151.43043   8153791.93342  21584180.720    21584178.480
        52.000          46.000
  24518286.273    19859037.58943  15460514.23442  24518286.966    24518284.405
        44.000          38.000
  23373588.807    -5412486.93143  -4206565.18142  23373589.288    23373590.134
        46.000          40.000
  20938996.802     -384946.30443   -299019.93242  20938997.600    20938992.946
        56.000          49.000
 03  6 27 15 58 20.0000000  0 10G21G18G16G15G 6G29G26G10G23G17
  20785330.792    11786751.31843   9186755.72742  20785332.613    20785326.431
        56.000          50.000
  21381234.244     8448459.85043   6590053.40942  21381235.854    21381231.422
        56.000          48.000
  23411011.335    10707785.28443   8347460.82842  23411012.236    23411006.735
        48.000          41.000
  22820860.233     8891981.65243   6939168.99542  22820860.502    22820854.725
        51.000          44.000
  20429095.045    14227549.21544  11087752.29242  20429097.278    20429092.525
        57.000          51.000
  22858037.567    13605860.48943  10607041.46242  22858040.250    22858036.540
        49.000          43.000
  21580739.363    10437075.90543   8139707.10942  21580741.434    21580738.080
        52.000          45.000
  24531660.926    19929320.77243  15515280.33542  24531662.488    24531658.654
        45.000          39.000
  23362528.698    -5470610.35343  -4251856.10242  23362530.280    23362530.532
        45.000          40.000
  20940381.926     -377666.54344   -293347.41742  20940382.949    20940378.448
        57.000          49.000
 03  6 27 15 58 40.0000000  0 10G21G18G16G15G 6G29G26G10G23G17
  20783026.245    11774637.13143   9177316.08642  20783027.633    20783021.070
        56.000          49.000
  21373115.417     8405796.50343   6556809.25642  21373117.260    21373112.833
        56.000          49.000
  23407978.436    10691847.73043   8335041.91342  23407981.018    23407974.127
        48.000          41.000
  22812366.486     8847349.75443   6904390.91242  22812367.106    22812361.435
        51.000          44.000
  20432872.710    14247399.19244  11103219.77442  20432874.565    20432870.164
        57.000          51.000
  22860824.719    13620501.55443  10618450.06242  22860827.576    22860823.486
        50.000          43.000
  21577350.550    10419272.07143   8125834.00942  21577353.456    21577350.280
        52.000          45.000
  24545035.302    19999608.64043  15570050.12242  24545036.679    24545033.931
        46.000          38.000
  23351491.323    -5528617.11043  -4297056.13242  23351493.372    23351492.833
        47.000          41.000
  20941780.332     -370315.16543   -287619.08742  20941781.613    20941777.537
        56.000          49.000
 03  6 27 15 59  0.0000000  0 11G21G18G16G15G 6G30G29G26G10G23G17
  20780736.664    11762606.23843   9167941.35242  20780737.760    20780731.320
        56.000          49.000
  21365030.883     8363309.60843   6523702.59042  21365032.758    21365028.049
        56.000          49.000
  23404991.309    10676149.78743   8322809.74242  23404992.846    23404988.144
        48.000          41.000
  22803880.068     8802758.72343   6869644.67342  22803882.621    22803876.478
        51.000          44.000
  20436691.750    14267468.22744  11118857.94742  20436693.715    20436688.768
        57.000          51.000
  24716035.525
        42.000
  22863657.190    13635384.01043  10630046.79342  22863660.245    22863655.059
        50.000          43.000
  21574015.434    10401743.51643   8112175.39942  21574018.164    21574014.557
        52.000          45.000
  24558413.360    20069903.55043  15624825.36042  24558413.875    24558410.658
        43.000          38.000
  23340475.414    -5586503.73243  -4342162.51542  23340477.152    23340476.513
        48.000          41.000
  20943193.788     -362889.16943   -281832.61342  20943194.352    20943190.595
        56.000          49.000
 03  6 27 15 59 20.0000000  0 11G21G18G16G15G 6G30G29G26G10G23G17
  20778461.510    11750650.19443   9158624.95542  20778463.026    20778456.405
        56.000          50.000
  21356977.989     8320990.92543   6490727.00942  21356979.211    21356975.245
        56.000          49.000
  23402047.736    10660683.13843   8310757.80842  23402049.020    23402044.382
        48.000          41.000
  22795400.432     8758200.32943   6834923.85442  22795402.272    22795395.854
        50.000          43.000
  20440551.572    14287748.01544  11134660.34842  20440553.171    20440547.750
        58.000          51.000
  24728761.243
        43.000
  22866532.927    13650499.56343  10641825.12942  22866536.149    22866530.817
        49.000          43.000
  21570730.237    10384482.50743   8098725.28442  21570732.244    21570729.814
        52.000          45.000
  24571788.690    20140196.89143  15679599.38042  24571789.105    24571787.527
        42.000          37.000
  23329481.659    -5644278.00343  -4387181.36642  23329482.818    23329482.379
        49.000          41.000
  20944619.410     -355396.49543   -275994.18742  20944620.358    20944615.923
        56.000          49.000
 03  6 27 15 59 40.0000000  0 11G21G18G16G15G 6G30G29G26G10G23G17
  20776203.274    11738779.63844   9149375.15842  20776204.480    20776197.891
        57.000          50.000
  21348959.237     8278851.47543   6457891.08142  21348960.960    21348956.263
        56.000          49.000
  23399150.120    10645458.72243   8298894.62242  23399151.843    23399146.664
        48.000          41.000
  22786928.225     8713685.03543   6800236.60942  22786928.523    22786927.047
        50.000          43.000
  20444452.028    14308249.00044  11150635.10142  20444454.562    20444449.648
        58.000          51.000
  24741480.552
        43.000
  22869456.545    13665858.57243  10653793.18242  22869458.419    22869454.441
        50.000          43.000
  21567498.935    10367500.01543   8085492.19342  21567500.984    21567498.469
        52.000          46.000
  24585166.328    20210498.49143  15734379.82842  24585168.327    24585164.513
        42.000          37.000
  23318509.659    -5701929.10143  -4432104.26642  23318512.171    23318510.929
        46.000          40.000
  20946060.157     -347826.74643   -270095.70642  20946061.210    20946056.458
        56.000          49.000
 03  6 27 16  0  0.0000000  0 11G21G18G16G15G 6G30G29G26G10G23G17
  20773958.813    11726988.45644   9140187.20542  20773960.767    20773953.826
        57.000          50.000
  21340973.871     8236885.30044   6425190.17742  21340975.251    21340970.524
        57.000          49.000
  23396298.947    10630470.35843   8287215.35142  23396299.826    23396293.810
        47.000          41.000
  22778464.024     8669206.60843   6765578.10542  22778465.783    22778461.716
        49.000          42.000
  20448394.402    14328965.02544  11166777.41742  20448396.420    20448391.559
        57.000          51.000
  24754190.540      209876.90353     41769.37652  24754190.932    24754196.880
        43.000          35.000
  22872424.610    13681454.54443  10665945.89842  22872426.493    22872421.267
        50.000          43.000
  21564319.694    10350790.38043   8072471.70142  21564321.902    21564318.437
        52.000          46.000
  24598543.532    20280801.29643  15789161.20342  24598546.295    24598541.667
        45.000          37.000
  23307561.659    -5759462.81443  -4476935.68442  23307562.990    23307561.667
        46.000          40.000
  20947513.949     -340185.66743   -264141.63942  20947514.909    20947510.056
        56.000          49.000
 03  6 27 16  0 20.0000000  0 11G21G18G16G15G 6G30G29G26G10G23G17
  20771730.445    11715281.48344   9131064.87742  20771732.505    20771725.709
        57.000          50.000
  21333020.773     8195097.04243   6392627.91642  21333022.926    21333018.678
        56.000          49.000
  23393490.951    10615722.68743   8275723.63242  23393494.724    23393488.966
        48.000          41.000
  22770008.635     8624769.86343   6730952.04742  22770011.135    22770005.213
        49.000          42.000
  20452378.134    14349900.84044  11183091.00442  20452380.009    20452376.075
        57.000          51.000
  24766886.993      276614.81243     93772.72942  24766888.835    24766898.521
        41.000          34.000
  22875437.466    13697292.14143  10678286.90342  22875440.672    22875436.326
        50.000          42.000
  21561192.236    10334358.71643   8059667.83942  21561194.536    21561191.669
        52.000          45.000
  24611924.585    20351109.57043  15843946.88642  24611925.321    24611921.650
        46.000          38.000
  23296635.941    -5816873.92143  -4521671.59242  23296638.022    23296637.826
        47.000          40.000
  20948983.089     -332468.62343   -258128.37442  20948983.953    20948978.798
        56.000          49.000
 03  6 27 16  0 40.0000000  0 11G21G18G16G15G 6G30G29G26G10G23G17
  20769520.661    11703662.94144   9122011.44942  20769522.093    20769514.934
        57.000          50.000
  21325104.187     8153491.28443   6360207.85742  21325105.901    21325100.633
        56.000          49.000
  23390734.440    10601220.24743   8264422.99542  23390735.013    23390730.778
        49.000          42.000
  22761560.870     8580379.29043   6696361.98142  22761563.817    22761558.502
        49.000          43.000
  20456405.014    14371060.82944  11199579.26642  20456407.068    20456402.855
        57.000          51.000
  24779575.999                      145741.55142                  24779585.877
        38.000          33.000
  22878498.367    13713375.52043  10690819.38542  22878499.604    22878494.850
        49.000          42.000
  21558120.507    10318209.94243   8047084.38442  21558122.738    21558117.905
        52.000          45.000
  24625305.345    20421427.21343  15898739.86042  24625305.810    24625303.018
        45.000          38.000
  23285737.327    -5874157.77943  -4566308.30942  23285737.919    23285736.863
        48.000          41.000
  20950466.453     -324671.70543   -252052.87442  20950467.691    20950462.765
        56.000          49.000
 03  6 27 16  1  0.0000000  0 10G21G18G16G15G 6G29G26G10G23G17
  20767327.706    11692141.11044   9113033.38242  20767329.031    20767323.022
        57.000          50.000
  21317223.151     8112076.91543   6327936.93942  21317224.338    21317219.659
        56.000          49.000
  23388020.051    10586971.07843   8253319.72942  23388022.183    23388017.949
        47.000          41.000
  22753126.350     8536042.88643   6661814.13942  22753125.983    22753122.132
        49.000          43.000
  20460475.857    14392452.99444  11216248.44442  20460478.084    20460473.718
        57.000          51.000
  22881607.287    13729712.83643  10703549.76342  22881608.931    22881604.865
        49.000          43.000
  21555102.029    10302352.64243   8034728.07042  21555104.229    21555100.858
        52.000          46.000
  24638688.314    20491761.59443  15953545.87342  24638689.453    24638686.772
        44.000          38.000
  23274862.632    -5931305.83943  -4610839.20142  23274864.569    23274862.660
        49.000          41.000
  20951967.108     -316786.62043   -245908.68042  20951968.134    20951963.490
        56.000          49.000
 03  6 27 16  1 20.0000000  0 10G21G18G16G15G 6G29G26G10G23G17
  20765146.021    11680677.32944   9104100.54842  20765147.819    20765141.475
        57.000          50.000
  21309370.934     8070815.21043   6295784.98042  21309372.809    21309368.172
        56.000          49.000
  23385348.752    10572936.64843   8242383.80142  23385350.457    23385346.063
        47.000          41.000
  22744690.911     8491721.98143   6627278.36942  22744692.817    22744689.169
        48.000          43.000
  20464583.900    14414038.63744  11233068.38242  20464585.744    20464581.099
        57.000          51.000
  22884756.558    13746265.12843  10716447.67142  22884759.137    22884756.310
        49.000          43.000
  21552133.932    10286748.56343   8022569.05442  21552135.332    21552131.564
        53.000          46.000
  24652067.626    20562073.69443  16008334.49042  24652069.342    24652066.639
        44.000          37.000
  23264005.339    -5988356.45143  -4655294.15342  23264006.538    23264006.475
        48.000          41.000
  20953476.527     -308851.98943   -239725.86242  20953477.526    20953473.804
        56.000          49.000
 03  6 27 16  1 40.0000000  0 10G21G18G16G15G 6G29G26G10G23G17
  20762981.403    11669300.27444   9095235.30042  20762983.110    20762976.220
        57.000          49.000
  21301554.068     8029735.32143   6263774.69142  21301555.900    21301550.914
        56.000          49.000
  23382727.121    10559145.72743   8231637.61642  23382728.903    23382722.649
        49.000          42.000
  22736264.861     8447445.29243   6592777.06142  22736265.926    22736262.505
        48.000          43.000
  20468733.493    14435846.45544  11250061.44842  20468735.759    20468730.780
        57.000          51.000
  22887954.350    13763060.95243  10729535.32342  22887956.460    22887950.364
        50.000          43.000
  21549216.655    10271426.88443   8010630.11642  21549219.516    21549215.800
        53.000          46.000
  24665448.830    20632391.58043  16063127.63342  24665451.436    24665445.675
        44.000          37.000
  23253173.575    -6045280.54843  -4699650.53942  23253174.434    23253173.712
        49.000          41.000
  20955001.677     -300839.13043   -233482.09642  20955002.720    20954998.422
        56.000          49.000
 03  6 27 16  2  0.0000000  0 10G21G18G16G15G 6G29G26G10G23G17
  20760831.728    11658007.07444   9086435.40342  20760833.634    20760827.221
        57.000          49.000
  21293770.919     7988834.04943   6231903.57742  21293772.914    21293767.674
        56.000          49.000
  23380147.542    10545595.28843   8221078.83042  23380149.461    23380144.236
        49.000          42.000
  22727848.269     8403209.72743   6558307.80842  22727848.811    22727844.051
        49.000          43.000
  20472924.468    14457873.24144  11267225.14042  20472926.426    20472922.423
        57.000          50.000
  22891194.791    13780096.91943  10742810.11042  22891197.928    22891194.273
        50.000          43.000
  21546353.928    10256384.91843   7998909.12842  21546356.245    21546353.617
        52.000          46.000
  24678832.086    20702711.48743  16117922.35642  24678831.000    24678828.612
        44.000          37.000
  23242364.123    -6102080.90043  -4743910.49642  23242365.450    23242364.099
        48.000          41.000
  20956541.409     -292750.90043   -227179.60442  20956542.265    20956537.679
        56.000          49.000
 03  6 27 16  2 20.0000000  0 10G21G18G16G15G 6G29G26G10G23G17
  20758697.385    11646789.64143   9077694.53042  20758698.897    20758692.744
        56.000          50.000
  21286020.099     7948103.68743   6200165.63942  21286021.852    21286016.653
        56.000          49.000
  23377613.516    10532277.44543   8210701.26542  23377614.814    23377610.477
        49.000          42.000
  22719434.854     8359007.45143   6523864.49742  22719436.666    22719433.565
        49.000          43.000
  20477157.355    14480111.00244  11284553.22742  20477158.558    20477154.063
        57.000          50.000
  22894481.894    13797365.04243  10756265.77642  22894484.392    22894479.407
        51.000          44.000
  21543544.011    10241615.13643   7987400.22642  21543546.778    21543543.226
        52.000          46.000
  24692212.137    20773024.84943  16172711.97542  24692211.712    24692212.402
        44.000          37.000
  23231576.795    -6158765.10643  -4788079.96342  23231577.474    23231580.411
        48.000          41.000
  20958092.608     -284595.49543   -220824.76542  20958094.185    20958090.144
        56.000          49.000
 03  6 27 16  2 40.0000000  0 10G21G18G16G15G 6G29G26G10G23G17
  20756580.182    11635661.46244   9069023.21642  20756581.425    20756575.429
        57.000          50.000
  21278304.203     7907557.76843   6168571.42242  21278306.046    21278301.329
        56.000          49.000
  23375126.769    10519205.45543   8200515.28542  23375127.573    23375122.904
        49.000          42.000
  22711032.649     8314851.81743   6489457.51342  22711033.049    22711031.212
        48.000          43.000
  20481431.329    14502573.03944  11302056.08442  20481433.097    20481428.745
        57.000          51.000
  22897813.888    13814878.42143  10769912.57342  22897815.953    22897813.094
        50.000          44.000
  21540788.713    10227131.31743   7976114.15242  21540790.347    21540787.138
        53.000          46.000
  24705594.134    20843344.32243  16227506.34242  24705594.779    24705593.276
        44.000          37.000
  23220814.598    -6215319.48443  -4832148.27442  23220817.518    23220816.852
        48.000          42.000
  20959660.114     -276359.26643   -214406.94042  20959661.003    20959657.522
        56.000          49.000
 03  6 27 16  3  0.0000000  0  9G21G18G16G15G 6G29G26G23G17
  20754478.714    11624619.00544   9060418.70642  20754480.342    20754473.980
        57.000          50.000
  21270622.731     7867193.00743   6137118.38342  21270624.407    21270620.056
        55.000          49.000
  23372681.294    10506375.93943   8190518.22642  23372683.970    23372682.191
        47.000          41.000
  22702637.058     8270739.15743   6455084.01442  22702637.836    22702635.406
        47.000          42.000
  20485746.816    14525255.76544  11319730.89942  20485749.303    20485745.222
        57.000          51.000
  22901191.526    13832633.22843  10783747.47742  22901193.720    22901190.429
        50.000          43.000
  21538084.455    10212930.35943   7965048.50242  21538087.599    21538084.496
        52.000          46.000
  23210077.207    -6271747.20243  -4876117.88542  23210078.103    23210077.919
        48.000          42.000
  20961241.848     -268045.84243   -207928.95442  20961242.910    20961239.136
        56.000          49.000
 03  6 27 16  3 20.0000000  0  9G21G18G16G15G 6G29G26G23G17
  20752392.087    11613653.38544   9051874.04942  20752393.776    20752387.245
        57.000          50.000
  21262975.160     7827000.26543   6105799.38242  21262976.488    21262971.382
        56.000          49.000
  23370288.329    10493779.66643   8180702.91642  23370289.504    23370283.269
        48.000          42.000
  22694251.711     8226660.34343   6420736.88942  22694250.607    22694248.261
        48.000          42.000
  20490104.538    14548149.86344  11337570.41842  20490106.291    20490101.408
        57.000          50.000
  22904615.896    13850620.09343  10797763.22742  22904617.060    22904613.611
        50.000          43.000
  21535436.067    10199003.34443   7954196.30442  21535437.999    21535434.684
        53.000          46.000
  23199361.282    -6328057.08943  -4919995.65342  23199362.868    23199365.574
        48.000          41.000
  20962837.221     -259664.70643   -201398.21442  20962838.011    20962833.283
        56.000          49.000
 03  6 27 16  3 40.0000000  0  9G21G18G16G15G 6G29G26G23G17
  20750320.765    11602768.57044   9043392.35742  20750322.142    20750316.139
        57.000          50.000
  21255358.984     7786984.12643   6074618.00242  21255360.815    21255356.792
        56.000          49.000
  23367935.464    10481421.01943   8171072.77342  23367939.062    23367932.895
        48.000          41.000
  22685872.863     8182619.64443   6386419.46342  22685872.007    22685867.911
        49.000          43.000
  20494501.334    14571259.64444  11355578.00242  20494503.230    20494499.273
        57.000          50.000
  22908082.346    13868843.11843  10811962.99442  22908083.763    22908080.893
        49.000          43.000
  21532837.710    10185355.05443   7943561.28542  21532840.461    21532837.141
        52.000          46.000
  23188668.297    -6384244.46143  -4963777.99342  23188670.139    23188670.683
        47.000          40.000
  20964445.513     -251210.99143   -194810.92742  20964446.925    20964441.971
        56.000          49.000
 03  6 27 16  4  0.0000000  0  9G21G18G16G15G 6G29G26G23G17
  20748265.229    11591968.79844   9034976.94042  20748267.075    20748261.356
        57.000          50.000
  21247779.076     7747149.29143   6043577.88642  21247781.004    21247776.118
        56.000          49.000
  23365630.498    10469304.51443   8161631.32742  23365632.175    23365627.573
        49.000          42.000
  22677498.107     8138621.46743   6352135.19842  22677498.040    22677495.583
        50.000          43.000
  20498941.523    14594589.49544  11373757.06742  20498943.268    20498938.934
        57.000          51.000
  22911597.187    13887306.70143  10826350.21442  22911598.259    22911594.625
        50.000          43.000
  21530295.647    10171990.33543   7933147.23642  21530297.664    21530293.637
        53.000          46.000
  23178002.523    -6440304.52343  -5007461.10742  23178004.530    23178001.208
        48.000          40.000
  20966069.161     -242680.68343   -188163.95242  20966070.375    20966065.546
        56.000          49.000
 03  6 27 16  4 20.0000000  0  9G21G18G16G15G 6G29G26G23G17
  20746224.618    11581246.33243   9026621.76242  20746226.511    20746220.546
        56.000          50.000
  21240231.898     7707487.64243   6012672.73242  21240233.381    21240228.669
        56.000          48.000
  23363369.823    10457422.03343   8152372.22342  23363371.553    23363365.227
        50.000          42.000
  22669131.756     8094657.81643   6317877.80942  22669133.847    22669128.516
        51.000          43.000
  20503421.654    14618131.17544  11392101.19842  20503423.715    20503418.841
        57.000          51.000
  22915152.311    13906002.24143  10840918.16142  22915155.480    22915151.973
        49.000          43.000
  21527804.145    10158901.55043   7922948.22642  21527806.654    21527803.229
        52.000          46.000
  23167358.690    -6496245.11543  -5051051.11942  23167358.943    23167356.332
        50.000          41.000
  20967704.857     -234081.71743   -181463.47442  20967706.254    20967702.460
        56.000          49.000
 03  6 27 16  4 40.0000000  0  9G21G18G16G15G 6G29G26G23G17
  20744200.914    11570609.53943   9018333.34542  20744202.282    20744196.308
        56.000          50.000
  21232719.199     7668007.78743   5981909.22442  21232720.738    21232715.615
        56.000          48.000
  23361153.436    10445781.58443   8143301.69542  23361155.358    23361150.024
        49.000          42.000
  22660773.672     8050736.93743   6283653.74442  22660775.114    22660772.413
        50.000          44.000
  20507942.676    14641892.77444  11410616.69842  20507945.028    20507940.563
        57.000          51.000
  22918757.358    13924938.04843  10855673.33642  22918759.577    22918755.414
        49.000          43.000
  21525368.201    10146097.24243   7912970.85242  21525370.195    21525366.070
        53.000          46.000
  23156736.612    -6552057.66943  -5094541.37042  23156739.161    23156736.285
        50.000          42.000
  20969356.083     -225406.25543   -174703.37842  20969357.063    20969353.058
        56.000          49.000
 03  6 27 16  5  0.0000000  0  9G21G18G16G15G 6G29G26G23G17
  20742193.369    11560055.77844   9010109.62142  20742194.190    20742187.732
        57.000          50.000
  21225240.662     7628707.16143   5951285.38242  21225242.506    21225237.471
        56.000          49.000
  23358984.357    10434380.67443   8134417.85342  23358986.635    23358981.350
        48.000          42.000
  22652422.796     8006856.13043   6249460.91442  22652424.602    22652422.052
        50.000          43.000
  20512506.000    14665871.51744  11429301.39342  20512507.948    20512503.377
        57.000          50.000
  22922407.568    13944110.87543  10870613.19942  22922408.801    22922403.057
        50.000          43.000
  21522985.515    10133575.14343   7903213.38542  21522987.417    21522983.018
        53.000          46.000
  23146140.480    -6607744.52043  -5137933.67842  23146142.317    23146138.862
        51.000          42.000
  20971021.354     -216656.43043   -167885.35342  20971022.708    20971017.109
        56.000          49.000
 03  6 27 16  5 20.0000000  0  9G21G18G16G15G 6G29G26G23G17
  20740200.039    11549583.11544   9001949.09042  20740201.823    20740194.945
        57.000          50.000
  21217795.626     7589584.11243   5920799.90842  21217797.399    21217792.664
        56.000          49.000
  23356860.638    10423217.30643   8125719.11042  23356862.378    23356856.774
        49.000          42.000
  22644079.195     7963013.57743   6215297.89842  22644081.142    22644078.715
        50.000          43.000
  20517109.842    14690065.41644  11448153.74042  20517112.146    20517107.135
        57.000          50.000
  22926099.435    13963518.72343  10885736.21642  22926101.925    22926098.037
        50.000          43.000
  21520654.364    10121333.61543   7893674.55742  21520657.570    21520654.058
        53.000          46.000
  23135564.961    -6663307.21043  -5181229.22442  23135568.420    23135567.678
        49.000          42.000
  20972699.552     -207834.19143   -161010.89542  20972700.559    20972696.621
        56.000          49.000
 03  6 27 16  5 40.0000000  0  9G21G18G16G15G 6G29G26G23G17
  20738223.299    11539196.18244   8993855.37242  20738224.442    20738218.011
        57.000          50.000
  21210385.142     7550643.09743   5890456.28642  21210387.239    21210382.526
        56.000          49.000
  23354780.277    10412295.87143   8117208.85542  23354781.989    23354776.682
        47.000          41.000
  22635745.471     7919213.52643   6181167.97442  22635747.186    22635742.860
        50.000          43.000
  20521756.324    14714478.83044  11467177.14142  20521757.821    20521753.000
        58.000          51.000
  22929838.636    13983165.74543  10901045.59142  22929840.284    22929836.014
        51.000          44.000
  21518379.788    10109377.63143   7884358.23842  21518382.698    21518378.664
        53.000          46.000
  23125016.340    -6718741.08743  -5224424.41642  23125018.978    23125016.941
        47.000          41.000
  20974392.532     -198935.19343   -154076.62042  20974393.721    20974390.289
        55.000          49.000
 03  6 27 16  6  0.0000000  0  9G21G18G16G15G 6G29G26G23G17
  20736261.711    11528890.12044   8985824.67642  20736263.589    20736257.510
        57.000          50.000
  21203008.949     7511879.99743   5860251.29042  21203011.397    21203005.971
        56.000          49.000
  23352750.210    10401611.86743   8108883.62742  23352750.782    23352743.697
        48.000          41.000
  22627417.288     7875451.56343   6147067.74442  22627418.111    22627415.800
        50.000          44.000
  20526441.855    14739107.12044  11486367.98642  20526444.354    20526439.959
        57.000          51.000
  22933621.412    14003047.24043  10916537.66842  22933623.341    22933619.476
        50.000          44.000
  21516158.405    10097702.91743   7875261.07642  21516161.100    21516156.536
        53.000          46.000
  23114492.309    -6774050.30843  -5267522.49142  23114493.656    23114492.513
        47.000          41.000
  20976100.963     -189963.87943   -147086.00242  20976102.087    20976097.881
        56.000          49.000
 03  6 27 16  6 20.0000000  0  9G21G18G16G15G 6G29G26G23G17
  20734316.853    11518668.22044   8977859.54442  20734318.581    20734312.021
        57.000          50.000
  21195666.343     7473297.60643   5830187.11542  21195668.765    21195664.409
        56.000          49.000
  23350760.390    10391168.27243   8100745.75542  23350763.850    23350758.117
        48.000          42.000
  22619099.153     7831730.71943   6112999.54842  22619099.635    22619096.517
        51.000          44.000
  20531170.353    14763953.13844  11505728.47442  20531172.819    20531168.119
        57.000          51.000
  22937449.187    14023165.99843  10932214.62842  22937452.043    22937447.857
        50.000          44.000
  21513991.824    10086312.84643   7866385.70742  21513993.808    21513989.621
        53.000          46.000
  23103993.544    -6829231.49543  -5310520.76342  23103995.701    23103991.849
        48.000          40.000
  20977822.849     -180917.21043   -140036.67542  20977823.706    20977818.798
        56.000          49.000
 03  6 27 16  6 40.0000000  0  9G21G18G16G15G 6G29G26G23G17
  20732386.544    11508524.26244   8969955.14442  20732388.570    20732381.886
        57.000          50.000
  21188359.127     7434890.15443   5800259.25142  21188360.431    21188356.130
        56.000          49.000
  23348819.311    10380958.99543   8092790.46542  23348818.586    23348815.752
        48.000          41.000
  22610785.193     7788044.61243   6078958.41942  22610786.614    22610781.811
        51.000          44.000
  20535938.581    14789010.63244  11525253.75942  20535940.594    20535936.514
        57.000          51.000
  22941322.738    14043515.51043  10948071.37242  22941324.695    22941319.763
        50.000          43.000
  21511875.707    10075201.42143   7857727.47442  21511879.179    21511875.429
        53.000          46.000
  23093513.271    -6884290.66443  -5353423.93642  23093515.862    23093515.525
        48.000          41.000
  20979556.377     -171801.37143   -132933.44242  20979557.798    20979553.295
        56.000          49.000
 03  6 27 16  7  0.0000000  0  9G21G18G16G15G 6G29G26G23G17
  20730474.330    11498469.69144   8962120.40242  20730475.012    20730468.536
        57.000          50.000
  21181085.291     7396669.19643   5770476.70642  21181087.103    21181081.951
        56.000          49.000
  23346923.092    10370995.36443   8085026.55542  23346926.136    23346919.072
        49.000          42.000
  22602480.386     7744404.79943   6044953.40442  22602481.372    22602478.583
        51.000          44.000
  20540749.414    14814290.97844  11544952.69642  20540751.637    20540747.260
        57.000          51.000
  22945241.421    14064106.88243  10964116.58842  22945243.400    22945239.864
        50.000          43.000
  21509817.507    10064380.51643   7849295.62842  21509819.766    21509815.599
        53.000          46.000
  23083060.050    -6939215.96543  -5396222.80842  23083062.835    23083063.220
        47.000          41.000
  20981307.174     -162604.94843   -125767.40942  20981308.099    20981303.726
        56.000          49.000
 03  6 27 16  7 20.0000000  0  9G21G18G16G15G 6G29G26G23G17
  20728575.401    11488496.39644   8954349.00242  20728577.170    20728570.856
        57.000          50.000
  21173844.665     7358626.65943   5740833.18742  21173847.322    21173842.963
        55.000          49.000
  23345069.333    10361268.84043   8077447.42342  23345071.260    23345068.121
        47.000          40.000
  22594183.201     7700803.02243   6010977.99742  22594185.014    22594179.640
        51.000          44.000
  20545601.172    14839785.60244  11564818.61142  20545603.236    20545598.421
        58.000          51.000
  22949203.189    14084931.50443  10980343.55342  22949206.392    22949200.860
        50.000          43.000
  21507811.626    10053842.16443   7841083.94242  21507814.317    21507810.398
        52.000          46.000
  23072634.147    -6994015.43743  -5438923.63142  23072634.761    23072635.176
        48.000          42.000
  20983071.434     -153336.33643   -118545.13542  20983072.437    20983067.625
        56.000          49.000
 03  6 27 16  7 40.0000000  0  9G21G18G16G15G 6G29G26G23G17
  20726693.800    11478606.63244   8946642.68342  20726695.549    20726688.616
        57.000          50.000
  21166640.816     7320764.83343   5711330.48842  21166642.395    21166637.790
        56.000          49.000
  23343265.910    10351781.77743   8070054.87142  23343267.287    23343264.671
        47.000          41.000
  22585893.468     7657241.62043   5977034.06042  22585895.233    22585891.118
        51.000          44.000
  20550494.008    14865496.72644  11584853.20742  20550495.978    20550490.813
        58.000          51.000
  22953210.770    14105991.60943  10996754.02842  22953213.752    22953208.808
        50.000          43.000
  21505861.459    10043588.98843   7833094.46742  21505863.522    21505858.398
        53.000          46.000
  23062231.295    -7048686.47643  -5481524.36242  23062232.272    23062231.505
        49.000          42.000
  20984848.272     -143993.29043   -111264.86142  20984849.898    20984845.614
        55.000          49.000
 03  6 27 16  8  0.0000000  0  9G21G18G16G15G 6G29G26G23G17
  20724827.582    11468800.07144   8939001.18842  20724829.329    20724822.654
        57.000          50.000
  21159470.202     7283083.57343   5681968.48542  21159472.097    21159467.270
        56.000          49.000
  23341506.665    10342533.80943   8062848.66042  23341507.233    23341502.783
        48.000          41.000
  22577611.859     7613720.25743   5943121.31142  22577613.307    22577610.374
        51.000          44.000
  20555427.703    14891423.87744  11605056.13642  20555429.628    20555424.959
        57.000          50.000
  22957262.306    14127286.41243  11013347.38342  22957265.538    22957261.996
        50.000          43.000
  21503964.235    10033620.84243   7825327.09642  21503966.552    21503963.069
        53.000          46.000
  23051851.179    -7103229.01743  -5524024.98942  23051853.123    23051853.005
        49.000          42.000
  20986640.336     -134575.92143   -103926.66442  20986641.615    20986638.067
        55.000          49.000
 03  6 27 16  8 20.0000000  0  9G21G18G16G15G 6G29G26G23G17
  20722976.898    11459075.11944   8931423.28442  20722978.447    20722972.157
        57.000          50.000
  21152333.674     7245581.45143   5652746.06442  21152335.380    21152330.829
        56.000          49.000
  23339791.999    10333523.23243   8055827.43342  23339793.109    23339789.361
        49.000          41.000
  22569337.546     7570237.33043   5909238.51642  22569338.307    22569336.187
        51.000          45.000
  20560402.434    14917565.42744  11625426.13142  20560404.438    20560399.734
        57.000          51.000
  22961359.997    14148814.04343  11030122.16542  22961362.291    22961357.971
        51.000          43.000
  21502120.856    10023936.61143   7817780.96342  21502123.311    21502119.302
        53.000          46.000
  23041496.494    -7157644.41043  -5566426.52842  23041497.926    23041499.041
        48.000          42.000
  20988447.373     -125085.69043    -96531.69842  20988447.575    20988443.582
        56.000          49.000
 03  6 27 16  8 40.0000000  0  9G21G18G16G15G 6G29G26G23G17
  20721142.642    11449435.31844   8923911.74642  20721143.913    20721137.661
        57.000          50.000
  21145232.551     7208261.99343   5623665.99142  21145234.204    21145229.362
        56.000          49.000
  23338122.313    10324753.43243   8048993.78442  23338125.393    23338119.894
        50.000          42.000
  22561070.992     7526796.21043   5875388.29042  22561072.875    22561069.534
        50.000          44.000
  20565417.558    14943924.51544  11645965.64642  20565419.817    20565415.814
        57.000          51.000
  22965499.484    14170577.64143  11047080.85342  22965501.427    22965498.138
        50.000          43.000
  21500333.460    10014539.90343   7810458.86842  21500335.621    21500331.563
        53.000          46.000
  23031165.268    -7211928.98943  -5608726.15842  23031168.202    23031167.547
        48.000          42.000
  20990267.255     -115519.58343    -89077.61442  20990268.227    20990263.242
        56.000          49.000
 03  6 27 16  9  0.0000000  0  9G21G18G16G15G 6G29G26G23G17
  20719324.156    11439879.00544   8916465.25942  20719326.023    20719319.571
        57.000          50.000
  21138164.811     7171123.60443   5594727.00742  21138166.237    21138161.985
        56.000          49.000
  23336499.864    10316222.57643   8042346.34142  23336501.800    23336497.173
        49.000          42.000
  22552811.327     7483395.12043   5841569.26642  22552813.419    22552809.392
        50.000          44.000
  20570475.522    14970499.30344  11666673.23742  20570477.190    20570472.990
        57.000          51.000
  22969687.280    14192575.21443  11064221.83242  22969688.767    22969683.741
        51.000          43.000
  21498598.659    10005429.32143   7803359.74942  21498600.965    21498597.566
        53.000          46.000
  23020861.309    -7266084.12943  -5650924.94142  23020864.230    23020861.743
        49.000          42.000
  20992101.459     -105878.84643    -81565.36842  20992102.599    20992098.445
        56.000          49.000
 03  6 27 16  9 20.0000000  0  9G21G18G16G15G 6G29G26G23G17
  20717520.465    11430402.75844   8909081.15642  20717522.718    20717516.236
        57.000          50.000
  21131131.340     7134163.10443   5565926.64342  21131133.201    21131128.950
        56.000          49.000
  23334919.665    10307927.29043   8035882.43742  23334923.122    23334918.067
        49.000          42.000
  22544562.063     7440030.80843   5807778.90842  22544561.932    22544558.358
        50.000          44.000
  20575572.668    14997286.29244  11687546.17342  20575574.715    20575569.987
        57.000          50.000
  22973916.849    14214803.09043  11081542.26042  22973920.225    22973915.511
        50.000          43.000
  21496919.226     9996601.77943   7796481.14542  21496922.058    21496917.585
        53.000          46.000
  23010579.861    -7320113.02943  -5693025.33142  23010581.599    23010580.501
        49.000          42.000
  20993949.744      -96167.13143    -73997.81242  20993951.008    20993946.775
        56.000          49.000
 03  6 27 16  9 40.0000000  0  9G21G18G16G15G 6G29G26G23G17
  20715734.379    11421014.26944   8901765.44542  20715736.062    20715729.222
        57.000          50.000
  21124134.331     7097388.19943   5537270.89242  21124135.653    21124131.191
        56.000          49.000
  23333390.717    10299875.22743   8029608.05442  23333392.122    23333386.467
        50.000          42.000
  22536317.037     7396710.91043   5774023.16942  22536317.402    22536314.481
        50.000          43.000
  20580711.875    15024293.00144  11708590.31742  20580713.769    20580709.167
        57.000          50.000
  22978192.135    14237268.69143  11099047.93142  22978192.943    22978191.085
        50.000          43.000
  21495295.009     9988065.23943   7789829.32642  21495297.592    21495292.910
        53.000          46.000
  23000324.453    -7374007.60443  -5735021.04642  23000326.493    23000323.803
        50.000          42.000
  20995812.290      -86376.78243    -66368.98742  20995813.202    20995809.645
        55.000          49.000
 03  6 27 16 10  0.0000000  0  9G21G18G16G15G 6G29G26G23G17
  20713962.629    11411705.87844   8894512.14642  20713964.116    20713957.679
        57.000          50.000
  21117169.439     7060791.27143   5508753.82442  21117171.584    21117166.794
        56.000          49.000
  23331899.988    10292058.35243   8023516.94542  23331902.348    23331898.016
        49.000          42.000
  22528079.666     7353427.71943   5740296.03742  22528081.596    22528077.667
        50.000          43.000
  20585891.198    15051511.55844  11729799.54242  20585893.179    20585889.014
        57.000          50.000
  22982510.866    14259963.79343  11116732.42042  22982514.023    22982507.741
        50.000          43.000
  21493723.812     9979812.18943   7783398.39942  21493725.948    21493722.250
        53.000          46.000
  22990092.087    -7427775.32943  -5776917.92142  22990093.893    22990092.063
        49.000          42.000
  20997689.073      -76515.34943    -58684.76942  20997689.857    20997685.533
        55.000          49.000
 03  6 27 16 10 20.0000000  0  9G21G18G16G15G 6G29G26G23G17
  20712208.769    11402486.58844   8887328.28342  20712209.952    20712203.867
        57.000          50.000
  21110241.329     7024381.32543   5480382.46042  21110242.754    21110237.469
        56.000          49.000
  23330461.614    10284485.66943   8017616.10242  23330462.193    23330458.509
        50.000          42.000
  22519852.715     7310190.26443   5706604.51242  22519853.408    22519850.160
        51.000          44.000
  20591112.742    15078950.68544  11751180.63142  20591114.538    20591110.643
        57.000          50.000
  22986873.469    14282897.28643  11134602.66342  22986877.523    22986872.828
        49.000          43.000
  21492209.255     9971851.96243   7777195.64242  21492211.498    21492207.722
        53.000          46.000
  22979885.596    -7481406.95843  -5818708.72042  22979887.122    22979887.216
        49.000          43.000
  20999581.582      -66573.98243    -50938.26542  20999582.220    20999577.927
        55.000          49.000
 03  6 27 16 10 40.0000000  0  9G21G18G16G15G 6G29G26G23G17
  20710469.620    11393346.46644   8880206.11342  20710470.970    20710464.580
        57.000          50.000
  21103345.921     6988148.69443   5452149.26542  21103347.738    21103343.226
        56.000          49.000
  23329064.099    10277146.98343   8011897.63142  23329065.691    23329059.540
        50.000          42.000
  22511630.375     7266988.40743   5672940.72942  22511632.245    22511628.485
        51.000          44.000
  20596374.546    15106600.16144  11772725.63942  20596376.221    20596371.518
        57.000          50.000
  22991281.934    14306058.64143  11152650.47542  22991284.360    22991281.270
        48.000          43.000
  21490749.019     9964174.64043   7771213.32142  21490751.285    21490747.721
        53.000          46.000
  22969704.123    -7534912.34543  -5860401.15642  22969706.144    22969705.943
        48.000          42.000
  21001486.309      -56562.70143    -43137.28442  21001487.144    21001482.921
        56.000          49.000
 03  6 27 16 11  0.0000000  0  9G21G18G16G15G 6G29G26G23G17
  20708746.166    11384291.40944   8873150.22442  20708747.788    20708741.157
        57.000          50.000
  21096485.714     6952099.30043   5424058.85342  21096487.813    21096482.610
        56.000          49.000
  23327713.270    10270047.90843   8006365.87542  23327714.658    23327711.097
        50.000          42.000
  22503418.029     7223827.93643   5639309.20742  22503419.338    22503415.357
        51.000          44.000
  20601677.258    15134465.63244  11794438.95042  20601679.235    20601674.479
        57.000          50.000
  22995731.863    14329453.41743  11170880.14242  22995736.182    22995732.602
        48.000          43.000
  21489343.251     9956786.40343   7765456.26342  21489345.607    21489340.752
        53.000          46.000
  22959547.510    -7588285.32643  -5901990.42642  22959548.395    22959547.947
        48.000          42.000
  21003406.396      -46475.43443    -35277.09542  21003407.279    21003402.522
        56.000          49.000
 03  6 27 16 11 20.0000000  0  9G21G18G16G15G 6G29G26G23G17
  20707040.148    11375324.24044   8866162.81342  20707041.635    20707034.437
        57.000          50.000
  21089661.705     6916235.81043   5396113.28942  21089663.234    21089657.722
        56.000          49.000
  23326408.765    10263191.43643   8001023.13542  23326411.346    23326405.205
        50.000          42.000
  22495214.503     7180711.63243   5605712.09542  22495215.046    22495211.476
        52.000          44.000
  20607021.160    15162549.85744  11816322.72042  20607023.111    20607018.973
        57.000          50.000
  23000229.104    14353084.08343  11189293.64042  23000233.411    23000228.363
        48.000          43.000
  21487992.154     9949690.21143   7759926.78442  21487994.796    21487990.575
        53.000          46.000
  22949417.639    -7641522.74343  -5943474.06242  22949419.853    22949418.398
        48.000          42.000
  21005340.246      -36309.45243    -27355.55442  21005341.283    21005337.133
        56.000          49.000
 03  6 27 16 11 40.0000000  0  9G21G18G16G15G 6G29G26G23G17
  20705348.457    11366436.93044   8859237.63142  20705350.191    20705343.834
        57.000          50.000
  21082870.700     6880550.40343   5368306.50542  21082872.649    21082868.073
        56.000          49.000
  23325147.301    10256569.19243   7995862.91842  23325147.816    23325143.408
        49.000          41.000
  22487015.476     7137631.48943   5572143.14342  22487017.312    22487014.348
        52.000          44.000
  20612405.318    15190844.44844  11838370.40642  20612407.448    20612403.080
        57.000          50.000
  23004771.672    14376942.14043  11207884.31542  23004773.078    23004768.500
        49.000          43.000
  21486696.541     9942878.39243   7754618.87842  21486698.549    21486694.095
        53.000          46.000
  22939309.501    -7694632.45343  -5984858.19142  22939311.781    22939311.082
        48.000          43.000
  21007288.170      -26072.94343    -19379.06242  21007289.536    21007285.410
        56.000          49.000
 03  6 27 16 12  0.0000000  0  9G21G18G16G15G 6G29G26G23G17
  20703672.853    11357634.70243   8852378.74942  20703674.824    20703669.375
        56.000          50.000
  21076115.425     6845048.33543   5340642.57242  21076116.914    21076111.624
        56.000          49.000
  23323934.222    10250186.20843   7990889.12542  23323934.713    23323929.920
        49.000          42.000
  22478826.421     7094592.78943   5538606.47442  22478827.999    22478823.870
        51.000          44.000
  20617830.313    15219354.42144  11860585.92642  20617832.249    20617828.930
        57.000          50.000
  23009354.963    14401032.61543  11226656.12942  23009357.701    23009353.081
        50.000          43.000
  21485455.286     9936356.11743   7749536.60342  21485457.290    21485453.993
        53.000          46.000
  22929228.192    -7747609.07443  -6026138.60242  22929230.061    22929229.969
        48.000          43.000
  21009250.845      -15760.56243    -11343.46842  21009252.127    21009247.621
        56.000          49.000
 03  6 27 16 12 20.0000000  0  9G21G18G16G15G 6G29G26G23G17
  20702014.821    11348917.69644   8845586.27242  20702016.202    20702010.336
        57.000          50.000
  21069393.705     6809729.69743   5313121.58542  21069395.088    21069391.149
        56.000          49.000
  23322764.812    10244042.39843   7986101.71142  23322766.164    23322762.175
        49.000          42.000
  22470643.088     7051595.56343   5505102.14342  22470644.255    22470641.366
        50.000          44.000
  20623297.271    15248079.53744  11882969.07842  20623299.006    20623295.230
        57.000          50.000
  23013984.390    14425355.10843  11245608.72042  23013985.734    23013982.139
        50.000          42.000
  21484268.119     9930123.77743   7744680.26142  21484271.012    21484267.580
        53.000          46.000
  22919173.518    -7800452.28943  -6067315.06042  22919174.537    22919174.580
        48.000          42.000
  21011227.675       -5372.37543     -3248.80342  21011228.523    21011224.908
        55.000          49.000
 03  6 27 16 12 40.0000000  0  9G21G18G16G15G 6G29G26G23G17
  20700372.630    11340286.17644   8838860.40042  20700374.038    20700367.603
        57.000          50.000
  21062708.281     6774595.02043   5285743.94642  21062709.600    21062705.027
        56.000          49.000
  23321639.670    10238138.15743   7981500.99442  23321641.727    23321637.771
        48.000          42.000
  22462468.644     7008640.24343   5471630.49142  22462468.867    22462467.046
        51.000          44.000
  20628804.542    15277020.01044  11905520.06542  20628806.283    20628802.671
        57.000          50.000
  23018656.308    14449909.55343  11264742.07142  23018658.461    23018654.107
        49.000          42.000
  21483138.322     9924182.09343   7740050.37542  21483140.471    21483136.382
        53.000          46.000
  22909142.112    -7853161.42743  -6108387.02542  22909144.618    22909144.020
        48.000          42.000
  21013218.216        5092.14343      4905.36842  21013219.228    21013216.236
        55.000          49.000
 03  6 27 16 13  0.0000000  0  9G21G18G16G15G 6G29G26G23G17
  20698745.502    11331738.75244   8832200.06142  20698747.067    20698741.462
        57.000          50.000
  21056056.624     6739642.92443   5258508.56742  21056058.463    21056053.469
        56.000          49.000
  23320562.665    10232471.69243   7977085.50442  23320563.227    23320560.645
        47.000          41.000
  22454303.338     6965725.31443   5438190.29642  22454303.723    22454300.382
        51.000          44.000
  20634352.182    15306174.14744  11928237.53342  20634354.303    20634350.041
        57.000          50.000
  23023372.636    14474694.14343  11284054.71942  23023375.075    23023370.374
        50.000          42.000
  21482062.986     9918529.61143   7735645.84842  21482065.071    21482061.451
        53.000          46.000
  22899137.636    -7905737.81843  -6149355.58542  22899139.494    22899137.888
        49.000          42.000
  21015224.751       15631.42243     13117.78642  21015225.436    21015221.464
        56.000          49.000
 03  6 27 16 13 20.0000000  0  9G21G18G16G15G 6G29G26G23G17
  20697135.027    11323274.16244   8825604.27242  20697135.987    20697130.125
        57.000          50.000
  21049440.112     6704872.02343   5231414.37942  21049442.099    21049437.521
        56.000          50.000
  23319528.406    10227041.65043   7972854.28242  23319530.572    23319527.361
        47.000          41.000
  22446144.153     6922849.42343   5404780.53142  22446144.901    22446140.906
        52.000          44.000
  20639940.428    15335540.56744  11951120.41242  20639942.305    20639938.223
        57.000          50.000
  23028132.395    14499707.40043  11303545.58442  23028133.778    23028129.982
        49.000          42.000
  21481042.328     9913165.35543   7731465.93742  21481044.911    21481040.879
        53.000          46.000
  22889158.581    -7958182.42443  -6190221.46142  22889159.456    22889159.077
        50.000          43.000
  21017244.111       26244.26443     21387.52242  21017244.953    21017240.655
        55.000          49.000
 03  6 27 16 13 40.0000000  0  9G21G18G16G15G 6G29G26G23G17
  20695541.012    11314895.68544   8819075.58842  20695542.371    20695535.765
        57.000          50.000
  21042858.857     6670285.53643   5204463.89342  21042860.526    21042855.459
        56.000          49.000
  23318540.206    10221851.10743   7968809.62542  23318543.008    23318539.384
        46.000          41.000
  22437991.588     6880015.61743   5371403.56542  22437993.746    22437988.760
        51.000          44.000
  20645569.970    15365122.22244  11974171.00542  20645571.676    20645567.641
        57.000          50.000
  23032936.750    14524951.94743  11323216.67942  23032939.967    23032934.784
        49.000          42.000
  21480076.750     9908092.54243   7727513.11642  21480078.606    21480075.097
        53.000          46.000
  22879203.876    -8010491.86443  -6230981.99342  22879206.562    22879206.557
        50.000          43.000
  21019277.564       36933.57343     29716.84642  21019278.632    21019274.920
        55.000          49.000
 03  6 27 16 14  0.0000000  0  9G21G18G16G15G 6G29G26G23G17
  20693962.649    11306603.04344   8812613.77842  20693964.252    20693957.876
        57.000          50.000
  21036312.247     6635883.49743   5177657.12742  21036313.967    21036308.851
        56.000          49.000
  23317601.158    10216899.37843   7964951.12442  23317601.714    23317596.636
        49.000          41.000
  22429850.404     6837223.80143   5338059.30442  22429850.929    22429847.607
        51.000          44.000
  20651239.322    15394918.44944  11997388.79842  20651241.395    20651237.743
        57.000          50.000
  23037784.441    14550427.13443  11343067.44842  23037787.422    23037782.177
        49.000          42.000
  21479166.043     9903311.20543   7723787.41442  21479169.222    21479164.528
        53.000          46.000
  22869276.261    -8062666.18443  -6271637.23342  22869277.419    22869277.120
        50.000          43.000
  21021326.975       47699.31143     38105.72442  21021327.868    21021323.617
        56.000          49.000
 03  6 27 16 14 20.0000000  0  9G21G18G16G15G 6G29G26G23G17
  20692399.394    11298392.15443   8806215.68242  20692401.194    20692395.225
        56.000          50.000
  21029800.076     6601662.03443   5150991.07642  21029802.110    21029796.757
        56.000          50.000
  23316701.047    10212182.39043   7961275.53642  23316704.226    23316699.054
        48.000          41.000
  22421712.666     6794469.79643   5304744.51442  22421715.207    22421712.624
        50.000          44.000
  20656949.687    15424924.97744  12020770.45742  20656951.600    20656947.733
        57.000          50.000
  23042673.436    14576128.59043  11363094.57442  23042676.604    23042671.710
        48.000          42.000
  21478311.761     9898817.29743   7720285.68342  21478314.084    21478309.574
        54.000          46.000
  22859371.317    -8114709.13343  -6312190.10242  22859373.801    22859372.301
        49.000          43.000
  21023389.752       58537.46643     46551.02942  21023390.865    21023385.833
        56.000          49.000
 03  6 27 16 14 40.0000000  0  9G21G18G16G15G 6G29G26G23G17
  20690854.505    11290269.17944   8799886.09642  20690855.664    20690849.307
        57.000          50.000
  21023324.240     6567627.19244   5124470.44642  21023325.700    21023320.450
        57.000          50.000
  23315850.141    10207706.06243   7957787.44542  23315852.031    23315847.335
        48.000          41.000
  22413585.621     6751759.76543   5271463.98342  22413586.297    22413583.574
        50.000          44.000
  20662702.100    15455147.75744  12044320.63342  20662703.551    20662699.300
        57.000          50.000
  23047611.657    14602062.02143  11383302.44342  23047613.470    23047608.569
        50.000          42.000
  21477511.107     9894617.16843   7717012.87242  21477514.055    21477511.295
        53.000          46.000
  22849495.117    -8166614.42043  -6352635.69842  22849496.765    22849495.869
        50.000          43.000
  21025466.926       69454.03243     55057.44042  21025467.987    21025462.930
        56.000          49.000
 03  6 27 16 15  0.0000000  0  9G21G18G16G15G 6G29G26G23G17
  20689324.825    11282229.69644   8793621.55942  20689325.963    20689319.773
        57.000          50.000
  21016880.812     6533774.29743   5098091.59142  21016882.934    21016878.217
        56.000          49.000
  23315044.991    10203465.71843   7954483.26442  23315047.509    23315038.459
        50.000          41.000
  22405467.552     6709089.18543   5238214.18642  22405468.416    22405464.847
        51.000          44.000
  20668492.473    15485581.94944  12068035.54242  20668494.727    20668490.345
        57.000          50.000
  23052587.241    14628222.35343  11403687.11542  23052590.192    23052585.799
        48.000          42.000
  21476768.631     9890706.43043   7713965.55842  21476770.211    21476766.821
        53.000          46.000
  22839642.494    -8218386.48343  -6392977.48742  22839643.657    22839643.426
        50.000          43.000
  21027558.270       80444.51043     63621.44342  21027559.454    21027554.585
        56.000          49.000
 03  6 27 16 15 20.0000000  0  9G21G18G16G15G 6G29G26G23G17
  20687811.075    11274278.29644   8787425.66542  20687812.871    20687806.471
        57.000          50.000
  21010474.887     6500107.93043   5071858.08842  21010476.257    21010472.062
        56.000          49.000
  23314281.445    10199465.62843   7951366.28442  23314284.541    23314278.829
        49.000          41.000
  22397354.987     6666462.52943   5204998.61142  22397357.111    22397352.146
        52.000          44.000
  20674325.446    15516231.84144  12091918.52442  20674327.143    20674322.586
        57.000          50.000
  23057609.174    14654613.84943  11424251.90442  23057612.674    23057609.608
        49.000          43.000
  21476080.170     9887089.70743   7711147.34442  21476082.140    21476077.240
        53.000          46.000
  22829816.753    -8270020.50943  -6433211.73342  22829818.222    22829817.818
        50.000          43.000
  21029664.140       91513.52643     72246.64842  21029665.491    21029661.270
        55.000          49.000
 03  6 27 16 15 40.0000000  0  9G21G18G16G15G 6G29G26G23G17
  20686314.411    11266410.87643   8781295.20342  20686315.859    20686309.262
        56.000          50.000
  21004103.925     6466624.29044   5045766.96942  21004105.293    21004100.622
        57.000          50.000
  23313566.881    10195701.61343   7948433.27642  23313568.960    23313562.811
        50.000          41.000
  22389251.517     6623875.76643   5171814.12242  22389253.376    22389248.632
        52.000          45.000
  20680198.418    15547093.26444  12115966.34342  20680200.028    20680195.552
        57.000          50.000
  23062675.928    14681232.10243  11444993.39042  23062677.023    23062674.608
        50.000          43.000
  21475446.041     9883763.22043   7708555.27942  21475448.682    21475445.465
        53.000          46.000
  22820017.091    -8321520.18343  -6473341.28542  22820017.168    22820017.902
        49.000          43.000
  21031785.051      102657.16143     80929.99342  21031786.065    21031782.476
        56.000          49.000
 03  6 27 16 16  0.0000000  0  9G21G18G16G15G 6G29G26G23G17
  20684832.980    11258628.71643   8775231.17342  20684834.571    20684828.106
        56.000          50.000
  20997766.624     6433324.43444   5019819.05142  20997768.553    20997762.868
        57.000          49.000
  23312894.402    10192174.59643   7945684.94742  23312896.823    23312891.325
        49.000          41.000
  22381154.904     6581330.01743   5138661.61242  22381156.598    22381152.788
        52.000          45.000
  20686110.978    15578167.04544  12140179.63542  20686113.030    20686108.779
        57.000          50.000
  23067783.953    14708077.73243  11465912.06642  23067785.585    23067781.661
        50.000          43.000
  21474869.890     9880728.23843   7706190.37242  21474871.836    21474868.237
        53.000          46.000
  22810241.290    -8372884.25143  -6513365.15242  22810243.420    22810243.183
        49.000          42.000
  21033919.669      113876.56543     89672.37142  21033921.015    21033917.045
        55.000          49.000
 03  6 27 16 16 20.0000000  0  9G21G18G16G15G 6G29G26G23G17
  20683368.673    11250931.79743   8769233.55942  20683370.127    20683363.825
        56.000          50.000
  20991464.680     6400208.58244   4994014.51742  20991466.424    20991461.621
        57.000          49.000
  23312269.349    10188884.42743   7943121.14442  23312268.116    23312264.032
        49.000          41.000
  22373065.493     6538825.39843   5105541.15442  22373068.107    22373064.552
        51.000          44.000
  20692064.735    15609453.02444  12164558.28442  20692066.386    20692063.055
        57.000          50.000
  23072935.787    14735150.53943  11487007.76242  23072938.325    23072934.046
        51.000          43.000
  21474346.808     9877984.79143   7704052.63242  21474349.274    21474345.789
        53.000          46.000
  22800493.736    -8424112.36143  -6553283.11942  22800495.712    22800494.975
        50.000          43.000
  21036068.666      125171.36243     98473.49842  21036069.999    21036066.056
        55.000          48.000
 03  6 27 16 16 40.0000000  0  9G21G18G16G15G 6G29G26G23G17
  20681920.659    11243320.78044   8763302.88642  20681921.881    20681916.127
        57.000          50.000
  20985197.795     6367277.37643   4968353.85942  20985200.115    20985194.701
        56.000          49.000
  23311687.786    10185831.63443   7940742.31542  23311690.157    23311683.235
        48.000          42.000
  22364985.585     6496362.58043   5072453.27142  22364987.182    22364982.913
        51.000          44.000
  20698058.555    15640951.55744  12189102.54842  20698060.680    20698057.049
        57.000          50.000
  23078131.161    14762450.60143  11508280.55042  23078133.749    23078128.479
        50.000          42.000
  21473880.736     9875533.96943   7702142.91642  21473883.163    21473878.736
        54.000          46.000
  22790771.310    -8475203.65143  -6593094.46542  22790772.592    22790771.690
        50.000          43.000
  21038233.300      136542.75343    107334.30542  21038233.892    21038229.998
        55.000          48.000
 03  6 27 16 17  0.0000000  0  9G21G18G16G15G 6G29G26G23G17
  20680488.679    11235796.92444   8757440.13642  20680490.035    20680484.018
        57.000          50.000
  20978967.249     6334531.86344   4942837.88942  20978969.123    20978963.665
        57.000          50.000
  23311151.351    10183016.96143   7938549.03442  23311152.863    23311148.346
        47.000          41.000
  22356912.128     6453942.55043   5039398.73542  22356913.915    22356910.411
        50.000          43.000
  20704093.422    15672663.35744  12213812.99242  20704095.450    20704091.342
        57.000          50.000
  23083369.614    14789978.71043  11529731.02242  23083371.518    23083366.082
        50.000          42.000
  21473470.906     9873376.76443   7700461.98042  21473472.855    21473468.801
        54.000          46.000
  22781075.885    -8526156.89743  -6632798.23142  22781076.619    22781075.203
        49.000          43.000
  21040412.379      147991.79243    116255.61742  21040413.137    21040408.687
        56.000          48.000
 03  6 27 16 17 20.0000000  0  9G21G18G16G15G 6G29G26G23G17
  20679073.510    11228358.82644   8751644.20642  20679074.911    20679068.175
        57.000          50.000
  20972770.330     6301970.99044   4917465.80442  20972772.500    20972767.224
        57.000          50.000
  23310661.602    10180439.02343   7936540.19942  23310663.745    23310656.882
        46.000          40.000
  22348849.223     6411564.20843   5006376.66242  22348849.053    22348845.951
        50.000          43.000
  20710167.928    15704586.99444  12238688.51042  20710170.290    20710165.658
        57.000          50.000
  23088650.273    14817733.05043  11551357.77842  23088653.423    23088646.396
        49.000          41.000
  21473114.530     9871512.05243   7699008.97242  21473117.467    21473114.359
        53.000          46.000
  22771404.424    -8576973.17643  -6672395.24842  22771406.430    22771406.678
        48.000          43.000
  21042605.253      159517.07843    125236.34542  21042606.666    21042602.160
        55.000          49.000
 03  6 27 16 17 40.0000000  0  9G21G18G16G15G 6G29G26G23G17
  20677673.937    11221006.25244   8745914.91742  20677675.418    20677669.367
        57.000          50.000
  20966609.886     6269594.02244   4892237.02042  20966611.831    20966605.840
        57.000          50.000
  23310213.375    10178096.94243   7934715.15142  23310215.450    23310213.471
        45.000          40.000
  22340794.552     6369226.99443   4973386.62742  22340795.349    22340789.676
        52.000          44.000
  20716283.267    15736721.72044  12263728.51142  20716285.280    20716281.657
        57.000          50.000
  23093974.318    14845712.76443  11573160.17142  23093977.729    23093971.561
        48.000          41.000
  21472815.229     9869939.38643   7697783.53442  21472818.148    21472814.500
        53.000          46.000
  22761761.403    -8627652.66943  -6711885.69342  22761764.831    22761762.710
        49.000          43.000
  21044812.859      171118.16643    134276.16142  21044813.956    21044809.743
        56.000          49.000
 03  6 27 16 18  0.0000000  0  9G21G18G16G15G 6G29G26G23G17
  20676291.537    11213739.75744   8740252.69942  20676292.998    20676286.985
        57.000          50.000
  20960483.928     6237401.70344   4867152.11742  20960485.689    20960480.224
        57.000          50.000
  23309814.903    10175991.39743   7933074.42842  23309815.083    23309814.762
        46.000          40.000
  22332744.886     6326931.53043   4940429.13142  22332746.121    22332741.518
        53.000          45.000
  20722438.713    15769067.95044  12288933.33142  20722440.847    20722436.339
        57.000          50.000
  23099342.707    14873918.12743  11595138.40642  23099343.006    23099340.086
        48.000          41.000
  21472572.628     9868659.73843   7696786.40542  21472575.080    21472570.945
        54.000          46.000
  22752144.006    -8678194.49543  -6751268.87542  22752145.826    22752146.134
        49.000          43.000
  21047034.071      182795.69443    143375.52942  21047035.546    21047031.550
        55.000          48.000
 03  6 27 16 18 20.0000000  0  9G21G18G16G15G 6G29G26G23G17
  20674924.931    11206557.54444   8734656.16642  20674926.478    20674920.342
        57.000          50.000
  20954391.867     6205392.30543   4842209.75642  20954394.245    20954388.851
        56.000          50.000
  23309459.175    10174119.96543   7931616.14142  23309462.152    23309455.258
        48.000          40.000
  22324703.593     6284675.84343   4907502.63442  22324706.137    22324700.804
        53.000          45.000
  20728634.202    15801623.33744  12314301.12242  20728636.098    20728631.500
        57.000          50.000
  23104752.109    14902346.72943  11617290.56142  23104753.007    23104749.963
        49.000          41.000
  21472384.906     9867671.02043   7696015.98442  21472387.523    21472382.779
        54.000          46.000
  22742552.039    -8728600.49243  -6790546.21242  22742554.362    22742552.199
        50.000          44.000
  21049271.194      194547.74643    152532.95742  21049272.317    21049267.313
        55.000          48.000
 03  6 27 16 18 40.0000000  0  9G21G18G16G15G 6G29G26G23G17
  20673574.678    11199464.40044   8729129.04542  20673576.576    20673570.143
        57.000          50.000
  20948337.012     6173570.44544   4817413.52742  20948338.790    20948333.635
        57.000          50.000
  23309148.376    10172487.18943   7930343.83742  23309149.474    23309144.287
        48.000          40.000
  22316669.332     6242464.61443   4874610.80042  22316672.006    22316668.180
        52.000          45.000
  20734869.330    15834392.38444  12339835.39642  20734871.569    20734867.432
        57.000          50.000
  23110204.722    14931002.72643  11639619.88042  23110207.386    23110203.155
        49.000          41.000
  21472252.082     9866978.01743   7695476.00442  21472255.010    21472251.270
        53.000          46.000
  22732985.920    -8778865.77843  -6829713.88642  22732987.549    22732986.816
        49.000          44.000
  21051523.031      206379.02543    161752.12142  21051524.003    21051519.575
        56.000          48.000
 03  6 27 16 19  0.0000000  0  9G21G18G16G15G 6G29G26G23G17
  20672241.620    11192457.35344   8723669.00042  20672243.496    20672236.509
        57.000          50.000
  20942316.080     6141932.92943   4792760.95142  20942317.667    20942313.446
        56.000          50.000
  23308882.031    10171089.93743   7929255.03642  23308882.691    23308878.589
        47.000          40.000
  22308645.535     6200295.07443   4841751.42942  22308647.229    22308643.650
        51.000          45.000
  20741145.427    15867371.90544  12365533.67842  20741147.663    20741142.976
        57.000          50.000
  23115701.430    14959882.81143  11662123.83542  23115703.343    23115699.210
        49.000          42.000
  21472176.497     9866577.89343   7695164.23942  21472179.152    21472175.088
        53.000          46.000
  22723448.068    -8828992.97243  -6868773.97842  22723449.110    22723448.151
        50.000          44.000
  21053788.464      218286.85743    171030.95342  21053789.329    21053785.307
        56.000          49.000
 03  6 27 16 19 20.0000000  0  9G21G18G16G15G 6G29G26G23G17
  20670925.030    11185538.15244   8718277.39842  20670926.385    20670920.202
        57.000          50.000
  20936331.492     6110481.84444   4768253.64042  20936332.953    20936327.735
        57.000          50.000
  23308662.086    10169929.70343   7928350.92942  23308664.249    23308659.025
        47.000          40.000
  22300629.563     6158168.92943   4808925.88242  22300629.964    22300626.849
        50.000          44.000
  20747461.394    15900563.24844  12391397.02042  20747463.227    20747459.092
        57.000          50.000
  23121237.986    14988988.35743  11684803.50742  23121241.134    23121237.846
        49.000          42.000
  21472156.041     9866472.53743   7695082.15942  21472158.363    21472155.111
        53.000          46.000
  22713935.216    -8878980.25543  -6907725.02542  22713935.500    22713935.883
        49.000          43.000
  21056069.218      230272.70143    180370.56442  21056070.431    21056066.221
        55.000          49.000
 03  6 27 16 19 40.0000000  0  9G21G18G16G15G 6G29G26G23G17
  20669624.255    11178702.41844   8712950.84742  20669625.740    20669619.132
        57.000          50.000
  20930380.843     6079212.99643   4743888.32742  20930382.652    20930377.339
        56.000          50.000
  23308485.917    10169001.92343   7927627.98942  23308487.189    23308480.466
        47.000          39.000
  22292619.945     6116081.78243   4776130.74342  22292620.789    22292618.330
        50.000          44.000
  20753817.172    15933961.87544  12417421.88142  20753819.298    20753815.645
        57.000          50.000
  23126820.972    15018314.47943  11707655.04642  23126822.637    23126818.510
        50.000          43.000
  21472191.462     9866657.71743   7695226.46642  21472193.957    21472189.924
        53.000          46.000
  22704448.848    -8928831.72043  -6946570.25442  22704450.761    22704448.584
        50.000          43.000
  21058364.355      242332.45443    189767.76342  21058365.834    21058361.252
        56.000          49.000
 03  6 27 16 20  0.0000000  0  9G21G18G16G15G 6G29G26G23G17
  20668339.512    11171954.87944   8707693.01842  20668341.653    20668335.042
        57.000          50.000
  20924466.447     6048130.68944   4719668.37142  20924468.009    20924463.009
        57.000          50.000
  23308353.464    10168310.78343   7927089.40542  23308356.186    23308351.735
        47.000          39.000
  22284620.853     6074038.18743   4743369.51942  22284622.050    22284617.576
        51.000          44.000
  20760213.087    15967571.97044  12443611.52342  20760215.014    20760211.001
        57.000          50.000
  23132443.351    15047865.26443  11730681.62542  23132445.020    23132442.538
        49.000          43.000
  21472283.688     9867137.82843   7695600.59642  21472285.394    21472281.157
        53.000          46.000
  22694988.881    -8978542.75443  -6985306.05142  22694990.660    22694989.576
        50.000          44.000
  21060674.387      254470.46843    199225.95442  21060675.677    21060670.690
        56.000          49.000
 03  6 27 16 20 20.0000000  0  9G21G18G16G15G 6G29G26G23G17
  20667071.951    11165291.54544   8702500.80142  20667073.518    20667066.867
        57.000          50.000
  20918586.119     6017231.08844   4695590.78042  20918588.391    20918583.550
        57.000          50.000
  23308266.422    10167852.10443   7926731.93342  23308267.990    23308263.334
        46.000          39.000
  22276627.290     6032034.30443   4710639.24942  22276628.620    22276624.003
        52.000          45.000
  20766647.692    16001389.23943  12469962.61742  20766649.553    20766646.264
        56.000          50.000
  23138109.651    15077636.31643  11753879.85942  23138111.475    23138106.978
        51.000          43.000
  21472428.856     9867909.08843   7696201.60142  21472430.758    21472428.841
        53.000          46.000
  22685556.122    -9028117.14143  -7023935.36242  22685557.200    22685556.389
        51.000          44.000
  21062998.691      266682.78943    208742.04942  21062999.400    21062994.814
        56.000          49.000
 03  6 27 16 20 40.0000000  0  9G21G18G16G15G 6G29G26G23G17
  20665821.823    11158720.12444   8697380.20742  20665823.390    20665816.593
        57.000          50.000
  20912742.788     5986521.79744   4671661.49042  20912744.234    20912739.593
        57.000          50.000
  23308226.200    10167633.23043   7926561.35542  23308226.533    23308221.233
        47.000          40.000
  22268643.874     5990077.64943   4677945.78542  22268644.944    22268639.740
        53.000          45.000
  20773124.275    16035420.98644  12496480.81642  20773125.967    20773122.371
        57.000          50.000
  23143817.551    15107634.67443  11777255.20442  23143820.391    23143815.527
        51.000          44.000
  21472632.495     9868979.13143   7697035.41142  21472634.487    21472631.941
        53.000          46.000
  22676148.873    -9077546.97243  -7062452.03742  22676151.376    22676149.859
        51.000          44.000
  21065337.967      278977.08543    218322.01242  21065339.027    21065334.122
        56.000          49.000
 03  6 27 16 21  0.0000000  0  9G21G18G16G15G 6G29G26G23G17
  20664587.539    11152232.88744   8692325.20742  20664589.193    20664582.103
        57.000          50.000
  20906933.819     5955994.79144   4647874.23842  20906935.468    20906930.137
        57.000          50.000
  23308226.853    10167646.16543   7926571.39642  23308228.672    23308224.905
        47.000          41.000
  22260666.442     5948160.42143   4645283.02142  22260668.664    22260663.143
        53.000          45.000
  20779639.596    16069659.15644  12523159.87542  20779641.253    20779637.066
        57.000          50.000
  23149566.694    15137852.17243  11800801.31842  23149569.661    23149566.139
        50.000          43.000
  21472892.639     9870340.29543   7698096.08342  21472894.092    21472890.499
        53.000          46.000
  22666768.547    -9126839.88643  -7100862.03542  22666770.035    22666768.303
        50.000          44.000
  21067690.556      291345.64643    227959.84442  21067692.156    21067688.526
        55.000          49.000
 03  6 27 16 21 20.0000000  0  9G21G18G16G15G 6G29G26G23G17
  20663370.085    11145836.13044   8687340.71742  20663371.426    20663365.439
        57.000          50.000
  20901160.097     5925656.72743   4624234.22042  20901161.799    20901157.150
        56.000          50.000
  23308277.022    10167896.90443   7926766.73942  23308278.347    23308273.208
        49.000          41.000
  22252697.217     5906288.92643   4612655.89342  22252699.835    22252694.764
        52.000          44.000
  20786194.827    16104109.83644  12550004.51542  20786196.572    20786192.848
        57.000          50.000
  23155358.729    15168294.65643  11824522.74842  23155362.010    23155359.668
        49.000          43.000
  21473207.365     9871998.82843   7699388.46942  21473209.267    21473206.368
        53.000          46.000
  22657416.171    -9175989.40243  -7139160.27542  22657418.098    22657416.292
        50.000          44.000
  21070059.829      303794.69243    237660.39842  21070060.652    21070057.574
        55.000          49.000
 03  6 27 16 21 40.0000000  0  9G21G18G16G15G 6G29G26G23G17
  20662168.525    11139524.40244   8682422.48442  20662170.011    20662163.938
        57.000          50.000
  20895421.860     5895501.61943   4600736.76042  20895423.550    20895418.387
        56.000          50.000
  23308368.089    10168379.29843   7927142.59442  23308370.243    23308364.955
        50.000          42.000
  22244737.416     5864457.44443   4580059.94642  22244738.964    22244735.702
        51.000          44.000
  20792790.781    16138766.88044  12577009.95742  20792792.402    20792788.120
        57.000          50.000
  23161195.836    15198956.04043  11848414.72542  23161195.888    23161192.474
        49.000          42.000
  21473579.336     9873949.06743   7700908.14642  21473581.385    21473577.106
        53.000          46.000
  22648089.880    -9225001.07043  -7177351.11542  22648092.112    22648090.130
        51.000          44.000
  21072443.680      316318.75743    247419.40542  21072444.387    21072439.780
        55.000          48.000
 03  6 27 16 22  0.0000000  0  9G21G18G16G15G 6G29G26G23G17
  20660983.732    11133299.96544   8677572.27242  20660985.533    20660979.367
        57.000          50.000
  20889718.778     5865531.95243   4577383.80442  20889720.194    20889715.373
        56.000          50.000
  23308504.950    10169095.61943   7927700.74142  23308505.984    23308501.831
        49.000          41.000
  22236786.491     5822668.45643   4547497.11542  22236786.716    22236783.365
        52.000          45.000
  20799425.090    16173632.33544  12604177.81042  20799427.225    20799423.066
        57.000          50.000
  23167072.691    15229838.10043  11872478.67442  23167076.212    23167067.566
        48.000          41.000
  21474005.758     9876193.53043   7702657.09842  21474007.969    21474004.213
        53.000          46.000
  22638789.220    -9273872.27243  -7215432.49342  22638790.862    22638790.598
        51.000          44.000
  21074841.350      328920.21843    257238.71042  21074842.424    21074837.475
        55.000          48.000
 03  6 27 16 22 20.0000000  0  9G21G18G16G15G 6G29G26G23G17
  20659816.959    11127164.36044   8672791.27042  20659818.491    20659812.061
        57.000          50.000
  20884051.206     5835749.22143   4554176.50742  20884052.914    20884047.947
        56.000          50.000
  23308683.597    10170047.07543   7928442.11842  23308686.489    23308680.327
        48.000          41.000
  22228841.513     5780923.54543   4514968.63542  22228842.974    22228840.047
        51.000          45.000
  20806099.169    16208707.46043  12631509.04142  20806101.406    20806097.733
        56.000          50.000
  23172991.074    15260941.96443  11896715.45542  23172991.776    23172987.682
        49.000          41.000
  21474490.245     9878733.58043   7704636.37542  21474490.711    21474487.847
        53.000          46.000
  22629515.774    -9322601.31043  -7253403.09642  22629517.235    22629515.006
        50.000          43.000
  21077255.040      341600.76243    267119.64542  21077255.480    21077251.265
        56.000          49.000
 03  6 27 16 22 40.0000000  0  9G21G18G16G15G 6G29G26G23G17
  20658666.451    11121116.79544   8668078.87142  20658667.699    20658660.871
        57.000          50.000
  20878418.937     5806152.44043   4531114.10442  20878420.832    20878416.208
        56.000          50.000
  23308910.036    10171232.61443   7929365.88942  23308911.512    23308906.549
        48.000          40.000
  22220906.396     5739221.83743   4482473.83242  22220908.195    22220904.192
        51.000          44.000
  20812814.327    16243991.00844  12659002.67442  20812816.317    20812812.156
        57.000          50.000
  23178950.776    15292266.07243  11921123.83342  23178955.084    23178947.776
        48.000          41.000
  21475029.874     9881568.43343   7706845.38742  21475031.214    21475027.368
        54.000          46.000
  22620270.174    -9371188.99643  -7291263.54142  22620271.691    22620270.176
        50.000          43.000
  21079682.951      354359.28743    277061.34742  21079684.135    21079679.743
        56.000          49.000
 03  6 27 16 23  0.0000000  0  9G21G18G16G15G 6G29G26G23G17
  20657531.504    11115156.37644   8663434.38042  20657533.420    20657526.383
        57.000          50.000
  20872822.279     5776740.81343   4508195.99342  20872823.988    20872819.237
        56.000          50.000
  23309177.973    10172650.83643   7930470.94342  23309182.821    23309175.850
        46.000          39.000
  22212979.172     5697562.31543   4450011.88642  22212979.816    22212975.579
        51.000          44.000
  20819567.015    16279481.65243  12686657.68042  20819569.410    20819565.603
        56.000          50.000
  23184954.801    15323809.15243  11945702.89342  23184956.721    23184950.370
        50.000          41.000
  21475623.703     9884697.05443   7709283.29042  21475626.068    21475622.125
        53.000          46.000
  22611051.137    -9419636.16843  -7329014.49742  22611051.995    22611051.856
        51.000          44.000
  21082124.580      367194.86843    287063.09742  21082126.301    21082121.795
        55.000          49.000
 03  6 27 16 23 20.0000000  0  9G21G18G16G15G 6G29G26G23G17
  20656414.500    11109285.83544   8658859.92842  20656416.328    20656409.344
        57.000          50.000
  20867260.745     5747516.78643   4485424.04842  20867262.790    20867257.803
        56.000          50.000
  23309493.941    10174304.23643   7931759.27042  23309494.351    23309488.974
        45.000          38.000
  22205060.491     5655947.79743   4417585.02642  22205061.666    22205057.281
        52.000          44.000
  20826361.032    16315181.81943  12714475.94342  20826362.742    20826359.709
        56.000          50.000
  23190996.970    15355573.45943  11970454.31042  23191002.809    23190996.121
        49.000          41.000
  21476275.949     9888122.24743   7711952.29542  21476277.782    21476273.731
        53.000          46.000
  22601859.099    -9467939.83643  -7366653.64742  22601860.198    22601859.141
        50.000          43.000
  21084582.466      380110.28343    297127.04842  21084583.310    21084578.983
        55.000          48.000
 03  6 27 16 23 40.0000000  0  9G21G18G16G15G 6G29G26G23G17
  20655314.277    11103500.91644   8654352.19142  20655315.932    20655309.174
        57.000          50.000
  20861735.077     5718476.12144   4462794.98542  20861736.738    20861731.072
        57.000          50.000
  23309852.392    10176187.87943   7933227.04542  23309853.844    23309849.725
        46.000          39.000
  22197148.145     5614373.83043   4385189.74342  22197150.000    22197146.055
        51.000          44.000
  20833193.519    16351086.72244  12742453.75842  20833195.387    20833191.873
        57.000          50.000
  23197083.199    15387553.87943  11995374.13242  23197085.390    23197083.261
        49.000          42.000
  21476984.148     9891839.50943   7714848.88342  21476986.078    21476981.713
        54.000          46.000
  22592693.131    -9516104.47443  -7404184.48142  22592695.155    22592694.349
        50.000          43.000
  21087054.744      393100.86343    307249.56642  21087055.879    21087051.050
        55.000          48.000
 03  6 27 16 24  0.0000000  0  9G21G18G16G15G 6G29G26G23G17
  20654230.010    11097806.85444   8649915.24842  20654231.857    20654225.402
        57.000          50.000
  20856244.062     5689624.04443   4440312.86442  20856246.028    20856241.174
        56.000          50.000
  23310253.027    10178306.82743   7934878.14142  23310253.244    23310254.605
        44.000          38.000
  22189245.718     5572845.69843   4352830.18242  22189247.012    22189242.636
        52.000          44.000
  20840065.929    16387201.29344  12770594.95542  20840067.897    20840064.345
        57.000          50.000
  23203211.218    15419755.19643  12020466.07842  23203216.196    23203209.431
        50.000          42.000
  21477746.872     9895853.99443   7717977.06942  21477749.363    21477745.377
        53.000          46.000
  22583556.956    -9564124.51143  -7441602.60942  22583557.768    22583555.574
        51.000          43.000
  21089542.670      406172.29043    317435.07842  21089543.019    21089539.200
        55.000          48.000
 03  6 27 16 24 20.0000000  0  9G21G18G16G15G 6G29G26G23G17
  20653163.477    11092202.06044   8645547.86642  20653164.931    20653158.947
        57.000          50.000
  20850789.419     5660958.74244   4417976.28942  20850791.658    20850786.474
        57.000          50.000
  23310703.689    10180658.99843   7936710.99442  23310702.179    23310697.572
        45.000          38.000
  22181352.397     5531361.68743   4320504.98442  22181353.264    22181348.441
        53.000          45.000
  20846977.877    16423523.47544  12798897.91342  20846979.564    20846976.098
        57.000          50.000
  23209379.876    15452175.28943  12045728.49942  23209383.297    23209379.796
        49.000          42.000
  21478567.370     9900164.20243   7721335.70542  21478569.222    21478565.737
        53.000          46.000
  22574445.614    -9612001.42643  -7478909.21842  22574447.499    22574443.931
        50.000          43.000
  21092044.371      419323.07743    327682.44042  21092045.847    21092042.283
        55.000          48.000
 03  6 27 16 24 40.0000000  0  9G21G18G16G15G 6G29G26G23G17
  20652112.876    11086683.10543   8641247.37542  20652114.724    20652108.522
        56.000          50.000
  20845369.486     5632476.72944   4395782.54142  20845371.547    20845366.201
        57.000          50.000
  23311196.175    10183240.70043   7938722.71942  23311196.414    23311190.576
        45.000          38.000
  22173466.192     5489918.45943   4288211.56042  22173467.429    22173462.358
        53.000          45.000
  20853928.581    16460049.60943  12827359.79242  20853930.468    20853926.803
        56.000          50.000
  23215592.019    15484810.18543  12071158.28542  23215593.789    23215589.042
        50.000          43.000
  21479443.850     9904766.47643   7724921.91742  21479445.601    21479441.224
        53.000          46.000
  22565360.068    -9659738.57543  -7516106.90742  22565363.096    22565361.413
        50.000          43.000
  21094561.571      432549.60643    337988.81942  21094562.445    21094558.297
        55.000          48.000
 03  6 27 16 25  0.0000000  0  9G21G18G16G15G 6G29G26G23G17
  20651079.272    11081250.49744   8637014.17242  20651080.697    20651074.566
        57.000          50.000
  20839984.930     5604178.65644   4373732.11442  20839986.610    20839981.431
        57.000          50.000
  23311730.537    10186052.18543   7940913.43442  23311733.826    23311727.155
        45.000          38.000
  22165587.137     5448516.52443   4255950.33242  22165588.457    22165585.092
        53.000          45.000
  20860917.881    16496779.84943  12855980.71242  20860920.260    20860916.369
        56.000          50.000
  23221842.817    15517659.99943  12096755.55442  23221844.567    23221840.147
        50.000          43.000
  21480374.019     9909661.35143   7728736.11542  21480376.664    21480373.100
        53.000          46.000
  22556304.407    -9707335.25643  -7553195.15442  22556305.632    22556302.870
        50.000          43.000
  21097092.911      445852.29843    348354.54242  21097094.231    21097089.624
        55.000          48.000
 03  6 27 16 25 20.0000000  0  9G21G18G16G15G 6G29G26G23G17
  20650063.846    11075911.33044   8632853.77342  20650065.274    20650058.775
        57.000          50.000
  20834636.476     5576071.12844   4351830.16242  20834638.118    20834632.638
        57.000          50.000
  23312310.721    10189099.97843   7943288.31942  23312313.697    23312305.910
        46.000          38.000
  22157717.558     5407162.69743   4223726.59142  22157719.239    22157715.444
        52.000          45.000
  20867948.904    16533720.53344  12884765.61942  20867950.238    20867945.676
        57.000          50.000
  23228135.526    15550730.82543  12122525.06042  23228137.503    23228133.154
        49.000          43.000
  21481362.639     9914855.56543   7732783.56742  21481364.822    21481361.079
        53.000          46.000
  22547275.270    -9754784.53843  -7590168.54042  22547276.405    22547274.236
        51.000          43.000
  21099640.931      459238.21443    358785.11042  21099641.580    21099636.693
        55.000          48.000
 03  6 27 16 25 40.0000000  0  9G21G18G16G15G 6G29G26G23G17
  20649063.822    11070658.69044   8628760.79642  20649065.290    20649059.372
        57.000          50.000
  20829322.739     5548147.29444   4330071.35342  20829324.480    20829318.950
        57.000          50.000
  23312933.194    10192376.77043   7945841.62542  23312937.912    23312930.833
        46.000          39.000
  22149856.366     5365850.09943   4191534.98042  22149857.763    22149853.994
        52.000          45.000
  20875015.621    16570864.56244  12913708.98442  20875017.980    20875014.374
        57.000          50.000
  23234469.719    15584015.50643  12148461.19042  23234472.970    23234466.252
        50.000          43.000
  21482408.214     9920342.38543   7737059.03842  21482409.705    21482404.814
        54.000          46.000
  22538271.394    -9802093.10643  -7627032.28442  22538274.195    22538269.963
        50.000          43.000
  21102200.712      472700.38143    369275.09742  21102202.682    21102199.068
        55.000          48.000
 03  6 27 16 26  0.0000000  0  9G21G18G16G15G 6G29G26G23G17
  20648081.596    11065497.05644   8624738.73942  20648083.317    20648076.794
        57.000          50.000
  20824044.454     5520411.49144   4308459.06442  20824046.123    20824040.491
        57.000          50.000
  23313603.958    10195886.74843   7948576.62842  23313604.179    23313599.680
        47.000          40.000
  22142002.279     5324583.28643   4159379.03942  22142003.911    22142000.412
        51.000          45.000
  20882123.364    16608215.97243  12942813.94442  20882125.177    20882122.389
        56.000          50.000
  23240843.784    15617517.86543  12174566.92442  23240846.076    23240841.592
        49.000          43.000
  21483507.415     9926126.06743   7741565.81542  21483510.151    21483505.940
        53.000          46.000
  22529296.130    -9849256.34443  -7663782.80942  22529298.689    22529295.608
        50.000          43.000
  21104777.718      486243.35843    379828.06142  21104779.252    21104776.267
        54.000          48.000
 03  6 27 16 26 20.0000000  0  9G21G18G16G15G 6G29G26G23G17
  20647116.508    11060423.72944   8620785.49642  20647117.966    20647111.504
        57.000          50.000
  20818801.568     5492860.93143   4286991.12842  20818803.482    20818798.212
        56.000          50.000
  23314313.301    10199626.61843   7951490.77042  23314316.442    23314311.341
        46.000          40.000
  22134158.879     5283359.42743   4127256.58442  22134159.989    22134156.133
        52.000          45.000
  20889270.462    16645771.50743  12972077.95442  20889272.346    20889268.994
        56.000          50.000
  23247260.405    15651234.48243  12200839.60742  23247262.924    23247258.003
        49.000          43.000
  21484663.831     9932203.70943   7746301.66642  21484666.485    21484662.055
        53.000          46.000
  22520349.938    -9896277.06043  -7700422.27742  22520350.697    22520347.880
        51.000          44.000
  21107372.905      499864.31643    390441.77242  21107372.816    21107368.611
        56.000          48.000
 03  6 27 16 26 40.0000000  0  9G21G18G16G15G 6G29G26G23G17
  20646167.888    11055439.53844   8616901.70142  20646169.623    20646163.606
        57.000          50.000
  20813594.321     5465496.38744   4265668.13742  20813596.313    20813591.000
        57.000          50.000
  23315067.979    10203596.77743   7954584.37642  23315071.509    23315066.269
        46.000          41.000
  22126322.304     5242179.33543   4095168.20842  22126323.665    22126320.388
        52.000          45.000
  20896455.631    16683531.61943  13001501.38742  20896457.127    20896454.166
        56.000          49.000
  23253717.698    15685165.67343  12227279.47242  23253719.862    23253715.500
        48.000          42.000
  21485876.625     9938575.91343   7751267.03742  21485879.072    21485874.763
        53.000          46.000
  22511428.104    -9943154.37443  -7736949.97242  22511430.096    22511427.758
        51.000          44.000
  21109978.948      513564.04843    401116.88242  21109979.838    21109975.272
        56.000          48.000
 03  6 27 16 27  0.0000000  0  9G21G18G16G15G 6G29G26G23G17
  20645237.417    11050546.77044   8613089.14642  20645238.612    20645232.754
        57.000          50.000
  20808422.211     5438320.09243   4244491.82242  20808424.534    20808419.465
        56.000          50.000
  23315872.762    10207799.38043   7957859.05942  23315872.161    23315866.178
        48.000          40.000
  22118494.350     5201045.41243   4063115.81142  22118495.454    22118491.713
        52.000          45.000
  20903680.867    16721498.18443  13031085.67742  20903682.762    20903678.869
        56.000          49.000
  23260215.620    15719313.33243  12253888.03242  23260217.186    23260214.593
        48.000          42.000
  21487145.692     9945245.10843   7756463.83142  21487148.080    21487143.982
        53.000          46.000
  22502536.800    -9989885.73443  -7773363.95542  22502537.466    22502535.117
        52.000          44.000
  21112599.803      527344.84143    411855.15742  21112601.345    21112597.481
        55.000          48.000
 03  6 27 16 27 20.0000000  0  9G21G18G16G15G 6G29G26G23G17
  20644321.996    11045740.50544   8609344.00542  20644323.667    20644318.000
        57.000          50.000
  20803285.841     5411326.93043   4223458.22342  20803287.690    20803282.911
        56.000          50.000
  23316711.829    10212228.90743   7961310.61442  23316714.412    23316710.564
        47.000          41.000
  22110676.300     5159952.68743   4031095.51642  22110676.843    22110672.239
        53.000          45.000
  20910944.464    16759665.78543  13060826.62842  20910945.544    20910942.191
        56.000          50.000
  23266752.853    15753671.58743  12280660.69542  23266755.248    23266751.798
        47.000          42.000
  21488470.471     9952206.11943   7761888.00942  21488472.844    21488468.360
        53.000          46.000
  22493669.862   -10036476.04943  -7809668.01942  22493671.830    22493669.203
        52.000          44.000
  21115237.111      541201.81343    422652.78442  21115238.671    21115233.813
        55.000          48.000
 03  6 27 16 27 40.0000000  0  9G21G18G16G15G 6G29G26G23G17
  20643424.776    11041025.17244   8605669.71242  20643426.383    20643420.243
        57.000          50.000
  20798185.339     5384521.09743   4202570.59242  20798186.966    20798181.955
        56.000          50.000
  23317599.828    10216889.36743   7964942.09442  23317602.474    23317595.722
        46.000          40.000
  22102863.847     5118905.39743   3999110.62542  22102865.718    22102860.517
        53.000          45.000
  20918245.578    16798038.36543  13090727.30642  20918247.625    20918244.073
        56.000          50.000
  23273334.054    15788244.41643  12307600.54542  23273335.742    23273330.161
        48.000          42.000
  21489852.103     9959463.07643   7767542.79142  21489853.806    21489848.863
        53.000          46.000
  22484832.325   -10082920.90143  -7845858.73142  22484833.463    22484830.092
        53.000          45.000
  21117890.482      555139.29843    433513.15642  21117890.834    21117886.213
        56.000          48.000
 03  6 27 16 28  0.0000000  0  9G21G18G16G15G 6G29G26G23G17
  20642545.084    11036399.24244   8602065.08042  20642546.686    20642539.414
        57.000          50.000
  20793119.746     5357900.92844   4181827.63742  20793121.221    20793116.345
        57.000          50.000
  23318529.715    10221778.64343   7968751.89842  23318530.477    23318526.821
        46.000          40.000
  22095061.450     5077901.88343   3967159.83742  22095063.531    22095057.749
        53.000          45.000
  20925586.032    16836613.90743  13120786.13142  20925587.875    20925584.725
        56.000          49.000
  23279951.999    15823029.58443  12334705.84442  23279955.122    23279950.825
        47.000          42.000
  21491288.297     9967014.29743   7773426.88242  21491291.200    21491286.136
        54.000          46.000
  22476021.657   -10129221.77043  -7881937.24742  22476024.480    22476021.361
        53.000          45.000
  21120556.157      569155.80343    444435.10242  21120557.647    21120554.066
        55.000          48.000
 03  6 27 16 28 20.0000000  0  9G21G18G16G15G 6G29G26G23G17
  20641682.194    11031864.47944   8598531.48342  20641683.678    20641677.099
        57.000          50.000
  20788089.689     5331468.16843   4161230.70442  20788091.295    20788086.237
        56.000          50.000
  23319504.266    10226898.28843   7972741.23142  23319503.908    23319500.103
        45.000          39.000
  22087266.609     5036944.20143   3935244.77442  22087268.163    22087264.361
        52.000          45.000
  20932966.335    16875393.88243  13151004.25242  20932968.120    20932964.075
        56.000          49.000
  23286611.027    15858028.22043  12361977.51842  23286613.248    23286610.852
        48.000          42.000
  21492780.980     9974861.60143   7779541.68042  21492783.634    21492780.051
        53.000          46.000
  22467238.358   -10175376.71343  -7917902.05942  22467240.717    22467237.400
        53.000          45.000
  21123240.046      583253.05643    455419.95042  21123240.613    21123236.664
        55.000          48.000
 03  6 27 16 28 40.0000000  0  9G21G18G16G15G 6G29G26G23G17
  20640836.469    11027423.13644   8595070.68442  20640838.314    20640832.269
        57.000          50.000
  20783095.587     5305225.02843   4140781.54142  20783097.439    20783091.571
        56.000          50.000
  23320516.243    10232250.16943   7976911.48442  23320522.828    23320517.949
        42.000          38.000
  22079482.195     4996034.65043   3903367.22342  22079483.689    22079480.674
        51.000          45.000
  20940384.737    16914380.18443  13181383.14042  20940387.261    20940383.006
        56.000          49.000
  23293314.221    15893242.33243  12389417.10342  23293315.424    23293311.037
        49.000          42.000
  21494332.032     9983007.01943   7785888.77642  21494334.181    21494329.672
        53.000          46.000
  22458483.508   -10221383.38143  -7953751.34242  22458484.963    22458482.118
        52.000          44.000
  21125938.480      597433.32843    466469.50142  21125939.515    21125935.347
        56.000          49.000
 03  6 27 16 29  0.0000000  0  9G21G18G16G15G 6G29G26G23G17
  20640008.454    11023071.07444   8591679.47042  20640010.019    20640003.702
        57.000          50.000
  20778136.344     5279167.12843   4120476.71642  20778138.533    20778133.114
        56.000          50.000
  23321582.350    10237829.40943   7981258.91742  23321584.388    23321580.961
        43.000          38.000
  22071705.812     4955168.74343   3871523.67942  22071706.792    22071704.311
        52.000          45.000
  20947842.291    16953568.00843  13211919.06542  20947844.283    20947840.511
        56.000          49.000
  23300052.908    15928666.90543  12417020.67942  23300055.519    23300052.272
        49.000          41.000
  21495937.462     9991446.10943   7792464.70642  21495940.457    21495935.897
        53.000          46.000
  22449755.940   -10267246.11043  -7989488.47542  22449757.825    22449753.662
        51.000          44.000
  21128651.341      611692.10843    477580.22742  21128652.514    21128648.678
        55.000          48.000
 03  6 27 16 29 20.0000000  0  9G21G18G16G15G 6G29G26G23G17
  20639197.222    11018807.98744   8588357.57042  20639199.181    20639192.629
        57.000          50.000
  20773212.823     5253293.90943   4100315.79042  20773215.055    20773209.817
        56.000          50.000
  23322686.790    10243635.16943   7985782.82542  23322688.587    23322686.647
        44.000          38.000
  22063938.295     4914346.03643   3839713.78042  22063939.497    22063935.899
        53.000          46.000
  20955337.943    16992956.44843  13242611.31842  20955339.950    20955336.347
        56.000          49.000
  23306835.640    15964300.72843  12444787.28842  23306836.528    23306832.778
        50.000          41.000
  21497598.298    10000178.22443   7799268.97242  21497601.219    21497596.802
        53.000          46.000
  22441055.040   -10312965.19843  -8025113.65842  22441056.499    22441055.032
        50.000          44.000
  21131379.011      626029.20143    488751.97442  21131380.154    21131376.490
        55.000          48.000
 03  6 27 16 29 40.0000000  0  9G21G18G16G15G 6G29G26G23G17
  20638403.178    11014635.79844   8585106.50142  20638404.776    20638398.574
        57.000          50.000
  20768325.622     5227607.26044   4080300.24142  20768327.494    20768321.814
        57.000          50.000
  23323834.973    10249669.28643   7990484.67142  23323836.008    23323833.591
        44.000          39.000
  22056177.383     4873568.68443   3807939.22642  22056179.203    22056175.937
        52.000          46.000
  20962872.134    17032547.23444  13273461.24542  20962874.052    20962870.220
        57.000          50.000
  23313656.925    16000145.40143  12472718.21642  23313660.864    23313654.606
        50.000          42.000
  21499316.705    10009205.35043   7806303.11042  21499319.007    21499314.631
        53.000          46.000
  22432382.036   -10358538.46343  -8060625.21542  22432384.653    22432382.447
        50.000          44.000
  21134122.682      640446.67643    499986.35842  21134123.969    21134120.126
        55.000          48.000
 03  6 27 16 30  0.0000000  0  9G21G18G16G15G 6G29G26G23G17
  20637626.315    11010554.71944   8581926.43242  20637628.368    20637621.975
        57.000          50.000
  20763472.635     5202107.27444   4060430.14442  20763474.476    20763469.583
        57.000          50.000
  23325028.212    10255931.41243   7995364.22442  23325029.459    23325024.222
        46.000          40.000
  22048426.613     4832836.75743   3776200.08542  22048428.183    22048423.950
        52.000          45.000
  20970444.765    17072340.00344  13304468.55842  20970446.593    20970442.478
        57.000          50.000
  23320516.486    16036200.48343  12500813.08842  23320520.236    23320515.461
        50.000          42.000
  21501091.462    10018527.43743   7813567.08842  21501093.252    21501089.708
        53.000          46.000
  22423738.244   -10403965.73743  -8096023.02942  22423740.950    22423739.239
        51.000          44.000
  21136882.830      654944.64943    511283.46042  21136883.474    21136878.861
        55.000          48.000
 03  6 27 16 30 20.0000000  0  9G21G18G16G15G 6G29G26G23G17
  20636867.564    11006565.86144   8578818.21742  20636869.256    20636862.831
        57.000          50.000
  20758656.279     5176794.78343   4040706.14242  20758657.901    20758652.435
        56.000          50.000
  23326263.465    10262422.07443   8000421.84342  23326264.157    23326260.953
        47.000          40.000
  22040684.080     4792151.36043   3744497.20042  22040685.794    22040681.402
        52.000          45.000
  20978054.864    17112335.35843  13335633.72342  20978056.973    20978053.274
        56.000          50.000
  23327418.863    16072466.42843  12529072.28042  23327419.810    23327416.202
        49.000          41.000
  21502921.390    10028145.30043   7821061.55142  21502923.574    21502918.390
        53.000          46.000
  22415121.739   -10449245.90943  -8131306.20542  22415123.758    22415121.663
        51.000          44.000
  21139657.385      669524.35043    522644.24242  21139658.254    21139653.118
        55.000          48.000
 03  6 27 16 30 40.0000000  0  9G21G18G16G15G 6G29G26G23G17
  20636125.098    11002663.12044   8575777.11242  20636126.808    20636120.202
        57.000          50.000
  20753873.584     5151663.58543   4021123.42742  20753875.749    20753870.114
        56.000          50.000
  23327541.017    10269134.66443   8005652.38342  23327542.773    23327536.386
        48.000          40.000
  22032950.153     4751506.41443   3712825.82742  22032951.699    22032947.490
        53.000          45.000
  20985702.965    17152526.62843  13366951.55042  20985705.051    20985701.478
        56.000          49.000
  23334357.807    16108936.34943  12557490.41142  23334361.202    23334354.985
        49.000          41.000
  21504805.550    10038052.63543   7828781.56842  21504808.392    21504803.737
        53.000          46.000
  22406533.143   -10494385.13043  -8166479.55342  22406534.999    22406531.828
        52.000          45.000
  21142445.014      684179.85243    534064.10542  21142446.365    21142441.989
        55.000          48.000
 03  6 27 16 31  0.0000000  0  9G21G18G16G15G 6G29G26G23G17
  20635399.869    10998854.94044   8572809.68842  20635401.881    20635395.895
        57.000          50.000
  20749126.964     5126722.06443   4001688.49842  20749128.908    20749123.932
        56.000          50.000
  23328862.245    10276077.22343   8011062.12642  23328863.437    23328856.682
        47.000          39.000
  22025225.744     4710910.45043   3681192.61842  22025226.768    22025222.359
        53.000          45.000
  20993389.979    17192921.86243  13398428.32042  20993391.851    20993388.067
        56.000          49.000
  23341339.887    16145618.24843  12586073.71342  23341340.029    23341334.781
        49.000          41.000
  21506747.985    10048257.80343   7836733.65642  21506750.499    21506746.223
        53.000          46.000
  22397971.441   -10539374.75743  -8201536.32742  22397973.120    22397969.957
        52.000          44.000
  21145250.865      698919.18643    545549.27642  21145251.600    21145247.759
        55.000          48.000
 03  6 27 16 31 20.0000000  0  9G21G18G16G15G 6G29G26G23G17
  20634692.736    10995138.47344   8569913.74042  20634693.990    20634688.606
        57.000          50.000
  20744416.418     5101966.96943   3982398.84142  20744418.277    20744413.438
        56.000          50.000
  23330225.338    10283246.43543   8016648.49542  23330228.402    23330223.151
        47.000          39.000
  22017506.962     4670360.28643   3649595.09542  22017509.966    22017506.432
        52.000          45.000
  21001115.728    17233517.60443  13430061.32642  21001117.336    21001113.815
        56.000          49.000
  23348358.926    16182508.41443  12614819.31342  23348358.904    23348356.225
        49.000          42.000
  21508746.757    10058757.47843   7844915.23242  21508748.531    21508744.561
        53.000          46.000
  22389437.526   -10584217.76543  -8236478.87642  22389439.748    22389434.793
        52.000          44.000
  21148069.637      713739.34843    557097.42942  21148070.983    21148067.992
        54.000          48.000
 03  6 27 16 31 40.0000000  0  9G21G18G16G15G 6G29G26G23G17
  20634003.459    10991512.43644   8567088.25142  20634004.696    20633998.144
        57.000          50.000
  20739740.890     5077396.93743   3963253.38342  20739742.626    20739737.401
        56.000          50.000
  23331634.617    10290640.34443   8022409.93542  23331636.178    23331628.357
        47.000          39.000
  22009801.467     4629854.69743   3618032.30242  22009801.451    22009797.813
        52.000          45.000
  21008878.316    17274312.19943  13461849.27042  21008880.503    21008877.099
        56.000          49.000
  23355417.382    16219605.08543  12643725.79342  23355419.440    23355415.263
        48.000          41.000
  21510799.388    10069550.20843   7853325.15942  21510801.825    21510797.542
        53.000          46.000
  22380932.679   -10628915.30943  -8271308.07442  22380934.519    22380929.799
        51.000          44.000
  21150905.460      728639.11243    568707.61042  21150906.604    21150902.374
        54.000          48.000
 03  6 27 16 32  0.0000000  0  9G21G18G16G15G 6G29G26G23G17
  20633331.067    10987978.14644   8564334.24042  20633332.397    20633325.441
        57.000          50.000
  20735100.938     5053013.00643   3944252.93042  20735102.873    20735097.465
        56.000          50.000
  23333083.723    10298259.95043   8028347.24042  23333086.719    23333078.339
        47.000          38.000
  22002101.261     4589395.05643   3586505.30442  22002102.430    22002099.302
        52.000          45.000
  21016679.077    17315306.48843  13493792.82542  21016681.138    21016677.632
        56.000          49.000
  23362515.682    16256908.82443  12672793.63342  23362516.846    23362513.693
        47.000          41.000
  21512910.761    10080637.17543   7861964.36942  21512912.244    21512907.764
        53.000          46.000
  22372454.164   -10673466.03443  -8306022.85742  22372456.460    22372453.501
        50.000          44.000
  21153756.899      743619.78843    580380.83942  21153758.362    21153753.307
        55.000          48.000
 03  6 27 16 32 20.0000000  0  9G21G18G16G15G 6G29G26G23G17
  20632676.319    10984540.08944   8561655.22342  20632677.943    20632671.773
        57.000          50.000
  20730496.668     5028819.63643   3925400.97642  20730498.227    20730493.519
        56.000          50.000
  23334577.347    10306109.15643   8034463.49042  23334577.542    23334568.570
        47.000          38.000
  21994411.701     4548985.75643   3555017.54142  21994413.070    21994409.633
        53.000          45.000
  21024518.875    17356504.42743  13525895.07342  21024520.681    21024517.091
        56.000          49.000
  23369656.025    16294423.39143  12702025.74342  23369658.473    23369654.038
        47.000          41.000
  21515075.825    10092022.47943   7870836.05442  21515078.641    21515074.293
        53.000          46.000
  22364004.924   -10717865.49343  -8340619.78042  22364006.345    22364004.008
        51.000          44.000
  21156623.339      758685.83043    592120.59642  21156624.735    21156620.331
        55.000          48.000
 03  6 27 16 32 40.0000000  0  9G21G18G16G15G 6G29G26G23G17
  20632038.560    10981187.00744   8559042.42142  20632039.811    20632033.656
        57.000          50.000
  20725927.183     5004805.41043   3906688.61942  20725929.056    20725924.017
        56.000          50.000
  23336114.711    10314176.20843   8040749.46442  23336114.931    23336109.825
        47.000          38.000
  21986729.290     4508615.49143   3523560.19642  21986730.883    21986727.671
        52.000          45.000
  21032395.500    17397894.13243  13558146.75242  21032397.089    21032393.548
        56.000          49.000
  23376832.790    16332136.84943  12731412.84842  23376834.423    23376829.845
        48.000          42.000
  21517298.404    10103694.62543   7879931.24642  21517300.544    21517295.063
        54.000          46.000
  22355583.889   -10762124.92843  -8375107.60542  22355586.081    22355581.724
        51.000          44.000
  21159505.368      773826.43843    603918.45042  21159506.310    21159501.645
        55.000          48.000
 03  6 27 16 33  0.0000000  0  9G21G18G16G15G 6G29G26G23G17
  20631417.752    10977928.03044   8556502.95242  20631419.483    20631414.145
        57.000          50.000
  20721393.165     4980979.37443   3888122.90342  20721394.749    20721389.671
        56.000          50.000
  23337691.745    10322469.82143   8047211.98842  23337694.122    23337687.932
        44.000          38.000
  21979056.569     4468293.64043   3492140.57242  21979058.128    21979053.930
        52.000          46.000
  21040309.725    17439484.31743  13590554.64842  21040311.564    21040308.398
        56.000          49.000
  23384047.188    16370057.89043  12760961.70142  23384049.528    23384046.364
        47.000          42.000
  21519575.053    10115662.56143   7889256.92342  21519577.304    21519573.426
        53.000          46.000
  22347188.121   -10806235.19243  -8409479.17142  22347189.914    22347188.391
        51.000          44.000
  21162401.295      789050.36443    615781.22742  21162403.093    21162399.487
        55.000          48.000
 03  6 27 16 33 20.0000000  0  9G21G18G16G15G 6G29G26G23G17
  20630816.404    10974764.02644   8554037.48542  20630817.590    20630811.825
        57.000          50.000
  20716895.331     4957342.03243   3869704.21742  20716896.865    20716891.995
        56.000          50.000
  23339311.364    10330990.26543   8053851.22742  23339314.729    23339307.866
        42.000          36.000
  21971392.173     4428020.86343   3460759.19942  21971393.724    21971389.332
        52.000          46.000
  21048261.206    17481275.35043  13623119.04542  21048263.778    21048261.246
        56.000          49.000
  23391304.595    16408186.66343  12790672.44842  23391305.577    23391301.484
        49.000          42.000
  21521909.685    10127926.86643   7898813.52842  21521911.366    21521906.761
        53.000          46.000
  22338825.133   -10850195.33643  -8443733.75642  22338825.775    22338822.712
        52.000          44.000
  21165314.483      804358.43343    627709.57342  21165315.778    21165311.967
        54.000          48.000
 03  6 27 16 33 40.0000000  0  9G21G18G16G15G 6G29G26G23G17
  20630231.219    10971691.16144   8551643.03742  20630233.012    20630226.715
        57.000          50.000
  20712432.241     4933889.30043   3851429.37342  20712433.846    20712428.555
        56.000          50.000
  23340977.606    10339733.01643   8060663.70442  23340980.443    23340972.864
        43.000          38.000
  21963738.032     4387793.09143   3429412.89642  21963739.541    21963735.512
        53.000          46.000
  21056252.690    17523262.69843  13655836.41042  21056253.850    21056251.324
        56.000          49.000
  23398597.572    16446518.43943  12820541.32742  23398600.013    23398596.713
        48.000          42.000
  21524298.485    10140483.26443   7908597.75642  21524301.166    21524296.188
        53.000          46.000
  22330485.445   -10894009.44543  -8477874.55742  22330488.650    22330485.412
        52.000          44.000
  21168243.595      819746.76143    639700.44742  21168244.270    21168240.092
        55.000          48.000
 03  6 27 16 34  0.0000000  0  9G21G18G16G15G 6G29G26G23G17
  20629663.831    10968710.17644   8549320.18442  20629665.683    20629659.454
        57.000          50.000
  20708004.991     4910621.93143   3833298.97242  20708006.538    20708001.454
        56.000          50.000
  23342681.901    10348698.34643   8067649.58742  23342685.205    23342679.619
        43.000          38.000
  21956091.954     4347611.20043   3398102.33542  21956092.800    21956088.762
        53.000          46.000
  21064279.870    17565446.62243  13688706.94342  21064281.631    21064278.450
        56.000          49.000
  23405929.928    16485053.16743  12850568.39542  23405933.065    23405929.701
        48.000          42.000
  21526743.644    10153332.28743   7918609.99142  21526745.920    21526742.061
        53.000          46.000
  22322177.127   -10937676.65243  -8511900.91042  22322178.662    22322175.845
        51.000          44.000
  21171186.609      835215.84843    651754.25642  21171188.537    21171183.353
        55.000          48.000
 03  6 27 16 34 20.0000000  0  9G21G18G16G15G 6G29G26G23G17
  20629115.369    10965824.33144   8547071.45742  20629116.776    20629110.233
        57.000          50.000
  20703612.904     4887542.68243   3815315.16342  20703614.644    20703609.589
        56.000          50.000
  23344431.063    10357889.03343   8074811.08742  23344435.199    23344427.942
        43.000          39.000
  21948454.555     4307478.27643   3366829.93842  21948455.651    21948451.520
        53.000          46.000
  21072344.431    17607829.85343  13721732.79242  21072346.874    21072343.763
        56.000          49.000
  23413303.079    16523793.60643  12880755.72142  23413304.662    23413301.621
        49.000          42.000
  21529244.962    10166476.76843   7928852.46342  21529247.487    21529242.620
        54.000          46.000
  22313894.987   -10981193.77143  -8545810.26142  22313896.815    22313894.744
        51.000          44.000
  21174146.112      850769.05843    663873.61942  21174147.672    21174143.108
        54.000          48.000
 03  6 27 16 34 40.0000000  0  9G21G18G16G15G 6G29G26G23G17
  20628583.375    10963031.80544   8544895.45542  20628585.274    20628578.728
        57.000          50.000
  20699256.544     4864649.81943   3797476.58642  20699258.467    20699252.925
        56.000          50.000
  23346218.475    10367302.71743   8082146.44342  23346220.726    23346220.000
        41.000          38.000
  21940826.752     4267392.67643   3335594.39542  21940828.093    21940824.759
        53.000          46.000
  21080448.083    17650410.07143  13754912.13442  21080449.618    21080446.586
        56.000          49.000
  23420713.878    16562737.29943  12911101.44742  23420715.883    23420712.163
        48.000          42.000
  21531802.156    10179914.84643   7939323.71342  21531803.900    21531799.874
        53.000          46.000
  22305642.715   -11024562.49443  -8579604.01742  22305644.520    22305641.448
        52.000          44.000
  21177121.649      866404.57843    676057.11842  21177122.794    21177119.077
        54.000          48.000
 03  6 27 16 35  0.0000000  0  9G21G18G16G15G 6G29G26G23G17
  20628070.169    10960336.08444   8542794.88642  20628071.722    20628065.987
        57.000          50.000
  20694935.812     4841946.42643   3779785.64642  20694938.090    20694932.560
        56.000          50.000
  23348055.273    10376942.33643   8089657.78442  23348056.723    23348054.830
        43.000          39.000
  21933206.714     4227357.80843   3304398.40542  21933207.947    21933205.777
        52.000          46.000
  21088588.305    17693190.21443  13788247.26642  21088589.986    21088587.044
        56.000          49.000
  23428163.271    16601887.04843  12941607.74142  23428164.690    23428163.023
        47.000          42.000
  21534415.032    10193649.53043   7950026.07642  21534417.547    21534413.481
        53.000          46.000
  22297418.962   -11067779.44743  -8613279.51442  22297419.984    22297416.514
        51.000          44.000
  21180113.723      882125.88643    688307.46342  21180114.678    21180110.567
        55.000          48.000
 03  6 27 16 35 20.0000000  0  9G21G18G16G15G 6G29G26G23G17
  20627574.286    10957724.63544   8540759.97842  20627575.525    20627568.943
        57.000          50.000
  20690649.559     4819420.15743   3762232.73242  20690650.921    20690646.157
        56.000          50.000
  23349930.293    10386795.07143   8097335.21042  23349931.031    23349930.373
        42.000          39.000
  21925596.660     4187361.44043   3273232.40342  21925597.585    21925594.416
        52.000          45.000
  21096764.677    17736157.44843  13821728.18842  21096766.995    21096763.252
        56.000          49.000
  23435650.762    16641229.72843  12972264.37442  23435651.372    23435648.875
        48.000          42.000
  21537083.193    10207668.28943   7960949.78942  21537085.418    21537081.224
        53.000          46.000
  22289222.187   -11110856.87043  -8646846.29742  22289224.906    22289220.773
        52.000          45.000
  21183119.410      897920.75943    700615.13042  21183120.455    21183116.015
        55.000          48.000
 03  6 27 16 35 40.0000000  0  9G21G18G16G15G 6G29G26G23G17
  20627096.604    10955214.03444   8538803.64342  20627098.269    20627090.920
        57.000          50.000
  20686399.898     4797086.92543   3744830.23242  20686401.238    20686395.948
        56.000          50.000
  23351847.660    10396876.56843   8105190.92242  23351849.628    23351847.532
        42.000          38.000
  21917997.729     4147419.73643   3242108.98442  21917998.021    21917993.156
        53.000          45.000
  21104980.299    17779327.49443  13855367.14742  21104981.937    21104978.447
        56.000          49.000
  23443177.599    16680780.97543  13003083.53742  23443177.782    23443173.296
        48.000          42.000
  21539807.598    10221987.00243   7972107.25542  21539809.763    21539806.332
        53.000          46.000
  22281052.890   -11153778.50343  -8680291.64942  22281055.501    22281052.351
        52.000          44.000
  21186141.713      913805.23843    712992.61742  21186143.344    21186139.190
        55.000          48.000
 03  6 27 16 36  0.0000000  0  9G21G18G16G15G 6G29G26G23G17
  20626634.604    10952792.59443   8536916.79442  20626635.961    20626630.135
        56.000          50.000
  20682183.727     4774934.79343   3727568.84442  20682185.901    20682180.377
        56.000          50.000
  23353808.109    10407174.50343   8113215.23642  23353809.632    23353806.821
        43.000          39.000
  21910403.500     4107520.92543   3211018.98342  21910405.354    21910400.315
        53.000          45.000
  21113230.982    17822687.98743  13889154.50042  21113233.345    21113230.305
        56.000          49.000
  23450740.252    16720528.24243  13034055.44542  23450742.074    23450739.319
        49.000          42.000
  21542586.994    10236593.59943   7983489.02742  21542589.527    21542585.865
        53.000          46.000
  22272911.864   -11196556.21843  -8713624.88642  22272912.458    22272911.587
        51.000          44.000
  21189179.292      929767.76543    725430.91742  21189180.471    21189177.312
        54.000          48.000
 03  6 27 16 36 20.0000000  0  9G21G18G16G15G 6G29G26G23G17
  20626191.495    10950466.86843   8535104.53642  20626193.515    20626188.384
        56.000          50.000
  20678004.611     4752970.18743   3710453.58342  20678006.530    20678000.808
        56.000          50.000
  23355812.002    10417695.06743   8121413.01142  23355813.806    23355809.774
        43.000          39.000
  21902821.295     4067671.48243   3179967.47042  21902822.230    21902817.511
        53.000          45.000
  21121520.003    17866245.04043  13923095.00342  21121522.125    21121518.756
        56.000          49.000
  23458342.521    16760477.57343  13065184.79042  23458344.666    23458341.078
        49.000          42.000
  21545422.507    10251494.33343   7995100.00542  21545425.026    21545420.827
        53.000          46.000
  22264802.658   -11239183.39343  -8746840.82142  22264804.242    22264800.631
        53.000          45.000
  21192232.856      945815.01443    737935.24342  21192233.509    21192229.766
        54.000          48.000
 03  6 27 16 36 40.0000000  0  9G21G18G16G15G 6G29G26G23G17
  20625768.360    10948232.81544   8533363.70442  20625769.437    20625762.990
        57.000          50.000
  20673859.898     4731189.00943   3693481.24742  20673861.784    20673856.194
        56.000          50.000
  23357854.143    10428433.55343   8129780.58742  23357856.498    23357853.848
        43.000          38.000
  21895246.352     4027867.48043   3148951.38742  21895247.852    21895242.858
        53.000          45.000
  21129845.479    17909994.11543  13957185.12642  21129847.517    21129843.739
        56.000          49.000
  23465983.440    16800624.17343  13096467.85042  23465984.045    23465979.566
        50.000          42.000
  21548312.973    10266684.85943   8006936.79642  21548315.676    21548311.824
        53.000          46.000
  22256717.199   -11281664.00443  -8779942.52942  22256719.447    22256716.075
        52.000          45.000
  21195302.447      961942.57243    750502.14642  21195302.915    21195299.050
        55.000          48.000
 03  6 27 16 37  0.0000000  0  9G21G18G16G15G 6G29G26G23G17
  20625361.963    10946097.21044   8531699.58042  20625363.249    20625356.263
        57.000          50.000
  20669752.117     4709597.92944   3676657.03942  20669753.388    20669747.462
        57.000          50.000
  23359941.763    10439396.49743   8138323.10142  23359947.136    23359941.545
        43.000          38.000
  21887682.742     3988116.03843   3117976.24942  21887683.326    21887679.107
        53.000          46.000
  21138207.698    17953941.69643  13991429.94642  21138210.065    21138206.987
        56.000          49.000
  23473661.318    16840974.44743  13127909.62942  23473661.972    23473657.371
        49.000          41.000
  21551260.680    10282171.90243   8019004.62342  21551262.802    21551258.800
        53.000          46.000
  22248663.159   -11323991.02743  -8812924.56842  22248664.925    22248661.225
        52.000          44.000
  21198388.684      978157.60243    763137.19542  21198389.579    21198385.413
        55.000          48.000
 03  6 27 16 37 20.0000000  0  9G21G18G16G15G 6G29G26G23G17
  20624971.424    10944050.03044   8530104.36142  20624973.206    20624966.844
        57.000          50.000
  20665676.632     4688186.51144   3659972.83542  20665678.625    20665673.163
        57.000          50.000
  23362069.747    10450573.04443   8147032.02742  23362070.312    23362067.025
        43.000          37.000
  21880124.558     3948406.65543   3087033.87942  21880126.754    21880123.112
        52.000          45.000
  21146607.269    17998076.95543  14025821.00142  21146608.492    21146605.604
        56.000          49.000
  23481375.324    16881517.38943  13159501.53442  23481378.018    23481374.531
        48.000          41.000
  21554261.914    10297944.85543   8031295.24142  21554264.563    21554260.112
        53.000          46.000
  22240634.860   -11366174.87043  -8845795.04942  22240637.260    22240633.878
        52.000          45.000
  21201487.567      994450.07943    775832.60242  21201489.283    21201485.542
        54.000          48.000
 03  6 27 16 37 40.0000000  0  9G21G18G16G15G 6G29G26G23G17
  20624600.786    10942101.13544   8528585.72642  20624602.263    20624596.224
        57.000          50.000
  20661637.869     4666964.11844   3643435.92442  20661640.079    20661634.689
        57.000          50.000
  23364239.339    10461972.47643   8155914.61042  23364241.394    23364234.091
        42.000          37.000
  21872578.787     3908749.12543   3056131.89842  21872579.446    21872575.625
        52.000          45.000
  21155042.678    18042409.08443  14060365.45442  21155044.652    21155041.264
        56.000          49.000
  23489128.385    16922261.98443  13191250.55642  23489130.166    23489129.038
        47.000          41.000
  21557319.827    10314013.08743   8043815.94642  21557321.731    21557318.507
        53.000          46.000
  22232637.757   -11408205.76043  -8878546.33942  22232639.409    22232635.758
        53.000          46.000
  21204604.751     1010829.53343    788595.79342  21204605.935    21204602.632
        55.000          48.000
 03  6 27 16 38  0.0000000  0  9G21G18G16G15G 6G29G26G23G17
  20624247.297    10940245.73144   8527139.95242  20624249.168    20624243.101
        57.000          50.000
  20657634.479     4645925.93443   3627042.54042  20657636.443    20657631.414
        56.000          50.000
  23366447.870    10473589.45143   8164966.71142  23366450.305    23366446.258
        42.000          36.000
  21865040.735     3869138.77443   3025266.70242  21865041.731    21865038.087
        52.000          45.000
  21163515.167    18086932.81143  14095059.21642  21163516.952    21163513.620
        55.000          48.000
  23496919.238    16963202.84343  13223152.50642  23496922.389    23496918.460
        47.000          40.000
  21560432.388    10330371.57343   8056562.82742  21560435.318    21560430.991
        53.000          46.000
  22224666.915   -11450088.43943  -8911182.13042  22224668.926    22224666.575
        54.000          46.000
  21207738.447     1027291.42843    801423.21442  21207738.837    21207735.295
        55.000          48.000
 03  6 27 16 38 20.0000000  0  9G21G18G16G15G 6G29G26G23G17
  20623911.953    10938484.06844   8525767.21142  20623913.958    20623907.581
        57.000          50.000
  20653665.790     4625071.98043   3610792.71642  20653668.007    20653662.178
        56.000          50.000
  23368703.390    10485423.45643   8174187.87242  23368706.736    23368697.493
        44.000          36.000
  21857513.908     3829575.81043   2994438.41642  21857513.952    21857510.684
        54.000          46.000
  21172025.022    18131647.76743  14129901.99242  21172026.322    21172022.211
        56.000          48.000
  23504747.619    17004339.33343  13255206.87542  23504750.167    23504744.073
        48.000          40.000
  21563600.470    10347020.04443   8069535.65542  21563602.673    21563599.466
        53.000          46.000
  22216726.078   -11491822.75443  -8943702.36042  22216727.883    22216724.191
        54.000          45.000
  21210885.974     1043835.57343    814314.72542  21210887.383    21210883.301
        55.000          48.000
 03  6 27 16 38 40.0000000  0  9G21G18G16G15G 6G29G26G23G17
  20623594.882    10936818.66843   8524469.47942  20623597.014    20623590.290
        56.000          50.000
  20649733.799     4604404.56944   3594688.23942  20649735.552    20649729.220
        57.000          50.000
  23370990.732    10497476.43643   8183579.74642  23370997.048    23370990.625
        43.000          36.000
  21849994.539     3790062.85043   2963649.09142  21849995.872    21849991.532
        54.000          47.000
  21180570.489    18176555.90943  14164895.29542  21180572.179    21180568.067
        56.000          48.000
  23512612.902    17045673.45143  13287415.28242  23512616.142    23512612.978
        48.000          41.000
  21566824.927    10363960.66943   8082736.13942  21566826.715    21566822.804
        53.000          46.000
  22208812.280   -11533406.15843  -8976104.96442  22208814.787    22208811.345
        53.000          46.000
  21214050.797     1060464.27143    827272.12242  21214052.102    21214047.003
        55.000          48.000
 03  6 27 16 39  0.0000000  0  9G21G18G16G15G 6G29G26G23G17
  20623296.910    10935250.09844   8523247.20142  20623298.172    20623291.969
        57.000          50.000
  20645835.892     4583923.96643   3578729.33742  20645837.781    20645832.553
        56.000          50.000
  23373329.611    10509748.51343   8193142.31342  23373333.200    23373325.839
        44.000          36.000
  21842484.364     3750600.37343   2932899.10242  21842485.791    21842482.159
        54.000          46.000
  21189152.614    18221657.22043  14200039.11842  21189154.599    21189151.084
        55.000          48.000
  23520516.154    17087204.92943  13319777.47042  23520519.436    23520518.051
        47.000          41.000
  21570103.643    10381193.58743   8096164.40142  21570106.111    21570102.384
        53.000          46.000
  22200928.094   -11574838.19543  -9008389.61242  22200930.265    22200927.480
        53.000          46.000
  21217230.388     1077178.67543    840296.31042  21217232.169    21217227.806
        54.000          48.000
 03  6 27 16 39 20.0000000  0 10G21G18G16G15G 2G 6G29G26G23G17
  20623016.300    10933773.75844   8522096.79942  20623017.494    20623011.489
        57.000          50.000
  20641973.029     4563625.41043   3562912.29042  20641974.974    20641969.680
        56.000          50.000
  23375708.140    10522234.35543   8202871.49542  23375706.735    23375701.444
        44.000          36.000
  21834982.271     3711183.98143   2902185.04142  21834984.342    21834981.667
        52.000          46.000
  25022803.554
        42.000
  21197772.107    18266946.62043  14235329.49942  21197773.381    21197770.040
        56.000          49.000
  23528457.584    17128928.51943  13352289.34942  23528459.744    23528453.823
        48.000          41.000
  21573437.740    10398714.07543   8109816.73642  21573440.276    21573435.796
        53.000          46.000
  22193071.161   -11616123.39843  -9040559.85242  22193072.818    22193070.538
        52.000          45.000
  21220426.195     1093974.31043    853383.78642  21220427.979    21220424.591
        54.000          48.000
 03  6 27 16 39 40.0000000  0 10G21G18G16G15G 2G 6G29G26G23G17
  20622752.356    10932387.21844   8521016.36242  20622754.050    20622747.840
        57.000          50.000
  20638145.049     4543506.06144   3547234.88842  20638146.511    20638141.167
        57.000          50.000
  23378118.976    10534930.84643   8212764.84942  23378122.652    23378118.894
        44.000          35.000
  21827490.388     3671810.94043   2871504.75142  21827490.771    21827488.220
        52.000          45.000
  25020343.340
        43.000
  21206424.201    18312420.84543  14270763.90542  21206426.385    21206423.229
        56.000          48.000
  23536432.682    17170840.70943  13384948.17942  23536435.462    23536431.117
        48.000          41.000
  21576826.235    10416518.87443   8123690.58942  21576828.957    21576824.422
        53.000          46.000
  22185242.698   -11657264.45443  -9072617.76942  22185243.986    22185241.615
        52.000          45.000
  21223639.240     1110848.05443    866532.11542  21223639.785    21223635.771
        55.000          48.000
 03  6 27 16 40  0.0000000  0  9G21G18G16G15G 6G29G26G23G17
  20622509.551    10931109.11444   8520020.41942  20622510.984    20622504.349
        57.000          50.000
  20634353.606     4523584.42044   3531711.53642  20634355.621    20634349.751
        57.000          50.000
  23380577.642    10547856.23843   8222836.55442  23380577.947    23380574.437
        41.000          35.000
  21820010.343     3632499.93443   2840872.79742  21820010.727    21820006.564
        53.000          45.000
  21215116.801    18358098.12943  14306356.53042  21215118.573    21215116.186
        55.000          48.000
  23544446.195    17212959.75043  13417768.19342  23544447.980    23544446.970
        47.000          42.000
  21580271.666    10434626.45243   8137800.39842  21580273.764    21580270.888
        52.000          46.000
  22177444.387   -11698242.67543  -9104548.79142  22177446.107    22177444.194
        52.000          45.000
  21226867.490     1127818.90843    879756.13242  21226868.740    21226864.729
        54.000          48.000
 03  6 27 16 40 20.0000000  0  9G21G18G16G15G 6G29G26G23G17
  20622284.549    10929926.15144   8519098.61342  20622286.115    20622279.418
        57.000          50.000
  20630597.966     4503846.74644   3516331.52442  20630600.272    20630593.885
        57.000          50.000
  23383078.600    10560996.43543   8233075.60642  23383078.383    23383076.867
        43.000          35.000
  21812539.810     3593237.59943   2810278.74342  21812540.860    21812534.936
        54.000          46.000
  21223845.076    18403964.43043  14342096.44142  21223846.568    21223844.154
        55.000          48.000
  23552499.504    17255271.37943  13450738.28942  23552501.240    23552496.246
        48.000          42.000
  21583773.014    10453023.05143   8152135.40142  21583775.433    21583770.756
        54.000          46.000
  22169675.750   -11739071.53543  -9136363.44542  22169677.628    22169674.048
        53.000          45.000
  21230113.210     1144873.24143    893045.18642  21230114.227    21230109.917
        54.000          48.000
 03  6 27 16 40 40.0000000  0  9G21G18G16G15G 6G29G26G23G17
  20622075.408    10928834.19444   8518247.72742  20622077.242    20622071.747
        57.000          50.000
  20626876.281     4484288.79844   3501091.57642  20626878.171    20626872.787
        57.000          50.000
  23385619.543    10574346.77543   8243478.41842  23385620.071    23385617.814
        42.000          36.000
  21805076.163     3554019.84243   2779719.43842  21805078.247    21805073.056
        54.000          46.000
  21232608.591    18450015.01543  14377979.93942  21232610.246    21232606.628
        55.000          48.000
  23560586.029    17297770.84243  13483854.73442  23560588.251    23560583.207
        47.000          42.000
  21587327.462    10471704.11843   8166692.06242  21587329.905    21587325.690
        53.000          46.000
  22161934.394   -11779755.23543  -9168064.99742  22161935.617    22161932.403
        53.000          45.000
  21233372.890     1162007.17643    906396.28242  21233374.213    21233370.849
        54.000          48.000
 03  6 27 16 41  0.0000000  0  9G21G18G16G15G 6G29G26G23G17
  20621886.490    10927837.93644   8517471.40342  20621888.183    20621882.523
        57.000          50.000
  20623188.961     4464914.73543   3485994.91142  20623190.999    20623185.998
        56.000          50.000
  23388201.900    10587910.96343   8254047.83242  23388201.952    23388199.030
        43.000          36.000
  21797622.981     3514851.27543   2749198.47942  21797624.313    21797620.612
        54.000          46.000
  21241407.006    18496253.84243  14414010.11942  21241409.264    21241405.628
        55.000          48.000
  23568710.215    17340461.74743  13517120.35342  23568711.620    23568708.264
        49.000          42.000
  21590937.167    10490673.80043   8181473.63842  21590939.489    21590936.015
        53.000          46.000
  22154220.207   -11820289.26143  -9199649.91142  22154222.655    22154219.283
        54.000          45.000
  21236650.536     1179225.25043    919812.92642  21236651.753    21236647.221
        54.000          47.000
 03  6 27 16 41 20.0000000  0  9G21G18G16G15G 6G29G26G23G17
  20621716.095    10926939.99144   8516771.68442  20621717.361    20621711.905
        57.000          50.000
  20619537.971     4445727.16443   3471043.57542  20619539.608    20619534.707
        56.000          50.000
  23390824.724    10601691.18443   8264785.59842  23390825.064    23390821.405
        44.000          37.000
  21790179.321     3475734.57543   2718717.94842  21790180.376    21790176.936
        54.000          47.000
  21250242.746    18542682.94743  14450188.56842  21250244.574    21250240.920
        56.000          48.000
  23576870.929    17383346.29143  13550536.87542  23576872.630    23576870.382
        50.000          43.000
  21594602.213    10509934.20943   8196481.75042  21594605.075    21594600.397
        53.000          46.000
  22146535.917   -11860670.95343  -9231116.14242  22146538.074    22146533.751
        53.000          45.000
  21239943.838     1196530.08943    933297.18442  21239944.279    21239940.347
        54.000          47.000
 03  6 27 16 41 40.0000000  0  9G21G18G16G15G 6G29G26G23G17
  20621562.423    10926134.58244   8516144.07642  20621563.824    20621558.441
        57.000          50.000
  20615920.763     4426720.05843   3456232.85342  20615922.795    20615917.479
        56.000          50.000
  23393487.827    10615681.10543   8275686.78642  23393489.364    23393485.134
        45.000          38.000
  21782743.537     3436663.94443   2688273.30742  21782744.978    21782742.007
        53.000          46.000
  21259112.655    18589296.04843  14486510.40242  21259115.066    21259111.011
        56.000          48.000
  23585067.002    17426417.75743  13584099.02842  23585069.574    23585065.324
        49.000          43.000
  21598321.756    10529479.47343   8211711.82842  21598324.488    21598319.672
        54.000          46.000
  22138879.481   -11900906.10343  -9262468.19342  22138881.265    22138877.693
        53.000          45.000
  21243250.194     1213915.79243    946844.45742  21243252.271    21243249.020
        54.000          47.000
 03  6 27 16 42  0.0000000  0  9G21G18G16G15G 6G29G26G23G17
  20621428.254    10925428.82944   8515594.11542  20621429.532    20621423.462
        57.000          50.000
  20612339.471     4407900.19143   3441568.03642  20612341.099    20612336.313
        56.000          50.000
  23396192.801    10629887.10143   8286756.33842  23396192.006    23396187.715
        47.000          38.000
  21775319.441     3397646.37743   2657870.00342  21775320.275    21775317.027
        53.000          46.000
  21268019.232    18636099.72043  14522980.72942  21268021.265    21268017.824
        56.000          48.000
  23593299.945    17469682.64343  13617811.91542  23593301.740    23593298.273
        49.000          43.000
  21602096.589    10549315.79643   8227168.69042  21602099.353    21602094.157
        53.000          46.000
  22131251.701   -11940987.71643  -9293700.56242  22131253.274    22131250.513
        53.000          46.000
  21246576.652     1231389.68143    960460.44742  21246577.505    21246573.662
        54.000          47.000
 03  6 27 16 42 20.0000000  0  9G21G18G16G15G 6G29G26G23G17
  20621312.836    10924818.61444   8515118.60142  20621313.960    20621307.508
        57.000          50.000
  20608792.862     4389263.16143   3427045.68242  20608794.776    20608789.679
        56.000          50.000
  23398935.225    10644304.60243   8297990.67542  23398935.449    23398932.240
        46.000          39.000
  21767903.667     3358678.00443   2627505.02442  21767904.396    21767900.580
        53.000          46.000
  21276961.136    18683089.27243  14559595.89842  21276963.071    21276959.710
        55.000          48.000
  23601568.167    17513136.13543  13651671.76442  23601569.739    23601568.090
        49.000          43.000
  21605924.647    10569439.01443   8242849.12542  21605928.037    21605924.728
        53.000          46.000
  22123652.896   -11980919.84443  -9324816.45842  22123654.679    22123652.143
        53.000          46.000
  21249919.192     1248947.53943    974141.87242  21249919.400    21249914.605
        55.000          47.000
 03  6 27 16 42 40.0000000  0  9G21G18G16G15G 6G29G26G23G17
  20621214.814    10924308.76444   8514721.30542  20621216.305    20621210.205
        57.000          50.000
  20605282.962     4370813.73343   3412669.50642  20605284.327    20605279.093
        56.000          51.000
  23401720.279    10658937.76943   8309393.07442  23401723.484    23401718.001
        46.000          39.000
  21760498.187     3319763.52843   2597182.04842  21760498.946    21760495.522
        52.000          46.000
  21285938.348    18730268.83043  14596359.13242  21285940.750    21285937.328
        55.000          48.000
  23609874.126    17556782.26543  13685681.71642  23609877.536    23609872.203
        49.000          43.000
  21609810.600    10589853.51543   8258756.52342  21609812.630    21609808.082
        53.000          45.000
  22116083.801   -12020697.76643  -9355812.21042  22116085.606    22116081.686
        54.000          46.000
  21253274.325     1266594.24643    987892.51742  21253276.577    21253272.642
        53.000          47.000
 03  6 27 16 43  0.0000000  0  9G21G18G16G15G 6G29G26G23G17
  20621136.446    10923893.09544   8514397.38242  20621137.755    20621131.338
        57.000          50.000
  20601806.462     4352545.03244   3398434.16642  20601807.901    20601802.437
        57.000          51.000
  23404544.365    10673779.47943   8320957.95642  23404548.430    23404542.628
        45.000          39.000
  21753103.053     3280896.51143   2566896.06942  21753103.880    21753099.797
        54.000          46.000
  21294951.564    18777631.37443  14633264.94342  21294953.227    21294950.919
        54.000          48.000
  23618215.600    17600613.81743  13719836.15342  23618217.963    23618214.154
        49.000          42.000
  21613749.708    10610552.17343   8274885.33642  21613751.837    21613746.625
        53.000          46.000
  22108542.646   -12060328.04743  -9386692.90442  22108544.286    22108541.106
        54.000          46.000
  21256650.826     1284323.07243   1001707.14942  21256650.912    21256646.932
        54.000          47.000
 03  6 27 16 43 20.0000000  0  9G21G18G16G15G 6G29G26G23G17
  20621075.624    10923574.69644   8514149.25342  20621077.070    20621070.605
        57.000          50.000
  20598364.017     4334460.15643   3384342.05742  20598366.337    20598361.174
        56.000          51.000
  23407409.139    10688832.38443   8332687.39242  23407411.529    23407405.685
        45.000          38.000
  21745717.958     3242080.46743   2536649.79542  21745718.706    21745713.187
        54.000          46.000
  21304000.186    18825179.62443  14670315.45142  21304001.962    21303999.376
        54.000          48.000
  23626592.025    17644633.43043  13754137.13642  23626593.757    23626589.136
        49.000          42.000
  21617742.285    10631538.10943   8291238.01642  21617744.600    21617740.708
        52.000          46.000
  22101029.502   -12099807.41543  -9417455.99342  22101031.429    22101029.010
        54.000          46.000
  21260039.379     1302137.52343   1015588.50742  21260040.493    21260037.629
        54.000          48.000
 03  6 27 16 43 40.0000000  0  9G21G18G16G15G 6G29G26G23G17
  20621032.718    10923353.65343   8513976.98742  20621034.249    20621028.663
        56.000          50.000
  20594958.234     4316558.61544   3370392.81442  20594960.192    20594954.565
        57.000          51.000
  23410311.826    10704095.68443   8344580.80442  23410314.764    23410311.170
        44.000          38.000
  21738338.899     3203315.13643   2506443.05342  21738340.245    21738336.531
        54.000          46.000
  21313082.974    18872912.78643  14707510.05242  21313084.726    21313082.262
        54.000          48.000
  23635005.365    17688840.08543  13788583.86742  23635008.126    23635001.553
        49.000          42.000
  21621790.992    10652810.47743   8307813.89242  21621792.628    21621788.966
        53.000          46.000
  22093545.254   -12139136.16043  -9448101.73642  22093547.779    22093543.174
        54.000          45.000
  21263444.850     1320037.56743   1029536.55042  21263446.919    21263443.440
        54.000          48.000
 03  6 27 16 44  0.0000000  0  9G21G18G16G15G 6G29G26G23G17
  20621009.871    10923230.14144   8513880.72442  20621011.438    20621005.651
        57.000          50.000
  20591586.279     4298840.29443   3356586.33642  20591588.318    20591582.910
        56.000          51.000
  23413258.604    10719569.01143   8356637.88042  23413260.584    23413255.499
        45.000          39.000
  21730971.797     3164600.66143   2476275.92842  21730973.450    21730969.172
        54.000          46.000
  21322201.416    18920830.48243  14744848.44742  21322203.451    21322201.088
        55.000          48.000
  23643453.280    17733233.11643  13823175.83042  23643456.491    23643450.790
        49.000          42.000
  21625894.423    10674369.06243   8324612.78742  21625895.977    21625890.915
        53.000          46.000
  22086088.584   -12178314.22243  -9478630.07742  22086091.651    22086089.306
        53.000          45.000
  21266868.278     1338023.37343   1043551.43942  21266869.920    21266866.410
        54.000          48.000
 03  6 27 16 44 20.0000000  0  9G21G18G16G15G 6G29G26G23G17
  20621005.779    10923205.86444   8513861.79042  20621007.102    20621000.378
        57.000          50.000
  20588250.445     4281307.14143   3342924.14642  20588251.742    20588247.054
        56.000          51.000
  23416241.211    10735253.69943   8368859.64242  23416243.088    23416241.377
        44.000          39.000
  21723615.094     3125939.22843   2446150.13342  21723616.787    21723612.096
        54.000          46.000
  21331355.904    18968934.04343  14782331.66942  21331357.590    21331354.611
        55.000          48.000
  23651934.844    17777813.98643  13857914.15242  23651938.127    23651935.270
        47.000          42.000
  21630050.103    10696215.57643   8341636.03742  21630052.629    21630048.455
        53.000          45.000
  22078663.118   -12217339.56843  -9509039.38942  22078664.722    22078663.049
        53.000          45.000
  21270308.282     1356097.10643   1057634.83042  21270309.248    21270305.023
        54.000          48.000
 03  6 27 16 44 40.0000000  0  9G21G18G16G15G 6G29G26G23G17
  20621018.549    10923278.31444   8513918.22242  20621020.565    20621014.365
        57.000          50.000
  20584947.694     4263955.55143   3329403.44142  20584949.787    20584944.452
        56.000          51.000
  23419265.939    10751145.84343   8381243.03342  23419269.379    23419264.054
        44.000          39.000
  21716267.249     3087327.67343   2416063.19542  21716269.157    21716264.862
        53.000          46.000
  21340544.589    19017219.56943  14819956.68142  21340546.102    21340542.904
        55.000          48.000
  23660454.785    17822578.63143  13892795.66842  23660457.410    23660452.050
        48.000          41.000
  21634262.362    10718346.13443   8358880.63642  21634264.214    21634261.124
        53.000          46.000
  22071265.002   -12256215.52643  -9539332.31542  22071266.991    22071264.367
        53.000          45.000
  21273763.917     1374254.93943   1071783.75142  21273764.693    21273760.722
        55.000          48.000
 03  6 27 16 45  0.0000000  0  9G21G18G16G15G 6G29G26G23G17
  20621052.364    10923452.83444   8514054.19542  20621053.863    20621048.400
        57.000          50.000
  20581681.392     4246790.84143   3316028.35442  20581683.338    20581677.930
        56.000          50.000
  23422330.401    10767250.35443   8393791.95542  23422332.116    23422328.687
        43.000          38.000
  21708929.797     3048771.42843   2386019.36842  21708931.061    21708927.704
        52.000          46.000
  21349769.168    19065692.10743  14857727.43242  21349770.864    21349767.204
        56.000          48.000
  23669009.137    17867531.76643  13927824.06542  23669012.719    23669004.315
        48.000          41.000
  21638528.527    10740765.95743   8376350.61942  21638530.989    21638527.057
        53.000          46.000
  22063897.296   -12294936.62043  -9569504.58642  22063898.217    22063896.287
        53.000          45.000
  21277235.846     1392502.77943   1086002.80442  21277237.396    21277233.014
        55.000          48.000
 03  6 27 16 45 20.0000000  0  9G21G18G16G15G 6G29G26G23G17
  20621102.193    10923713.01944   8514256.92042  20621103.515    20621097.611
        57.000          50.000
  20578448.830     4229797.00543   3302786.39842  20578450.252    20578444.275
        56.000          50.000
  23425435.840    10783551.02543   8406493.69042  23425436.439    23425432.234
        45.000          39.000
  21701600.651     3010254.86243   2356006.47842  21701601.872    21701598.996
        53.000          46.000
  21359024.961    19114335.40643  14895631.23042  21359026.797    21359024.071
        56.000          48.000
  23677593.078    17912657.03643  13962986.62042  23677595.983    23677590.918
        46.000          40.000
  21642846.366    10763458.74143   8394033.30442  21642848.955    21642844.176
        53.000          45.000
  22056554.800   -12333518.63843  -9599568.44842  22056556.523    22056554.551
        53.000          46.000
  21280722.024     1410825.07843   1100279.89342  21280723.629    21280719.990
        54.000          47.000
 03  6 27 16 45 40.0000000  0  9G21G18G16G15G 6G29G26G23G17
  20621172.506    10924084.87544   8514546.65842  20621174.027    20621168.191
        57.000          50.000
  20575251.237     4212998.89243   3289696.95442  20575253.116    20575247.784
        56.000          50.000
  23428575.541    10800072.10643   8419367.18042  23428577.916    23428576.965
        45.000          39.000
  21694285.039     2971803.17643   2326044.11842  21694285.610    21694281.554
        54.000          47.000
  21368318.331    19163173.89643  14933687.11942  21368321.041    21368317.713
        55.000          48.000
  23686220.547    17957978.79043  13998302.23642  23686222.724    23686217.079
        46.000          40.000
  21647219.730    10786449.23643   8411947.98042  21647223.095    21647219.000
        52.000          45.000
  22049244.703   -12371936.40243  -9629504.33842  22049246.154    22049242.863
        53.000          45.000
  21284227.952     1429247.24343   1114634.79742  21284228.767    21284225.468
        54.000          47.000
 03  6 27 16 46  0.0000000  0  9G21G18G16G15G 6G29G26G23G17
  20621262.190    10924553.83644   8514912.05342  20621263.522    20621257.358
        57.000          50.000
  20572088.865     4196381.71343   3276748.51242  20572090.896    20572085.247
        56.000          50.000
  23431759.569    10816798.48143   8432400.66242  23431761.639    23431757.399
        45.000          39.000
  21686976.145     2933401.77843   2296120.94142  21686978.142    21686973.905
        54.000          47.000
  21377646.778    19212192.38543  14971883.27642  21377648.425    21377645.038
        55.000          48.000
  23694879.212    18003481.75343  14033759.06942  23694880.602    23694876.552
        46.000          40.000
  21651650.674    10809722.32743   8430082.85042  21651652.423    21651648.553
        53.000          45.000
  22041962.085   -12410204.64043  -9659323.72542  22041963.780    22041960.855
        53.000          45.000
  21287750.326     1447754.26943   1129055.82342  21287751.153    21287747.342
        55.000          47.000
 03  6 27 16 46 20.0000000  0 10G21G18G16G15G 2G 6G29G26G23G17
  20621368.846    10925116.83143   8515350.72542  20621370.579    20621364.866
        56.000          50.000
  20568960.884     4179942.05643   3263938.39642  20568962.443    20568957.204
        56.000          50.000
  23434982.450    10833726.21143   8445591.04042  23434983.176    23434979.119
        46.000          39.000
  21679678.513     2895047.53243   2266234.51842  21679679.910    21679675.155
        54.000          47.000
  24978583.662
        42.000
  21387008.441    19261387.07643  15010216.72342  21387009.521    21387006.837
        55.000          48.000
  23703569.837    18049161.79543  14069353.88642  23703572.102    23703569.623
        45.000          40.000
  21656131.927    10833274.32543   8448435.05242  21656135.085    21656130.261
        53.000          46.000
  22034708.846   -12448326.58643  -9689029.09742  22034710.202    22034707.184
        54.000          46.000
  21291286.711     1466343.09543   1143540.58642  21291288.421    21291284.277
        54.000          47.000
 03  6 27 16 46 40.0000000  0  9G21G18G16G15G 6G29G26G23G17
  20621494.927    10925780.20744   8515867.62742  20621496.486    20621491.168
        57.000          50.000
  20565866.940     4163686.36943   3251271.63142  20565869.226    20565863.753
        56.000          51.000
  23438242.939    10850861.49943   8458943.14642  23438243.628    23438242.338
        48.000          39.000
  21672389.727     2856747.31643   2236390.18542  21672391.778    21672386.900
        54.000          47.000
  21396402.587    19310764.07443  15048692.22842  21396405.712    21396403.835
        54.000          48.000
  23712299.114    18095025.03343  14105091.48442  23712301.366    23712297.409
        47.000          40.000
  21660668.439    10857111.50143   8467009.47942  21660670.364    21660666.380
        53.000          46.000
  22027482.117   -12486295.60843  -9718615.31642  22027484.647    22027480.480
        53.000          45.000
  21294841.375     1485020.17843   1158094.11842  21294842.316    21294838.730
        54.000          47.000
 03  6 27 16 47  0.0000000  0  9G21G18G16G15G 6G29G26G23G17
  20621642.381    10926552.91244   8516469.71542  20621643.951    20621637.710
        57.000          50.000
  20562810.818     4147622.97943   3238754.70042  20562812.741    20562806.733
        56.000          51.000
  23441544.472    10868212.25843   8472463.14342  23441547.000    23441542.249
        48.000          39.000
  21665113.194     2818509.83143   2206594.73842  21665114.241    21665110.348
        54.000          46.000
  21405837.545    19360331.36243  15087316.00942  21405838.644    21405835.218
        55.000          48.000
  23721063.663    18141079.44243  14140978.01342  23721065.642    23721060.812
        47.000          40.000
  21665259.493    10881242.01643   8485812.46842  21665262.000    21665258.150
        53.000          46.000
  22020287.853   -12524103.14743  -9748075.72742  22020289.735    22020285.492
        53.000          45.000
  21298414.091     1503794.27043   1172723.24042  21298415.033    21298411.502
        55.000          47.000
 03  6 27 16 47 20.0000000  0  9G21G18G16G15G 6G29G26G23G17
  20621806.948    10927416.16444   8517142.34942  20621808.542    20621802.077
        57.000          50.000
  20559787.188     4131732.66943   3226372.64542  20559788.805    20559783.203
        56.000          51.000
  23444882.229    10885758.75143   8486135.67942  23444884.155    23444879.057
        47.000          38.000
  21657844.342     2780316.08343   2176833.36842  21657845.330    21657841.708
        52.000          46.000
  21415301.267    19410069.42643  15126072.86542  21415303.519    21415300.991
        54.000          48.000
  23729858.914    18187305.20143  14176998.05242  23729860.939    23729857.190
        46.000          40.000
  21669904.395    10905646.38743   8504828.85442  21669906.022    21669902.798
        53.000          46.000
  22013119.990   -12561768.20343  -9777425.09742  22013121.611    22013120.102
        52.000          45.000
  21302001.184     1522646.90643   1187413.56642  21302002.637    21301999.119
        55.000          47.000
 03  6 27 16 47 40.0000000  0  9G21G18G16G15G 6G29G26G23G17
  20621989.617    10928380.54044   8517893.79542  20621991.607    20621986.346
        57.000          50.000
  20556797.508     4116025.80943   3214133.53842  20556799.256    20556794.334
        56.000          50.000
  23448260.047    10903511.26243   8499968.73242  23448262.861    23448257.710
        46.000          38.000
  21650588.396     2742176.87443   2147114.49942  21650588.917    21650585.239
        54.000          46.000
  21424801.392    19459988.39043  15164970.68542  21424802.849    21424800.262
        55.000          48.000
  23738690.240    18233712.27643  14213159.39642  23738692.105    23738688.966
        47.000          40.000
  21674602.446    10930334.87043   8524066.64142  21674604.663    21674600.107
        53.000          46.000
  22005982.228   -12599280.17743  -9806655.13842  22005983.545    22005981.182
        53.000          45.000
  21305605.708     1541588.35643   1202173.10142  21305607.260    21305603.212
        54.000          47.000
 03  6 27 16 48  0.0000000  0  9G21G18G16G15G 6G29G26G23G17
  20622193.169    10929447.44344   8518725.12942  20622194.629    20622188.768
        57.000          50.000
  20553843.874     4100503.57843   3202038.29842  20553845.975    20553840.427
        56.000          50.000
  23451679.414    10921470.30543   8513962.74342  23451680.937    23451675.350
        46.000          39.000
  21643340.672     2704093.67143   2117439.28542  21643342.354    21643338.194
        54.000          47.000
  21434333.838    19510088.88943  15204009.96242  21434336.208    21434333.662
        54.000          48.000
  23747555.767    18280301.20843  14249462.42942  23747557.862    23747554.429
        46.000          40.000
  21679353.515    10955308.16643   8543526.34942  21679356.703    21679352.251
        53.000          45.000
  21998874.376   -12636637.76243  -9835764.93142  21998875.846    21998871.115
        53.000          45.000
  21309227.846     1560620.32843   1217003.16442  21309229.047    21309225.544
        55.000          47.000
 03  6 27 16 48 20.0000000  0 10G21G18G16G15G 2G 6G29G26G23G17
  20622415.208    10930611.41744   8519632.09042  20622416.900    20622410.339
        57.000          50.000
  20550924.505     4085159.71743   3190082.04642  20550926.025    20550920.299
        56.000          50.000
  23455134.322    10939629.58043   8528112.76742  23455136.091    23455132.374
        46.000          39.000
  21636104.023     2666060.82243   2087803.30542  21636105.469    21636101.216
        54.000          47.000
  24968790.882
        42.000
  21443902.342    19560364.56643  15243185.73742  21443903.690    21443900.906
        55.000          48.000
  23756455.217    18327065.60943  14285902.20542  23756456.377    23756453.042
        47.000          40.000
  21684159.045    10980560.24243   8563203.28542  21684161.595    21684157.443
        52.000          45.000
  21991791.895   -12673846.90143  -9864759.01342  21991794.039    21991791.234
        52.000          45.000
  21312865.470     1579737.15643   1231899.34842  21312866.069    21312863.424
        54.000          47.000
 03  6 27 16 48 40.0000000  0  9G21G18G16G15G 6G29G26G23G17
  20622655.908    10931879.77844   8520620.40042  20622657.711    20622651.708
        57.000          50.000
  20548039.823     4070001.63843   3178270.55742  20548041.591    20548035.584
        56.000          50.000
  23458628.662    10957995.71243   8542424.00042  23458630.018    23458624.914
        46.000          39.000
  21628878.042     2628085.95043   2058212.49942  21628879.455    21628874.314
        55.000          47.000
  21453503.543    19610822.32143  15282503.39942  21453505.946    21453503.196
        55.000          48.000
  23765388.485    18374012.04243  14322483.82842  23765390.746    23765385.684
        47.000          41.000
  21689020.375    11006097.92543   8583102.77642  21689022.098    21689018.034
        53.000          46.000
  21984741.200   -12710900.06243  -9893631.55942  21984743.395    21984740.005
        53.000          45.000
  21316520.137     1598946.23743   1246867.42242  21316521.878    21316518.946
        54.000          47.000
 03  6 27 16 49  0.0000000  0  9G21G18G16G15G 6G29G26G23G17
  20622915.871    10933246.99044   8521685.73842  20622917.805    20622911.974
        57.000          50.000
  20545189.848     4055023.29643   3166599.12242  20545191.321    20545185.808
        56.000          50.000
  23462160.313    10976562.37443   8556891.44642  23462163.612    23462161.223
        44.000          39.000
  21621659.721     2590163.15343   2028662.27542  21621661.788    21621657.530
        54.000          47.000
  21463138.337    19661455.72743  15321957.92842  21463140.433    21463138.138
        54.000          48.000
  23774355.205    18421133.94543  14359202.18842  23774357.559    23774353.368
        48.000          41.000
  21693931.505    11031914.90843   8603219.90842  21693934.365    21693930.606
        53.000          46.000
  21977718.621   -12747803.20943  -9922387.23842  21977719.880    21977717.307
        52.000          45.000
  21320193.534     1618241.93343   1261902.98342  21320194.277    21320190.382
        55.000          47.000
 03  6 27 16 49 20.0000000  0  9G21G18G16G15G 6G29G26G23G17
  20623195.800    10934715.43244   8522829.96742  20623197.482    20623191.210
        57.000          50.000
  20542373.461     4040226.63743   3155069.26242  20542375.442    20542369.844
        56.000          50.000
  23465732.957    10995331.27243   8571516.46642  23465735.161    23465732.253
        43.000          39.000
  21614454.034     2552294.90643   1999154.53342  21614455.458    21614450.971
        54.000          46.000
  21472807.801    19712266.53043  15361550.67642  21472809.517    21472807.253
        54.000          48.000
  23783356.716    18468433.07343  14396058.63042  23783357.656    23783355.063
        48.000          41.000
  21698898.855    11058013.04543   8623556.11242  21698900.893    21698896.732
        53.000          46.000
  21970725.460   -12784554.04543  -9951024.20642  21970726.891    21970724.830
        52.000          45.000
  21323881.506     1637626.18443   1277007.54642  21323882.835    21323878.986
        55.000          47.000
 03  6 27 16 49 40.0000000  0  9G21G18G16G15G 6G29G26G23G17
  20623493.897    10936280.90344   8524049.79642  20623495.657    20623489.055
        57.000          50.000
  20539591.115     4025607.70543   3143677.90442  20539593.224    20539588.161
        56.000          50.000
  23469343.322    11014298.00143   8586295.64342  23469343.974    23469341.726
        45.000          39.000
  21607257.578     2514477.45543   1969686.37242  21607258.844    21607254.870
        53.000          46.000
  21482510.488    19763250.29543  15401278.20742  21482512.125    21482509.168
        54.000          48.000
  23792389.800    18515904.76343  14433049.53442  23792392.707    23792387.924
        48.000          41.000
  21703917.289    11084388.06743   8644108.05642  21703919.550    21703916.106
        53.000          46.000
  21963761.218   -12821156.34943  -9979545.45742  21963762.755    21963758.085
        53.000          45.000
  21327586.140     1657095.48243   1292178.38142  21327587.658    21327584.630
        54.000          47.000
 03  6 27 16 50  0.0000000  0  9G21G18G16G15G 6G29G26G23G17
  20623810.666    10937948.92644   8525349.53242  20623812.135    20623806.306
        57.000          50.000
  20536845.204     4011171.11343   3132428.61742  20536846.699    20536841.330
        56.000          51.000
  23472989.107    11033466.38843   8601231.97642  23472992.303    23472989.273
        43.000          39.000
  21600072.279     2476715.66743   1940261.60942  21600073.298    21600069.555
        54.000          47.000
  21492245.505    19814411.19443  15441143.76442  21492247.447    21492244.995
        54.000          47.000
  23801457.614    18563553.05543  14470178.06142  23801459.433    23801454.108
        49.000          42.000
  21708990.907    11111044.07743   8664878.95542  21708993.070    21708988.710
        53.000          46.000
  21956825.509   -12857605.54443 -10007947.41442  21956827.152    21956823.274
        54.000          46.000
  21331308.495     1676654.66243   1307419.25442  21331309.417    21331306.482
        54.000          47.000
 03  6 27 16 50 20.0000000  0  9G21G18G16G15G 6G29G26G23G17
  20624147.471    10939718.42244   8526728.34342  20624149.442    20624143.710
        57.000          50.000
  20534132.199     3996915.51343   3121320.35542  20534133.992    20534128.665
        56.000          51.000
  23476677.379    11052834.91443   8616324.21742  23476679.505    23476674.341
        44.000          39.000
  21592896.791     2439008.63143   1910879.50742  21592898.270    21592893.713
        54.000          47.000
  21502015.557    19865747.61543  15481146.07742  21502017.213    21502013.825
        54.000          47.000
  23810556.395    18611376.15543  14507442.80542  23810557.947    23810556.397
        48.000          41.000
  21714115.663    11137979.67043   8685867.72442  21714118.364    21714113.665
        53.000          45.000
  21949917.956   -12893902.62543 -10036230.82442  21949920.625    21949916.958
        54.000          46.000
  21335047.247     1696302.70543   1322729.37742  21335048.188    21335045.074
        54.000          47.000
 03  6 27 16 50 40.0000000  0  9G21G18G16G15G 6G29G26G23G17
  20624504.279    10941592.41544   8528188.58142  20624505.565    20624500.266
        57.000          50.000
  20531453.956     3982843.47644   3110355.13342  20531456.338    20531450.339
        57.000          51.000
  23480400.496    11072405.71443   8631574.11642  23480401.824    23480399.296
        43.000          39.000
  21585732.194     2401359.35343   1881542.40342  21585733.555    21585729.399
        54.000          47.000
  21511817.511    19917261.69743  15521286.83842  21511819.376    21511816.399
        54.000          47.000
  23819691.972    18659376.30143  14544845.47842  23819693.206    23819691.738
        48.000          41.000
  21719294.026    11165197.25543   8707076.21142  21719297.268    21719292.566
        52.000          45.000
  21943039.844   -12930044.81043 -10064393.54342  21943042.354    21943038.637
        54.000          46.000
  21338803.975     1716042.62643   1338111.09142  21338805.056    21338801.133
        54.000          47.000
 03  6 27 16 51  0.0000000  0  9G21G18G16G15G 6G29G26G23G17
  20624880.312    10943566.74844   8529727.00542  20624881.839    20624875.931
        57.000          50.000
  20528810.254     3968950.48143   3099529.42142  20528812.337    20528806.760
        56.000          51.000
  23484161.978    11092174.05943   8646977.94642  23484163.213    23484161.471
        44.000          38.000
  21578578.421     2363763.70543   1852247.07342  21578579.655    21578574.987
        54.000          46.000
  21521653.307    19968948.61143  15561562.27942  21521655.113    21521652.284
        54.000          47.000
  23828858.798    18707548.30043  14582382.09542  23828861.213    23828855.311
        48.000          42.000
  21724527.518    11192691.86343   8728500.56742  21724529.599    21724525.666
        53.000          45.000
  21936190.193   -12966036.49443 -10092439.00242  21936192.872    21936190.124
        53.000          46.000
  21342578.017     1735870.15743   1353561.07242  21342578.258    21342574.180
        55.000          47.000
 03  6 27 16 51 20.0000000  0  9G21G18G16G15G 6G29G26G23G17
  20625275.382    10945640.76344   8531343.09742  20625276.701    20625269.849
        57.000          50.000
  20526200.638     3955235.86543   3088842.70442  20526202.473    20526196.976
        56.000          51.000
  23487960.044    11112138.78643   8662534.76442  23487962.632    23487958.957
        42.000          38.000
  21571434.366     2326221.46043   1822993.37042  21571435.058    21571431.214
        54.000          47.000
  21531521.033    20020807.52443  15601971.73942  21531523.371    21531520.371
        54.000          47.000
  23838057.695    18755891.33043  14620051.97642  23838060.142    23838056.535
        48.000          41.000
  21729811.830    11220462.71743   8750140.17342  21729813.954    21729810.009
        52.000          45.000
  21929370.238   -13001878.08043 -10120367.46642  21929371.928    21929370.326
        53.000          46.000
  21346366.028     1755785.18743   1369079.22942  21346368.039    21346363.755
        54.000          47.000
 03  6 27 16 51 40.0000000  0  9G21G18G16G15G 6G29G26G23G17
  20625689.956    10947821.76844   8533042.56542  20625691.853    20625685.282
        57.000          50.000
  20523625.639     3941706.69743   3078300.48442  20523627.842    20523622.560
        56.000          50.000
  23491802.726    11132306.48643   8678249.77342  23491800.431    23491797.209
        46.000          39.000
  21564302.142     2288740.03643   1793787.06642  21564303.023    21564299.175
        54.000          47.000
  21541423.097    20072845.05243  15642520.38242  21541425.841    21541423.057
        53.000          47.000
  23847290.946    18804411.76743  14657860.06842  23847292.403    23847289.157
        48.000          41.000
  21735150.476    11248516.58343   8772000.32142  21735152.501    21735148.069
        53.000          45.000
  21922579.386   -13037562.30943 -10148173.33742  21922581.449    21922578.018
        54.000          47.000
  21350173.677     1775795.00443   1384671.25442  21350175.146    21350172.319
        54.000          47.000
 03  6 27 16 52  0.0000000  0  9G21G18G16G15G 6G29G26G23G17
  20626122.860    10950098.56644   8534816.67342  20626124.758    20626119.030
        57.000          50.000
  20521084.632     3928351.01243   3067893.45942  20521086.344    20521081.151
        56.000          51.000
  23495673.689    11152664.73143   8694113.27142  23495675.150    23495671.038
        47.000          39.000
  21557178.559     2251307.63443   1764618.96042  21557179.879    21557176.098
        55.000          47.000
  21551358.397    20125048.67043  15683198.45042  21551360.091    21551357.645
        54.000          47.000
  23856555.214    18853096.96043  14695796.56542  23856559.200    23856553.610
        48.000          42.000
  21740539.976    11276841.06743   8794071.33542  21740542.584    21740538.128
        52.000          45.000
  21915817.369   -13073101.08543 -10175865.86742  21915818.398    21915816.217
        54.000          47.000
  21353997.804     1795887.99143   1400328.09242  21353998.605    21353995.574
        54.000          47.000
 03  6 27 16 52 20.0000000  0  9G21G18G16G15G 6G29G26G23G17
  20626575.745    10952480.57843   8536672.77442  20626577.171    20626572.331
        56.000          50.000
  20518577.143     3915177.58443   3057628.45442  20518579.371    20518574.330
        56.000          51.000
  23499584.910    11173222.02943   8710131.91642  23499587.154    23499584.809
        46.000          39.000
  21550066.221     2213933.70643   1735496.41842  21550067.882    21550063.350
        55.000          47.000
  21561326.299    20177427.06743  15724012.69742  21561327.375    21561325.175
        54.000          47.000
  23865852.107    18901955.43643  14733868.10042  23865854.448    23865850.782
        47.000          42.000
  21745982.037    11305444.91543   8816360.04142  21745985.272    21745980.627
        52.000          45.000
  21909083.124   -13108485.20843 -10203437.86342  21909085.174    21909082.543
        54.000          47.000
  21357840.003     1816073.30943   1416056.85742  21357840.525    21357836.780
        54.000          47.000
 03  6 27 16 52 40.0000000  0  9G21G18G16G15G 6G29G26G23G17
  20627048.884    10954965.25844   8538608.86942  20627050.499    20627044.521
        57.000          50.000
  20516105.148     3902183.74243   3047503.37542  20516106.752    20516101.639
        56.000          51.000
  23503535.422    11193975.26643   8726303.19942  23503537.056    23503532.845
        48.000          40.000
  21542964.509     2176615.87443   1706417.58442  21542966.387    21542962.038
        54.000          47.000
  21571325.792    20229977.11143  15764960.69242  21571327.872    21571324.624
        54.000          47.000
  23875182.652    18950984.09943  14772072.22842  23875184.752    23875180.550
        47.000          42.000
  21751479.766    11334325.13643   8838864.09342  21751481.942    21751476.912
        52.000          45.000
  21902379.180   -13143717.25343 -10230891.39242  21902380.251    21902378.316
        53.000          47.000
  21361697.627     1836348.61243   1431855.74542  21361699.065    21361694.758
        54.000          47.000
 03  6 27 16 53  0.0000000  0  9G21G18G16G15G 6G29G26G23G17
  20627541.769    10957552.08344   8540624.54542  20627543.309    20627537.128
        57.000          50.000
  20513666.323     3889368.55343   3037517.50742  20513668.025    20513663.040
        56.000          51.000
  23507522.421    11214923.28543   8742626.23742  23507524.553    23507519.413
        47.000          39.000
  21535874.350     2139353.63243   1677382.05842  21535875.893    21535871.249
        54.000          47.000
  21581358.024    20282697.45743  15806041.40042  21581360.166    21581356.990
        54.000          47.000
  23884544.547    19000181.53643  14810407.85142  23884547.820    23884542.232
        47.000          42.000
  21757026.985    11363480.47043   8861582.50842  21757029.594    21757025.115
        52.000          45.000
  21895704.417   -13178797.99543 -10258227.00142  21895705.386    21895702.487
        54.000          47.000
  21365573.125     1856713.28243   1447724.26742  21365573.940    21365570.548
        54.000          47.000
 03  6 27 16 53 20.0000000  0  9G21G18G16G15G 6G29G26G23G17
  20628053.294    10960241.97944   8542720.54642  20628055.294    20628049.283
        57.000          50.000
  20511261.403     3876732.59543   3027671.30042  20511263.352    20511259.085
        56.000          51.000
  23511545.115    11236065.96443   8759100.97342  23511548.178    23511542.788
        46.000          39.000
  21528793.502     2102148.05443   1648390.68742  21528795.125    21528791.530
        54.000          47.000
  21591422.974    20335588.43643  15847255.06342  21591425.004    21591422.253
        54.000          47.000
  23893937.865    19049547.71743  14848874.97142  23893939.647    23893937.748
        46.000          41.000
  21762627.795    11392911.24043   8884515.57442  21762629.358    21762625.521
        52.000          45.000
  21889057.208   -13213726.60143 -10285444.08442  21889058.776    21889056.845
        54.000          47.000
  21369464.471     1877168.14243   1463663.06942  21369466.452    21369463.588
        54.000          47.000
 03  6 27 16 53 40.0000000  0  9G21G18G16G15G 6G29G26G23G17
  20628585.516    10963035.21444   8544897.07442  20628586.950    20628581.075
        57.000          50.000
  20508891.385     3864275.59243   3017964.54442  20508892.977    20508887.987
        56.000          51.000
  23515604.577    11257402.90343   8775727.08642  23515605.560    23515603.244
        46.000          39.000
  21521724.967     2064999.30943   1619443.61142  21521726.111    21521722.297
        54.000          47.000
  21601520.290    20388649.54343  15888601.29142  21601522.232    21601520.051
        54.000          47.000
  23903365.436    19099082.16143  14887473.19742  23903366.809    23903364.035
        45.000          41.000
  21768280.496    11422617.03043   8907662.91142  21768283.346    21768278.395
        52.000          45.000
  21882437.637   -13248503.06243 -10312542.59842  21882440.282    21882437.899
        53.000          47.000
  21373375.227     1897713.47543   1479672.37142  21373375.923    21373372.730
        54.000          47.000
 03  6 27 16 54  0.0000000  0 10G21G18G16G15G 6G 3G29G26G23G17
  20629137.067    10965934.92444   8547156.57342  20629138.289    20629132.519
        57.000          50.000
  20506555.333     3852000.42643   3008399.48942  20506557.196    20506552.009
        56.000          51.000
  23519702.232    11278936.38543   8792506.32442  23519702.793    23519701.010
        46.000          39.000
  21514667.830     2027910.46543   1590543.21042  21514668.953    21514664.474
        54.000          47.000
  21611650.993    20441883.20543  15930081.98742  21611652.754    21611649.892
        55.000          48.000
  24614065.735    -1629794.16353  -1193841.81752  24614068.133    24614067.362
        41.000          35.000
  23912823.758    19148787.01643  14926204.22342  23912825.013    23912821.389
        45.000          41.000
  21773986.464    11452600.24543   8931026.44842  21773988.287    21773984.038
        53.000          45.000
  21875850.104   -13283124.43843 -10339520.25642  21875851.725    21875851.005
        53.000          47.000
  21377302.462     1918352.40843   1495754.60142  21377303.286    21377299.527
        54.000          47.000
 03  6 27 16 54 20.0000000  0 10G21G18G16G15G 6G 3G29G26G23G17
  20629706.707    10968932.92844   8549492.65842  20629708.280    20629702.920
        57.000          50.000
  20504253.217     3839898.63743   2998969.51542  20504254.766    20504248.859
        56.000          51.000
  23523837.508    11300657.45943   8809431.73142  23523837.586    23523833.458
        47.000          39.000
  21507619.859     1990873.42543   1561683.17542  21507620.792    21507617.305
        55.000          47.000
  21621811.780    20495280.45143  15971690.14642  21621813.732    21621811.069
        55.000          48.000
  24601494.048    -1695866.44343  -1245326.74242  24601495.692    24601496.759
        43.000          36.000
  23922314.935    19198653.31543  14965061.03942  23922316.626    23922311.533
        46.000          41.000
  21779742.024    11482852.16243   8954599.34842  21779745.416    21779741.010
        52.000          45.000
  21869290.173   -13317599.10343 -10366383.60942  21869291.170    21869289.334
        53.000          46.000
  21381247.520     1939076.53443   1511903.21442  21381248.363    21381243.599
        55.000          47.000
 03  6 27 16 54 40.0000000  0 10G21G18G16G15G 6G 3G29G26G23G17
  20630298.115    10972037.76544   8551911.98642  20630299.734    20630294.021
        57.000          50.000
  20501984.450     3827978.58043   2989681.15142  20501986.311    20501980.723
        56.000          51.000
  23528007.407    11322574.08043   8826509.53242  23528010.713    23528005.395
        47.000          39.000
  21500583.998     1953897.04743   1532870.41042  21500585.027    21500581.039
        55.000          47.000
  21632005.161    20548849.23643  16013431.95842  21632007.789    21632005.031
        54.000          47.000
  24588934.201    -1761864.90643  -1296754.11742  24588936.217    24588935.944
        43.000          36.000
  23931834.338    19248688.96943  15004049.83042  23931837.762    23931832.245
        46.000          41.000
  21785552.312    11513380.71143   8978387.81242  21785554.324    21785550.078
        53.000          45.000
  21862759.772   -13351918.45543 -10393125.95242  21862760.882    21862758.636
        53.000          46.000
  21385207.608     1959894.80443   1528125.20642  21385208.810    21385205.168
        54.000          47.000
 03  6 27 16 55  0.0000000  0 10G21G18G16G15G 6G 3G29G26G23G17
  20630910.314    10975249.44744   8554414.56842  20630911.078    20630905.427
        57.000          50.000
  20499750.510     3816239.54743   2980533.84242  20499752.463    20499746.949
        56.000          51.000
  23532214.176    11344685.10343   8843738.81042  23532216.518    23532214.385
        46.000          39.000
  21493556.939     1916981.02843   1504104.66542  21493559.749    21493556.086
        54.000          47.000
  21642232.073    20602588.51443  16055306.63042  21642234.411    21642231.655
        54.000          47.000
  24576390.119    -1827789.48343  -1348123.91842  24576392.527    24576390.041
        44.000          37.000
  23941387.258    19298892.74243  15043169.63642  23941389.936    23941386.525
        46.000          41.000
  21791414.032    11544185.10243   9002391.20442  21791416.978    21791413.038
        53.000          45.000
  21856258.397   -13386083.02843 -10419747.68542  21856259.829    21856256.952
        54.000          46.000
  21389186.305     1980807.00643   1544420.39142  21389187.335    21389185.028
        53.000          47.000
